Wetterdaten: Sonntag, 01.01.2023
Datum Zeit Temp. 2m Temp +5 cm Feuchte A. Luftdruck Regen Wind Richtung Richtung Sonnenschein UV Solar Taupunkt Windchill Windben
01.01.2023 00:00 11,2 C 10,0 C 70 % 1014,6 hPa 0,0 l/m 22,5 km/h (4 Bft) S 180 0 min 0,0 UV-I 0 W/m 5,9 C 4,1 C 32,2 km/h (5 Bft)
01.01.2023 00:01 11,2 C 10,0 C 70 % 1014,6 hPa 0,0 l/m 19,3 km/h (3 Bft) S 180 0 min 0,0 UV-I 0 W/m 5,9 C 5,1 C 30,6 km/h (5 Bft)
01.01.2023 00:02 11,2 C 10,0 C 70 % 1014,5 hPa 0,0 l/m 20,9 km/h (4 Bft) S 180 0 min 0,0 UV-I 0 W/m 5,9 C 4,6 C 27,4 km/h (4 Bft)
01.01.2023 00:03 11,2 C 10,0 C 70 % 1014,6 hPa 0,0 l/m 24,1 km/h (4 Bft) S 180 0 min 0,0 UV-I 0 W/m 5,9 C 3,7 C 33,8 km/h (5 Bft)
01.01.2023 00:04 11,2 C 10,0 C 70 % 1014,6 hPa 0,0 l/m 22,5 km/h (4 Bft) S 180 0 min 0,0 UV-I 0 W/m 5,9 C 4,1 C 30,6 km/h (5 Bft)
01.01.2023 00:05 11,2 C 10,0 C 70 % 1014,5 hPa 0,0 l/m 27,4 km/h (4 Bft) S 180 0 min 0,0 UV-I 0 W/m 5,9 C 2,9 C 40,2 km/h (6 Bft)
01.01.2023 00:06 11,2 C 10,0 C 70 % 1014,5 hPa 0,0 l/m 25,7 km/h (4 Bft) S 180 0 min 0,0 UV-I 0 W/m 5,9 C 3,3 C 40,2 km/h (6 Bft)
01.01.2023 00:07 11,2 C 10,0 C 70 % 1014,5 hPa 0,0 l/m 17,7 km/h (3 Bft) S-SO 157 0 min 0,0 UV-I 0 W/m 5,9 C 5,6 C 27,4 km/h (4 Bft)
01.01.2023 00:08 11,2 C 10,0 C 70 % 1014,5 hPa 0,0 l/m 20,9 km/h (4 Bft) S 180 0 min 0,0 UV-I 0 W/m 5,9 C 4,6 C 37,0 km/h (5 Bft)
01.01.2023 00:09 11,2 C 10,0 C 70 % 1014,6 hPa 0,0 l/m 20,9 km/h (4 Bft) S 180 0 min 0,0 UV-I 0 W/m 5,9 C 4,6 C 35,4 km/h (5 Bft)
01.01.2023 00:10 11,2 C 10,0 C 70 % 1014,4 hPa 0,0 l/m 17,7 km/h (3 Bft) S 180 0 min 0,0 UV-I 0 W/m 5,9 C 5,6 C 27,4 km/h (4 Bft)
01.01.2023 00:11 11,1 C 10,0 C 70 % 1014,5 hPa 0,0 l/m 17,7 km/h (3 Bft) S 180 0 min 0,0 UV-I 0 W/m 5,8 C 5,5 C 25,7 km/h (4 Bft)
01.01.2023 00:12 11,1 C 10,0 C 70 % 1014,6 hPa 0,0 l/m 22,5 km/h (4 Bft) S 180 0 min 0,0 UV-I 0 W/m 5,8 C 4,0 C 33,8 km/h (5 Bft)
01.01.2023 00:13 11,1 C 10,0 C 69 % 1014,5 hPa 0,0 l/m 20,9 km/h (4 Bft) S 180 0 min 0,0 UV-I 0 W/m 5,6 C 4,4 C 30,6 km/h (5 Bft)
01.01.2023 00:14 11,1 C 10,0 C 69 % 1014,5 hPa 0,0 l/m 14,5 km/h (3 Bft) S 180 0 min 0,0 UV-I 0 W/m 5,6 C 6,7 C 22,5 km/h (4 Bft)
01.01.2023 00:15 11,1 C 9,4 C 70 % 1014,6 hPa 0,0 l/m 19,3 km/h (3 Bft) S 180 0 min 0,0 UV-I 0 W/m 5,8 C 4,9 C 29,0 km/h (5 Bft)
01.01.2023 00:16 11,1 C 10,0 C 69 % 1014,5 hPa 0,0 l/m 22,5 km/h (4 Bft) S 180 0 min 0,0 UV-I 0 W/m 5,6 C 4,0 C 30,6 km/h (5 Bft)
01.01.2023 00:17 11,1 C 10,0 C 69 % 1014,6 hPa 0,0 l/m 20,9 km/h (4 Bft) S 180 0 min 0,0 UV-I 0 W/m 5,6 C 4,4 C 32,2 km/h (5 Bft)
01.01.2023 00:18 11,1 C 10,0 C 69 % 1014,6 hPa 0,0 l/m 19,3 km/h (3 Bft) S 180 0 min 0,0 UV-I 0 W/m 5,6 C 4,9 C 29,0 km/h (5 Bft)
01.01.2023 00:19 11,1 C 10,0 C 69 % 1014,6 hPa 0,0 l/m 20,9 km/h (4 Bft) S 180 0 min 0,0 UV-I 0 W/m 5,6 C 4,4 C 35,4 km/h (5 Bft)
01.01.2023 00:20 11,1 C 10,0 C 69 % 1014,6 hPa 0,0 l/m 19,3 km/h (3 Bft) S 180 0 min 0,0 UV-I 0 W/m 5,6 C 4,9 C 29,0 km/h (5 Bft)
01.01.2023 00:21 11,1 C 10,0 C 69 % 1014,5 hPa 0,0 l/m 20,9 km/h (4 Bft) S 180 0 min 0,0 UV-I 0 W/m 5,6 C 4,4 C 30,6 km/h (5 Bft)
01.01.2023 00:22 11,1 C 10,0 C 69 % 1014,6 hPa 0,0 l/m 20,9 km/h (4 Bft) S 180 0 min 0,0 UV-I 0 W/m 5,6 C 4,4 C 25,7 km/h (4 Bft)
01.01.2023 00:23 11,1 C 10,0 C 69 % 1014,4 hPa 0,0 l/m 19,3 km/h (3 Bft) S 180 0 min 0,0 UV-I 0 W/m 5,6 C 4,9 C 27,4 km/h (4 Bft)
01.01.2023 00:24 11,1 C 10,0 C 69 % 1014,5 hPa 0,0 l/m 17,7 km/h (3 Bft) S 180 0 min 0,0 UV-I 0 W/m 5,6 C 5,5 C 29,0 km/h (5 Bft)
01.01.2023 00:25 11,1 C 10,0 C 69 % 1014,5 hPa 0,0 l/m 19,3 km/h (3 Bft) S 180 0 min 0,0 UV-I 0 W/m 5,6 C 4,9 C 37,0 km/h (5 Bft)
01.01.2023 00:26 11,0 C 10,0 C 69 % 1014,6 hPa 0,0 l/m 22,5 km/h (4 Bft) S 180 0 min 0,0 UV-I 0 W/m 5,5 C 3,8 C 33,8 km/h (5 Bft)
01.01.2023 00:27 11,0 C 10,0 C 69 % 1014,5 hPa 0,0 l/m 17,7 km/h (3 Bft) S 180 0 min 0,0 UV-I 0 W/m 5,5 C 5,3 C 30,6 km/h (5 Bft)
01.01.2023 00:28 10,9 C 9,4 C 69 % 1014,6 hPa 0,0 l/m 17,7 km/h (3 Bft) S 180 0 min 0,0 UV-I 0 W/m 5,4 C 5,2 C 25,7 km/h (4 Bft)
01.01.2023 00:29 10,9 C 9,4 C 69 % 1014,7 hPa 0,0 l/m 19,3 km/h (3 Bft) S 180 0 min 0,0 UV-I 0 W/m 5,4 C 4,7 C 25,7 km/h (4 Bft)
01.01.2023 00:30 10,9 C 9,4 C 69 % 1014,6 hPa 0,0 l/m 17,7 km/h (3 Bft) S 180 0 min 0,0 UV-I 0 W/m 5,4 C 5,2 C 29,0 km/h (5 Bft)
01.01.2023 00:31 10,9 C 9,4 C 69 % 1014,7 hPa 0,0 l/m 17,7 km/h (3 Bft) S 180 0 min 0,0 UV-I 0 W/m 5,4 C 5,2 C 29,0 km/h (5 Bft)
01.01.2023 00:32 10,9 C 9,4 C 69 % 1014,7 hPa 0,0 l/m 20,9 km/h (4 Bft) S 180 0 min 0,0 UV-I 0 W/m 5,4 C 4,2 C 29,0 km/h (5 Bft)
01.01.2023 00:33 10,9 C 9,4 C 69 % 1014,6 hPa 0,0 l/m 17,7 km/h (3 Bft) S 180 0 min 0,0 UV-I 0 W/m 5,4 C 5,2 C 25,7 km/h (4 Bft)
01.01.2023 00:34 10,9 C 9,4 C 69 % 1014,7 hPa 0,0 l/m 20,9 km/h (4 Bft) S-SW 202 0 min 0,0 UV-I 0 W/m 5,4 C 4,2 C 27,4 km/h (4 Bft)
01.01.2023 00:35 10,9 C 9,4 C 69 % 1014,6 hPa 0,0 l/m 20,9 km/h (4 Bft) S-SW 202 0 min 0,0 UV-I 0 W/m 5,4 C 4,2 C 29,0 km/h (5 Bft)
01.01.2023 00:36 10,9 C 9,4 C 69 % 1014,6 hPa 0,0 l/m 20,9 km/h (4 Bft) S 180 0 min 0,0 UV-I 0 W/m 5,4 C 4,2 C 30,6 km/h (5 Bft)
01.01.2023 00:37 10,9 C 9,4 C 69 % 1014,7 hPa 0,0 l/m 20,9 km/h (4 Bft) S 180 0 min 0,0 UV-I 0 W/m 5,4 C 4,2 C 27,4 km/h (4 Bft)
01.01.2023 00:38 10,9 C 9,4 C 69 % 1014,7 hPa 0,0 l/m 19,3 km/h (3 Bft) S-SW 202 0 min 0,0 UV-I 0 W/m 5,4 C 4,7 C 27,4 km/h (4 Bft)
01.01.2023 00:39 10,9 C 9,4 C 69 % 1014,8 hPa 0,0 l/m 20,9 km/h (4 Bft) S 180 0 min 0,0 UV-I 0 W/m 5,4 C 4,2 C 27,4 km/h (4 Bft)
01.01.2023 00:40 10,9 C 9,4 C 69 % 1014,7 hPa 0,0 l/m 16,1 km/h (3 Bft) S-SW 202 0 min 0,0 UV-I 0 W/m 5,4 C 5,8 C 19,3 km/h (3 Bft)
01.01.2023 00:41 10,9 C 9,4 C 69 % 1014,7 hPa 0,0 l/m 22,5 km/h (4 Bft) S-SW 202 0 min 0,0 UV-I 0 W/m 5,4 C 3,7 C 32,2 km/h (5 Bft)
01.01.2023 00:42 10,9 C 9,4 C 69 % 1014,7 hPa 0,0 l/m 24,1 km/h (4 Bft) S 180 0 min 0,0 UV-I 0 W/m 5,4 C 3,3 C 37,0 km/h (5 Bft)
01.01.2023 00:43 10,9 C 9,4 C 69 % 1014,7 hPa 0,0 l/m 22,5 km/h (4 Bft) S 180 0 min 0,0 UV-I 0 W/m 5,4 C 3,7 C 30,6 km/h (5 Bft)
01.01.2023 00:44 10,9 C 9,4 C 69 % 1014,6 hPa 0,0 l/m 19,3 km/h (3 Bft) S 180 0 min 0,0 UV-I 0 W/m 5,4 C 4,7 C 25,7 km/h (4 Bft)
01.01.2023 00:45 10,9 C 9,4 C 69 % 1014,7 hPa 0,0 l/m 20,9 km/h (4 Bft) S 180 0 min 0,0 UV-I 0 W/m 5,4 C 4,2 C 27,4 km/h (4 Bft)
01.01.2023 00:46 10,9 C 9,4 C 69 % 1014,7 hPa 0,0 l/m 17,7 km/h (3 Bft) S 180 0 min 0,0 UV-I 0 W/m 5,4 C 5,2 C 29,0 km/h (5 Bft)
01.01.2023 00:47 10,9 C 9,4 C 69 % 1014,7 hPa 0,0 l/m 17,7 km/h (3 Bft) S 180 0 min 0,0 UV-I 0 W/m 5,4 C 5,2 C 27,4 km/h (4 Bft)
01.01.2023 00:48 10,9 C 9,4 C 69 % 1014,8 hPa 0,0 l/m 22,5 km/h (4 Bft) S 180 0 min 0,0 UV-I 0 W/m 5,4 C 3,7 C 35,4 km/h (5 Bft)
01.01.2023 00:49 10,9 C 9,4 C 69 % 1014,7 hPa 0,0 l/m 19,3 km/h (3 Bft) S 180 0 min 0,0 UV-I 0 W/m 5,4 C 4,7 C 27,4 km/h (4 Bft)
01.01.2023 00:50 10,9 C 9,4 C 69 % 1014,8 hPa 0,0 l/m 19,3 km/h (3 Bft) S 180 0 min 0,0 UV-I 0 W/m 5,4 C 4,7 C 30,6 km/h (5 Bft)
01.01.2023 00:51 10,9 C 9,4 C 69 % 1014,9 hPa 0,0 l/m 19,3 km/h (3 Bft) S 180 0 min 0,0 UV-I 0 W/m 5,4 C 4,7 C 27,4 km/h (4 Bft)
01.01.2023 00:52 10,9 C 9,4 C 69 % 1014,8 hPa 0,0 l/m 20,9 km/h (4 Bft) S 180 0 min 0,0 UV-I 0 W/m 5,4 C 4,2 C 30,6 km/h (5 Bft)
01.01.2023 00:53 10,9 C 9,4 C 69 % 1014,8 hPa 0,0 l/m 17,7 km/h (3 Bft) S 180 0 min 0,0 UV-I 0 W/m 5,4 C 5,2 C 25,7 km/h (4 Bft)
01.01.2023 00:54 10,8 C 9,4 C 69 % 1014,8 hPa 0,0 l/m 17,7 km/h (3 Bft) S 180 0 min 0,0 UV-I 0 W/m 5,3 C 5,1 C 25,7 km/h (4 Bft)
01.01.2023 00:55 10,8 C 9,4 C 69 % 1014,8 hPa 0,0 l/m 17,7 km/h (3 Bft) S 180 0 min 0,0 UV-I 0 W/m 5,3 C 5,1 C 24,1 km/h (4 Bft)
01.01.2023 00:56 10,8 C 9,4 C 70 % 1014,9 hPa 0,0 l/m 19,3 km/h (3 Bft) S 180 0 min 0,0 UV-I 0 W/m 5,6 C 4,5 C 33,8 km/h (5 Bft)
01.01.2023 00:57 10,8 C 9,4 C 70 % 1014,8 hPa 0,0 l/m 16,1 km/h (3 Bft) S 180 0 min 0,0 UV-I 0 W/m 5,6 C 5,7 C 20,9 km/h (4 Bft)
01.01.2023 00:58 10,8 C 9,4 C 70 % 1014,8 hPa 0,0 l/m 17,7 km/h (3 Bft) S 180 0 min 0,0 UV-I 0 W/m 5,6 C 5,1 C 24,1 km/h (4 Bft)
01.01.2023 00:59 10,8 C 9,4 C 70 % 1014,9 hPa 0,0 l/m 17,7 km/h (3 Bft) S 180 0 min 0,0 UV-I 0 W/m 5,6 C 5,1 C 24,1 km/h (4 Bft)
01.01.2023 01:00 10,8 C 9,4 C 70 % 1014,9 hPa 0,0 l/m 20,9 km/h (4 Bft) S 180 0 min 0,0 UV-I 0 W/m 5,6 C 4,0 C 27,4 km/h (4 Bft)
01.01.2023 01:01 10,8 C 9,4 C 70 % 1014,7 hPa 0,0 l/m 20,9 km/h (4 Bft) S 180 0 min 0,0 UV-I 0 W/m 5,6 C 4,0 C 33,8 km/h (5 Bft)
01.01.2023 01:02 10,8 C 10,0 C 70 % 1014,9 hPa 0,0 l/m 20,9 km/h (4 Bft) S-SW 202 0 min 0,0 UV-I 0 W/m 5,6 C 4,0 C 30,6 km/h (5 Bft)
01.01.2023 01:03 10,8 C 10,0 C 70 % 1014,8 hPa 0,0 l/m 22,5 km/h (4 Bft) S 180 0 min 0,0 UV-I 0 W/m 5,6 C 3,6 C 33,8 km/h (5 Bft)
01.01.2023 01:04 10,8 C 9,4 C 70 % 1014,9 hPa 0,0 l/m 20,9 km/h (4 Bft) S 180 0 min 0,0 UV-I 0 W/m 5,6 C 4,0 C 35,4 km/h (5 Bft)
01.01.2023 01:05 10,8 C 9,4 C 70 % 1014,8 hPa 0,0 l/m 19,3 km/h (3 Bft) S 180 0 min 0,0 UV-I 0 W/m 5,6 C 4,5 C 29,0 km/h (5 Bft)
01.01.2023 01:06 10,8 C 9,4 C 70 % 1014,8 hPa 0,0 l/m 19,3 km/h (3 Bft) S 180 0 min 0,0 UV-I 0 W/m 5,6 C 4,5 C 29,0 km/h (5 Bft)
01.01.2023 01:07 10,8 C 9,4 C 70 % 1014,8 hPa 0,0 l/m 25,7 km/h (4 Bft) S 180 0 min 0,0 UV-I 0 W/m 5,6 C 2,7 C 37,0 km/h (5 Bft)
01.01.2023 01:08 10,8 C 9,4 C 70 % 1014,8 hPa 0,0 l/m 22,5 km/h (4 Bft) S 180 0 min 0,0 UV-I 0 W/m 5,6 C 3,6 C 33,8 km/h (5 Bft)
01.01.2023 01:09 10,8 C 9,4 C 70 % 1014,9 hPa 0,0 l/m 22,5 km/h (4 Bft) S 180 0 min 0,0 UV-I 0 W/m 5,6 C 3,6 C 30,6 km/h (5 Bft)
01.01.2023 01:10 10,8 C 9,4 C 70 % 1014,9 hPa 0,0 l/m 19,3 km/h (3 Bft) S 180 0 min 0,0 UV-I 0 W/m 5,6 C 4,5 C 35,4 km/h (5 Bft)
01.01.2023 01:11 10,8 C 9,4 C 70 % 1014,8 hPa 0,0 l/m 22,5 km/h (4 Bft) S 180 0 min 0,0 UV-I 0 W/m 5,6 C 3,6 C 33,8 km/h (5 Bft)
01.01.2023 01:12 10,8 C 9,4 C 70 % 1014,8 hPa 0,0 l/m 24,1 km/h (4 Bft) S 180 0 min 0,0 UV-I 0 W/m 5,6 C 3,1 C 35,4 km/h (5 Bft)
01.01.2023 01:13 10,8 C 9,4 C 70 % 1014,8 hPa 0,0 l/m 19,3 km/h (3 Bft) S 180 0 min 0,0 UV-I 0 W/m 5,6 C 4,5 C 24,1 km/h (4 Bft)
01.01.2023 01:14 10,8 C 9,4 C 70 % 1014,9 hPa 0,0 l/m 17,7 km/h (3 Bft) S 180 0 min 0,0 UV-I 0 W/m 5,6 C 5,1 C 25,7 km/h (4 Bft)
01.01.2023 01:15 10,8 C 9,4 C 70 % 1014,8 hPa 0,0 l/m 20,9 km/h (4 Bft) S-SO 157 0 min 0,0 UV-I 0 W/m 5,6 C 4,0 C 32,2 km/h (5 Bft)
01.01.2023 01:16 10,8 C 9,4 C 70 % 1014,9 hPa 0,0 l/m 25,7 km/h (4 Bft) S 180 0 min 0,0 UV-I 0 W/m 5,6 C 2,7 C 33,8 km/h (5 Bft)
01.01.2023 01:17 10,8 C 9,4 C 70 % 1014,9 hPa 0,0 l/m 17,7 km/h (3 Bft) S 180 0 min 0,0 UV-I 0 W/m 5,6 C 5,1 C 27,4 km/h (4 Bft)
01.01.2023 01:18 10,8 C 9,4 C 70 % 1014,8 hPa 0,0 l/m 20,9 km/h (4 Bft) S 180 0 min 0,0 UV-I 0 W/m 5,6 C 4,0 C 37,0 km/h (5 Bft)
01.01.2023 01:19 10,8 C 9,4 C 70 % 1015,0 hPa 0,0 l/m 22,5 km/h (4 Bft) S-SW 202 0 min 0,0 UV-I 0 W/m 5,6 C 3,6 C 33,8 km/h (5 Bft)
01.01.2023 01:20 10,8 C 10,0 C 70 % 1014,9 hPa 0,0 l/m 24,1 km/h (4 Bft) S 180 0 min 0,0 UV-I 0 W/m 5,6 C 3,1 C 32,2 km/h (5 Bft)
01.01.2023 01:21 10,8 C 9,4 C 69 % 1014,9 hPa 0,0 l/m 25,7 km/h (4 Bft) S-SW 202 0 min 0,0 UV-I 0 W/m 5,3 C 2,7 C 33,8 km/h (5 Bft)
01.01.2023 01:22 10,8 C 10,0 C 69 % 1014,9 hPa 0,0 l/m 19,3 km/h (3 Bft) S 180 0 min 0,0 UV-I 0 W/m 5,3 C 4,5 C 35,4 km/h (5 Bft)
01.01.2023 01:23 10,8 C 9,4 C 69 % 1014,9 hPa 0,0 l/m 22,5 km/h (4 Bft) S 180 0 min 0,0 UV-I 0 W/m 5,3 C 3,6 C 30,6 km/h (5 Bft)
01.01.2023 01:24 10,8 C 9,4 C 69 % 1014,8 hPa 0,0 l/m 20,9 km/h (4 Bft) S 180 0 min 0,0 UV-I 0 W/m 5,3 C 4,0 C 30,6 km/h (5 Bft)
01.01.2023 01:25 10,9 C 9,4 C 69 % 1014,9 hPa 0,0 l/m 24,1 km/h (4 Bft) S 180 0 min 0,0 UV-I 0 W/m 5,4 C 3,3 C 33,8 km/h (5 Bft)
01.01.2023 01:26 10,8 C 9,4 C 69 % 1014,8 hPa 0,0 l/m 20,9 km/h (4 Bft) S 180 0 min 0,0 UV-I 0 W/m 5,3 C 4,0 C 37,0 km/h (5 Bft)
01.01.2023 01:27 10,8 C 10,0 C 69 % 1014,9 hPa 0,0 l/m 19,3 km/h (3 Bft) S 180 0 min 0,0 UV-I 0 W/m 5,3 C 4,5 C 27,4 km/h (4 Bft)
01.01.2023 01:28 10,8 C 9,4 C 69 % 1014,9 hPa 0,0 l/m 17,7 km/h (3 Bft) S 180 0 min 0,0 UV-I 0 W/m 5,3 C 5,1 C 25,7 km/h (4 Bft)
01.01.2023 01:29 10,8 C 9,4 C 69 % 1014,9 hPa 0,0 l/m 22,5 km/h (4 Bft) S 180 0 min 0,0 UV-I 0 W/m 5,3 C 3,6 C 30,6 km/h (5 Bft)
01.01.2023 01:30 10,8 C 9,4 C 69 % 1014,8 hPa 0,0 l/m 19,3 km/h (3 Bft) S 180 0 min 0,0 UV-I 0 W/m 5,3 C 4,5 C 29,0 km/h (5 Bft)
01.01.2023 01:31 10,8 C 9,4 C 69 % 1014,8 hPa 0,0 l/m 19,3 km/h (3 Bft) S 180 0 min 0,0 UV-I 0 W/m 5,3 C 4,5 C 25,7 km/h (4 Bft)
01.01.2023 01:32 10,8 C 9,4 C 69 % 1014,8 hPa 0,0 l/m 17,7 km/h (3 Bft) S 180 0 min 0,0 UV-I 0 W/m 5,3 C 5,1 C 25,7 km/h (4 Bft)
01.01.2023 01:33 10,8 C 9,4 C 69 % 1014,9 hPa 0,0 l/m 20,9 km/h (4 Bft) S 180 0 min 0,0 UV-I 0 W/m 5,3 C 4,0 C 29,0 km/h (5 Bft)
01.01.2023 01:34 10,8 C 9,4 C 69 % 1014,8 hPa 0,0 l/m 22,5 km/h (4 Bft) S 180 0 min 0,0 UV-I 0 W/m 5,3 C 3,6 C 30,6 km/h (5 Bft)
01.01.2023 01:35 10,8 C 9,4 C 69 % 1014,9 hPa 0,0 l/m 27,4 km/h (4 Bft) S 180 0 min 0,0 UV-I 0 W/m 5,3 C 2,3 C 37,0 km/h (5 Bft)
01.01.2023 01:36 10,8 C 9,4 C 69 % 1014,8 hPa 0,0 l/m 24,1 km/h (4 Bft) S 180 0 min 0,0 UV-I 0 W/m 5,3 C 3,1 C 37,0 km/h (5 Bft)
01.01.2023 01:37 10,8 C 9,4 C 69 % 1014,6 hPa 0,0 l/m 24,1 km/h (4 Bft) S 180 0 min 0,0 UV-I 0 W/m 5,3 C 3,1 C 32,2 km/h (5 Bft)
01.01.2023 01:38 10,8 C 9,4 C 69 % 1014,8 hPa 0,0 l/m 24,1 km/h (4 Bft) S 180 0 min 0,0 UV-I 0 W/m 5,3 C 3,1 C 33,8 km/h (5 Bft)
01.01.2023 01:39 10,8 C 9,4 C 69 % 1014,7 hPa 0,0 l/m 17,7 km/h (3 Bft) S 180 0 min 0,0 UV-I 0 W/m 5,3 C 5,1 C 29,0 km/h (5 Bft)
01.01.2023 01:40 10,8 C 9,4 C 69 % 1014,7 hPa 0,0 l/m 19,3 km/h (3 Bft) S 180 0 min 0,0 UV-I 0 W/m 5,3 C 4,5 C 29,0 km/h (5 Bft)
01.01.2023 01:41 10,7 C 9,4 C 69 % 1014,8 hPa 0,0 l/m 19,3 km/h (3 Bft) S 180 0 min 0,0 UV-I 0 W/m 5,2 C 4,4 C 27,4 km/h (4 Bft)
01.01.2023 01:42 10,7 C 9,4 C 69 % 1014,8 hPa 0,0 l/m 17,7 km/h (3 Bft) S 180 0 min 0,0 UV-I 0 W/m 5,2 C 5,0 C 24,1 km/h (4 Bft)
01.01.2023 01:43 10,7 C 9,4 C 69 % 1014,6 hPa 0,0 l/m 20,9 km/h (4 Bft) S 180 0 min 0,0 UV-I 0 W/m 5,2 C 3,9 C 30,6 km/h (5 Bft)
01.01.2023 01:44 10,7 C 9,4 C 69 % 1014,8 hPa 0,0 l/m 32,2 km/h (5 Bft) S 180 0 min 0,0 UV-I 0 W/m 5,2 C 1,2 C 48,3 km/h (6 Bft)
01.01.2023 01:45 10,7 C 9,4 C 69 % 1014,6 hPa 0,0 l/m 20,9 km/h (4 Bft) S-SO 157 0 min 0,0 UV-I 0 W/m 5,2 C 3,9 C 40,2 km/h (6 Bft)
01.01.2023 01:46 10,8 C 9,4 C 69 % 1014,7 hPa 0,0 l/m 19,3 km/h (3 Bft) S 180 0 min 0,0 UV-I 0 W/m 5,3 C 4,5 C 33,8 km/h (5 Bft)
01.01.2023 01:47 10,7 C 9,4 C 69 % 1014,6 hPa 0,0 l/m 19,3 km/h (3 Bft) S 180 0 min 0,0 UV-I 0 W/m 5,2 C 4,4 C 32,2 km/h (5 Bft)
01.01.2023 01:48 10,7 C 9,4 C 69 % 1014,6 hPa 0,0 l/m 19,3 km/h (3 Bft) S 180 0 min 0,0 UV-I 0 W/m 5,2 C 4,4 C 25,7 km/h (4 Bft)
01.01.2023 01:49 10,7 C 9,4 C 69 % 1014,7 hPa 0,0 l/m 25,7 km/h (4 Bft) S 180 0 min 0,0 UV-I 0 W/m 5,2 C 2,6 C 37,0 km/h (5 Bft)
01.01.2023 01:50 10,7 C 9,4 C 69 % 1014,7 hPa 0,0 l/m 22,5 km/h (4 Bft) S 180 0 min 0,0 UV-I 0 W/m 5,2 C 3,4 C 30,6 km/h (5 Bft)
01.01.2023 01:51 10,7 C 9,4 C 69 % 1014,7 hPa 0,0 l/m 19,3 km/h (3 Bft) S 180 0 min 0,0 UV-I 0 W/m 5,2 C 4,4 C 29,0 km/h (5 Bft)
01.01.2023 01:52 10,7 C 9,4 C 69 % 1014,7 hPa 0,0 l/m 19,3 km/h (3 Bft) S 180 0 min 0,0 UV-I 0 W/m 5,2 C 4,4 C 35,4 km/h (5 Bft)
01.01.2023 01:53 10,7 C 9,4 C 69 % 1014,7 hPa 0,0 l/m 20,9 km/h (4 Bft) S 180 0 min 0,0 UV-I 0 W/m 5,2 C 3,9 C 30,6 km/h (5 Bft)
01.01.2023 01:54 10,7 C 9,4 C 69 % 1014,6 hPa 0,0 l/m 22,5 km/h (4 Bft) S 180 0 min 0,0 UV-I 0 W/m 5,2 C 3,4 C 35,4 km/h (5 Bft)
01.01.2023 01:55 10,7 C 9,4 C 69 % 1014,7 hPa 0,0 l/m 22,5 km/h (4 Bft) S 180 0 min 0,0 UV-I 0 W/m 5,2 C 3,4 C 33,8 km/h (5 Bft)
01.01.2023 01:56 10,8 C 9,4 C 68 % 1014,7 hPa 0,0 l/m 20,9 km/h (4 Bft) S 180 0 min 0,0 UV-I 0 W/m 5,1 C 4,0 C 35,4 km/h (5 Bft)
01.01.2023 01:57 10,8 C 9,4 C 68 % 1014,7 hPa 0,0 l/m 22,5 km/h (4 Bft) S 180 0 min 0,0 UV-I 0 W/m 5,1 C 3,6 C 32,2 km/h (5 Bft)
01.01.2023 01:58 10,8 C 9,4 C 68 % 1014,7 hPa 0,0 l/m 16,1 km/h (3 Bft) S 180 0 min 0,0 UV-I 0 W/m 5,1 C 5,7 C 24,1 km/h (4 Bft)
01.01.2023 01:59 10,8 C 9,4 C 68 % 1014,7 hPa 0,0 l/m 20,9 km/h (4 Bft) S 180 0 min 0,0 UV-I 0 W/m 5,1 C 4,0 C 30,6 km/h (5 Bft)
01.01.2023 02:00 10,8 C 9,4 C 68 % 1014,7 hPa 0,0 l/m 20,9 km/h (4 Bft) S 180 0 min 0,0 UV-I 0 W/m 5,1 C 4,0 C 29,0 km/h (5 Bft)
01.01.2023 02:01 10,8 C 10,0 C 68 % 1014,6 hPa 0,0 l/m 22,5 km/h (4 Bft) S 180 0 min 0,0 UV-I 0 W/m 5,1 C 3,6 C 32,2 km/h (5 Bft)
01.01.2023 02:02 10,8 C 10,0 C 68 % 1014,6 hPa 0,0 l/m 17,7 km/h (3 Bft) S 180 0 min 0,0 UV-I 0 W/m 5,1 C 5,1 C 29,0 km/h (5 Bft)
01.01.2023 02:03 10,8 C 9,4 C 68 % 1014,6 hPa 0,0 l/m 24,1 km/h (4 Bft) S 180 0 min 0,0 UV-I 0 W/m 5,1 C 3,1 C 40,2 km/h (6 Bft)
01.01.2023 02:04 10,8 C 10,0 C 68 % 1014,7 hPa 0,0 l/m 19,3 km/h (3 Bft) S 180 0 min 0,0 UV-I 0 W/m 5,1 C 4,5 C 30,6 km/h (5 Bft)
01.01.2023 02:05 10,8 C 9,4 C 68 % 1014,5 hPa 0,0 l/m 16,1 km/h (3 Bft) S 180 0 min 0,0 UV-I 0 W/m 5,1 C 5,7 C 24,1 km/h (4 Bft)
01.01.2023 02:06 10,8 C 9,4 C 68 % 1014,6 hPa 0,0 l/m 20,9 km/h (4 Bft) S 180 0 min 0,0 UV-I 0 W/m 5,1 C 4,0 C 30,6 km/h (5 Bft)
01.01.2023 02:07 10,8 C 9,4 C 68 % 1014,6 hPa 0,0 l/m 25,7 km/h (4 Bft) S-SW 202 0 min 0,0 UV-I 0 W/m 5,1 C 2,7 C 33,8 km/h (5 Bft)
01.01.2023 02:08 10,8 C 9,4 C 68 % 1014,6 hPa 0,0 l/m 17,7 km/h (3 Bft) S 180 0 min 0,0 UV-I 0 W/m 5,1 C 5,1 C 22,5 km/h (4 Bft)
01.01.2023 02:09 10,8 C 9,4 C 68 % 1014,6 hPa 0,0 l/m 22,5 km/h (4 Bft) S 180 0 min 0,0 UV-I 0 W/m 5,1 C 3,6 C 32,2 km/h (5 Bft)
01.01.2023 02:10 10,8 C 10,0 C 68 % 1014,7 hPa 0,0 l/m 27,4 km/h (4 Bft) S 180 0 min 0,0 UV-I 0 W/m 5,1 C 2,3 C 37,0 km/h (5 Bft)
01.01.2023 02:11 10,8 C 10,0 C 68 % 1014,5 hPa 0,0 l/m 24,1 km/h (4 Bft) S 180 0 min 0,0 UV-I 0 W/m 5,1 C 3,1 C 32,2 km/h (5 Bft)
01.01.2023 02:12 10,9 C 10,0 C 68 % 1014,5 hPa 0,0 l/m 20,9 km/h (4 Bft) S 180 0 min 0,0 UV-I 0 W/m 5,2 C 4,2 C 41,8 km/h (6 Bft)
01.01.2023 02:13 10,9 C 10,0 C 68 % 1014,4 hPa 0,0 l/m 22,5 km/h (4 Bft) S 180 0 min 0,0 UV-I 0 W/m 5,2 C 3,7 C 30,6 km/h (5 Bft)
01.01.2023 02:14 10,9 C 10,0 C 68 % 1014,6 hPa 0,0 l/m 24,1 km/h (4 Bft) S 180 0 min 0,0 UV-I 0 W/m 5,2 C 3,3 C 35,4 km/h (5 Bft)
01.01.2023 02:15 10,9 C 10,0 C 67 % 1014,6 hPa 0,0 l/m 20,9 km/h (4 Bft) S 180 0 min 0,0 UV-I 0 W/m 5,0 C 4,2 C 32,2 km/h (5 Bft)
01.01.2023 02:16 11,0 C 10,0 C 67 % 1014,6 hPa 0,0 l/m 24,1 km/h (4 Bft) S 180 0 min 0,0 UV-I 0 W/m 5,1 C 3,4 C 33,8 km/h (5 Bft)
01.01.2023 02:17 11,0 C 10,0 C 67 % 1014,6 hPa 0,0 l/m 24,1 km/h (4 Bft) S 180 0 min 0,0 UV-I 0 W/m 5,1 C 3,4 C 30,6 km/h (5 Bft)
01.01.2023 02:18 10,9 C 10,0 C 67 % 1014,7 hPa 0,0 l/m 22,5 km/h (4 Bft) S 180 0 min 0,0 UV-I 0 W/m 5,0 C 3,7 C 30,6 km/h (5 Bft)
01.01.2023 02:19 11,0 C 10,0 C 67 % 1014,7 hPa 0,0 l/m 22,5 km/h (4 Bft) S 180 0 min 0,0 UV-I 0 W/m 5,1 C 3,8 C 33,8 km/h (5 Bft)
01.01.2023 02:20 11,0 C 10,0 C 67 % 1014,6 hPa 0,0 l/m 22,5 km/h (4 Bft) S 180 0 min 0,0 UV-I 0 W/m 5,1 C 3,8 C 32,2 km/h (5 Bft)
01.01.2023 02:21 11,0 C 10,0 C 67 % 1014,6 hPa 0,0 l/m 20,9 km/h (4 Bft) S-SO 157 0 min 0,0 UV-I 0 W/m 5,1 C 4,3 C 37,0 km/h (5 Bft)
01.01.2023 02:22 11,0 C 10,0 C 67 % 1014,6 hPa 0,0 l/m 27,4 km/h (4 Bft) S-SW 202 0 min 0,0 UV-I 0 W/m 5,1 C 2,6 C 38,6 km/h (5 Bft)
01.01.2023 02:23 11,0 C 10,0 C 67 % 1014,5 hPa 0,0 l/m 22,5 km/h (4 Bft) S 180 0 min 0,0 UV-I 0 W/m 5,1 C 3,8 C 32,2 km/h (5 Bft)
01.01.2023 02:24 11,0 C 10,0 C 67 % 1014,6 hPa 0,0 l/m 22,5 km/h (4 Bft) S 180 0 min 0,0 UV-I 0 W/m 5,1 C 3,8 C 37,0 km/h (5 Bft)
01.01.2023 02:25 11,0 C 10,0 C 67 % 1014,6 hPa 0,0 l/m 22,5 km/h (4 Bft) S 180 0 min 0,0 UV-I 0 W/m 5,1 C 3,8 C 29,0 km/h (5 Bft)
01.01.2023 02:26 11,0 C 10,0 C 67 % 1014,6 hPa 0,0 l/m 24,1 km/h (4 Bft) S 180 0 min 0,0 UV-I 0 W/m 5,1 C 3,4 C 38,6 km/h (5 Bft)
01.01.2023 02:27 11,1 C 10,0 C 67 % 1014,7 hPa 0,0 l/m 25,7 km/h (4 Bft) S 180 0 min 0,0 UV-I 0 W/m 5,2 C 3,2 C 41,8 km/h (6 Bft)
01.01.2023 02:28 11,1 C 10,0 C 67 % 1014,7 hPa 0,0 l/m 22,5 km/h (4 Bft) S 180 0 min 0,0 UV-I 0 W/m 5,2 C 4,0 C 29,0 km/h (5 Bft)
01.01.2023 02:29 11,1 C 10,0 C 67 % 1014,9 hPa 0,0 l/m 29,0 km/h (5 Bft) S 180 0 min 0,0 UV-I 0 W/m 5,2 C 2,4 C 45,1 km/h (6 Bft)
01.01.2023 02:30 11,0 C 10,0 C 67 % 1014,7 hPa 0,0 l/m 17,7 km/h (3 Bft) S 180 0 min 0,0 UV-I 0 W/m 5,1 C 5,3 C 25,7 km/h (4 Bft)
01.01.2023 02:31 11,1 C 10,0 C 67 % 1014,9 hPa 0,0 l/m 16,1 km/h (3 Bft) S 180 0 min 0,0 UV-I 0 W/m 5,2 C 6,0 C 30,6 km/h (5 Bft)
01.01.2023 02:32 11,0 C 10,0 C 67 % 1015,0 hPa 0,0 l/m 20,9 km/h (4 Bft) S 180 0 min 0,0 UV-I 0 W/m 5,1 C 4,3 C 35,4 km/h (5 Bft)
01.01.2023 02:33 11,0 C 10,0 C 67 % 1014,9 hPa 0,0 l/m 17,7 km/h (3 Bft) S-SW 202 0 min 0,0 UV-I 0 W/m 5,1 C 5,3 C 33,8 km/h (5 Bft)
01.01.2023 02:34 10,9 C 9,4 C 67 % 1015,0 hPa 0,0 l/m 20,9 km/h (4 Bft) S 180 0 min 0,0 UV-I 0 W/m 5,0 C 4,2 C 29,0 km/h (5 Bft)
01.01.2023 02:35 10,9 C 9,4 C 67 % 1015,1 hPa 0,0 l/m 19,3 km/h (3 Bft) S 180 0 min 0,0 UV-I 0 W/m 5,0 C 4,7 C 27,4 km/h (4 Bft)
01.01.2023 02:36 10,9 C 9,4 C 67 % 1015,0 hPa 0,0 l/m 19,3 km/h (3 Bft) S-SW 202 0 min 0,0 UV-I 0 W/m 5,0 C 4,7 C 29,0 km/h (5 Bft)
01.01.2023 02:37 10,9 C 9,4 C 67 % 1015,1 hPa 0,0 l/m 22,5 km/h (4 Bft) S-SW 202 0 min 0,0 UV-I 0 W/m 5,0 C 3,7 C 32,2 km/h (5 Bft)
01.01.2023 02:38 10,9 C 9,4 C 67 % 1015,1 hPa 0,0 l/m 17,7 km/h (3 Bft) S 180 0 min 0,0 UV-I 0 W/m 5,0 C 5,2 C 27,4 km/h (4 Bft)
01.01.2023 02:39 10,9 C 9,4 C 67 % 1015,1 hPa 0,0 l/m 22,5 km/h (4 Bft) S-SW 202 0 min 0,0 UV-I 0 W/m 5,0 C 3,7 C 32,2 km/h (5 Bft)
01.01.2023 02:40 10,8 C 9,4 C 67 % 1015,1 hPa 0,0 l/m 17,7 km/h (3 Bft) S-SW 202 0 min 0,0 UV-I 0 W/m 4,9 C 5,1 C 24,1 km/h (4 Bft)
01.01.2023 02:41 10,8 C 9,4 C 67 % 1015,0 hPa 0,0 l/m 17,7 km/h (3 Bft) S 180 0 min 0,0 UV-I 0 W/m 4,9 C 5,1 C 25,7 km/h (4 Bft)
01.01.2023 02:42 10,8 C 9,4 C 68 % 1015,2 hPa 0,0 l/m 19,3 km/h (3 Bft) S 180 0 min 0,0 UV-I 0 W/m 5,1 C 4,5 C 22,5 km/h (4 Bft)
01.01.2023 02:43 10,8 C 9,4 C 68 % 1015,2 hPa 0,0 l/m 22,5 km/h (4 Bft) S 180 0 min 0,0 UV-I 0 W/m 5,1 C 3,6 C 37,0 km/h (5 Bft)
01.01.2023 02:44 10,8 C 10,0 C 67 % 1015,1 hPa 0,0 l/m 25,7 km/h (4 Bft) S 180 0 min 0,0 UV-I 0 W/m 4,9 C 2,7 C 40,2 km/h (6 Bft)
01.01.2023 02:45 10,8 C 10,0 C 67 % 1015,1 hPa 0,0 l/m 19,3 km/h (3 Bft) S 180 0 min 0,0 UV-I 0 W/m 4,9 C 4,5 C 33,8 km/h (5 Bft)
01.01.2023 02:46 10,8 C 10,0 C 67 % 1015,2 hPa 0,0 l/m 25,7 km/h (4 Bft) S-SW 202 0 min 0,0 UV-I 0 W/m 4,9 C 2,7 C 35,4 km/h (5 Bft)
01.01.2023 02:47 10,8 C 10,0 C 67 % 1015,3 hPa 0,0 l/m 20,9 km/h (4 Bft) S 180 0 min 0,0 UV-I 0 W/m 4,9 C 4,0 C 35,4 km/h (5 Bft)
01.01.2023 02:48 10,9 C 10,0 C 67 % 1015,1 hPa 0,0 l/m 29,0 km/h (5 Bft) S 180 0 min 0,0 UV-I 0 W/m 5,0 C 2,1 C 43,5 km/h (6 Bft)
01.01.2023 02:49 10,8 C 10,0 C 67 % 1015,2 hPa 0,0 l/m 20,9 km/h (4 Bft) S-SW 202 0 min 0,0 UV-I 0 W/m 4,9 C 4,0 C 33,8 km/h (5 Bft)
01.01.2023 02:50 10,9 C 9,4 C 67 % 1015,3 hPa 0,0 l/m 22,5 km/h (4 Bft) S 180 0 min 0,0 UV-I 0 W/m 5,0 C 3,7 C 35,4 km/h (5 Bft)
01.01.2023 02:51 10,9 C 9,4 C 67 % 1015,2 hPa 0,0 l/m 22,5 km/h (4 Bft) S 180 0 min 0,0 UV-I 0 W/m 5,0 C 3,7 C 38,6 km/h (5 Bft)
01.01.2023 02:52 10,8 C 9,4 C 67 % 1015,3 hPa 0,0 l/m 20,9 km/h (4 Bft) S-SW 202 0 min 0,0 UV-I 0 W/m 4,9 C 4,0 C 30,6 km/h (5 Bft)
01.01.2023 02:53 10,8 C 9,4 C 67 % 1015,1 hPa 0,0 l/m 20,9 km/h (4 Bft) S 180 0 min 0,0 UV-I 0 W/m 4,9 C 4,0 C 30,6 km/h (5 Bft)
01.01.2023 02:54 10,8 C 9,4 C 68 % 1015,2 hPa 0,0 l/m 20,9 km/h (4 Bft) S 180 0 min 0,0 UV-I 0 W/m 5,1 C 4,0 C 25,7 km/h (4 Bft)
01.01.2023 02:55 10,8 C 9,4 C 68 % 1015,3 hPa 0,0 l/m 22,5 km/h (4 Bft) S-SW 202 0 min 0,0 UV-I 0 W/m 5,1 C 3,6 C 32,2 km/h (5 Bft)
01.01.2023 02:56 10,8 C 9,4 C 68 % 1015,2 hPa 0,0 l/m 19,3 km/h (3 Bft) S 180 0 min 0,0 UV-I 0 W/m 5,1 C 4,5 C 32,2 km/h (5 Bft)
01.01.2023 02:57 10,8 C 9,4 C 68 % 1015,2 hPa 0,0 l/m 22,5 km/h (4 Bft) S-SW 202 0 min 0,0 UV-I 0 W/m 5,1 C 3,6 C 32,2 km/h (5 Bft)
01.01.2023 02:58 10,8 C 9,4 C 68 % 1015,2 hPa 0,0 l/m 25,7 km/h (4 Bft) S 180 0 min 0,0 UV-I 0 W/m 5,1 C 2,7 C 38,6 km/h (5 Bft)
01.01.2023 02:59 10,8 C 9,4 C 68 % 1015,2 hPa 0,0 l/m 24,1 km/h (4 Bft) S-SW 202 0 min 0,0 UV-I 0 W/m 5,1 C 3,1 C 35,4 km/h (5 Bft)
01.01.2023 03:00 10,8 C 9,4 C 68 % 1015,2 hPa 0,0 l/m 24,1 km/h (4 Bft) S 180 0 min 0,0 UV-I 0 W/m 5,1 C 3,1 C 35,4 km/h (5 Bft)
01.01.2023 03:01 10,8 C 9,4 C 68 % 1015,2 hPa 0,0 l/m 19,3 km/h (3 Bft) S 180 0 min 0,0 UV-I 0 W/m 5,1 C 4,5 C 25,7 km/h (4 Bft)
01.01.2023 03:02 10,8 C 9,4 C 68 % 1015,2 hPa 0,0 l/m 22,5 km/h (4 Bft) S 180 0 min 0,0 UV-I 0 W/m 5,1 C 3,6 C 30,6 km/h (5 Bft)
01.01.2023 03:03 10,8 C 9,4 C 68 % 1015,3 hPa 0,0 l/m 19,3 km/h (3 Bft) S 180 0 min 0,0 UV-I 0 W/m 5,1 C 4,5 C 27,4 km/h (4 Bft)
01.01.2023 03:04 10,7 C 9,4 C 68 % 1015,3 hPa 0,0 l/m 22,5 km/h (4 Bft) S 180 0 min 0,0 UV-I 0 W/m 5,0 C 3,4 C 38,6 km/h (5 Bft)
01.01.2023 03:05 10,7 C 9,4 C 68 % 1015,3 hPa 0,0 l/m 20,9 km/h (4 Bft) S 180 0 min 0,0 UV-I 0 W/m 5,0 C 3,9 C 27,4 km/h (4 Bft)
01.01.2023 03:06 10,7 C 9,4 C 68 % 1015,3 hPa 0,0 l/m 17,7 km/h (3 Bft) S-SW 202 0 min 0,0 UV-I 0 W/m 5,0 C 5,0 C 25,7 km/h (4 Bft)
01.01.2023 03:07 10,8 C 9,4 C 68 % 1015,3 hPa 0,0 l/m 22,5 km/h (4 Bft) S 180 0 min 0,0 UV-I 0 W/m 5,1 C 3,6 C 32,2 km/h (5 Bft)
01.01.2023 03:08 10,7 C 9,4 C 68 % 1015,4 hPa 0,0 l/m 24,1 km/h (4 Bft) S-SW 202 0 min 0,0 UV-I 0 W/m 5,0 C 3,0 C 38,6 km/h (5 Bft)
01.01.2023 03:09 10,7 C 9,4 C 68 % 1015,4 hPa 0,0 l/m 20,9 km/h (4 Bft) S 180 0 min 0,0 UV-I 0 W/m 5,0 C 3,9 C 35,4 km/h (5 Bft)
01.01.2023 03:10 10,7 C 9,4 C 68 % 1015,3 hPa 0,0 l/m 16,1 km/h (3 Bft) S 180 0 min 0,0 UV-I 0 W/m 5,0 C 5,5 C 20,9 km/h (4 Bft)
01.01.2023 03:11 10,7 C 9,4 C 68 % 1015,3 hPa 0,0 l/m 17,7 km/h (3 Bft) S 180 0 min 0,0 UV-I 0 W/m 5,0 C 5,0 C 29,0 km/h (5 Bft)
01.01.2023 03:12 10,7 C 9,4 C 68 % 1015,4 hPa 0,0 l/m 27,4 km/h (4 Bft) S 180 0 min 0,0 UV-I 0 W/m 5,0 C 2,2 C 40,2 km/h (6 Bft)
01.01.2023 03:13 10,7 C 9,4 C 68 % 1015,4 hPa 0,0 l/m 20,9 km/h (4 Bft) S-SW 202 0 min 0,0 UV-I 0 W/m 5,0 C 3,9 C 32,2 km/h (5 Bft)
01.01.2023 03:14 10,7 C 9,4 C 68 % 1015,4 hPa 0,0 l/m 16,1 km/h (3 Bft) S 180 0 min 0,0 UV-I 0 W/m 5,0 C 5,5 C 24,1 km/h (4 Bft)
01.01.2023 03:15 10,7 C 9,4 C 68 % 1015,4 hPa 0,0 l/m 20,9 km/h (4 Bft) S-SW 202 0 min 0,0 UV-I 0 W/m 5,0 C 3,9 C 32,2 km/h (5 Bft)
01.01.2023 03:16 10,7 C 9,4 C 68 % 1015,4 hPa 0,0 l/m 20,9 km/h (4 Bft) S-SW 202 0 min 0,0 UV-I 0 W/m 5,0 C 3,9 C 30,6 km/h (5 Bft)
01.01.2023 03:17 10,7 C 9,4 C 68 % 1015,4 hPa 0,0 l/m 16,1 km/h (3 Bft) S 180 0 min 0,0 UV-I 0 W/m 5,0 C 5,5 C 30,6 km/h (5 Bft)
01.01.2023 03:18 10,6 C 9,4 C 68 % 1015,4 hPa 0,0 l/m 17,7 km/h (3 Bft) S 180 0 min 0,0 UV-I 0 W/m 4,9 C 4,8 C 24,1 km/h (4 Bft)
01.01.2023 03:19 10,6 C 9,4 C 68 % 1015,3 hPa 0,0 l/m 19,3 km/h (3 Bft) S 180 0 min 0,0 UV-I 0 W/m 4,9 C 4,3 C 33,8 km/h (5 Bft)
01.01.2023 03:20 10,6 C 9,4 C 68 % 1015,4 hPa 0,0 l/m 14,5 km/h (3 Bft) S 180 0 min 0,0 UV-I 0 W/m 4,9 C 6,1 C 22,5 km/h (4 Bft)
01.01.2023 03:21 10,6 C 9,4 C 69 % 1015,3 hPa 0,0 l/m 14,5 km/h (3 Bft) S 180 0 min 0,0 UV-I 0 W/m 5,2 C 6,1 C 27,4 km/h (4 Bft)
01.01.2023 03:22 10,6 C 9,4 C 69 % 1015,3 hPa 0,0 l/m 16,1 km/h (3 Bft) S 180 0 min 0,0 UV-I 0 W/m 5,2 C 5,4 C 20,9 km/h (4 Bft)
01.01.2023 03:23 10,6 C 9,4 C 69 % 1015,2 hPa 0,0 l/m 19,3 km/h (3 Bft) S 180 0 min 0,0 UV-I 0 W/m 5,2 C 4,3 C 29,0 km/h (5 Bft)
01.01.2023 03:24 10,5 C 9,4 C 69 % 1015,3 hPa 0,0 l/m 19,3 km/h (3 Bft) S-SW 202 0 min 0,0 UV-I 0 W/m 5,1 C 4,2 C 32,2 km/h (5 Bft)
01.01.2023 03:25 10,5 C 9,4 C 69 % 1015,3 hPa 0,0 l/m 22,5 km/h (4 Bft) S 180 0 min 0,0 UV-I 0 W/m 5,1 C 3,2 C 30,6 km/h (5 Bft)
01.01.2023 03:26 10,6 C 9,4 C 69 % 1015,3 hPa 0,0 l/m 25,7 km/h (4 Bft) S 180 0 min 0,0 UV-I 0 W/m 5,2 C 2,5 C 40,2 km/h (6 Bft)
01.01.2023 03:27 10,6 C 9,4 C 69 % 1015,3 hPa 0,0 l/m 17,7 km/h (3 Bft) S 180 0 min 0,0 UV-I 0 W/m 5,2 C 4,8 C 25,7 km/h (4 Bft)
01.01.2023 03:28 10,6 C 9,4 C 69 % 1015,1 hPa 0,0 l/m 19,3 km/h (3 Bft) S 180 0 min 0,0 UV-I 0 W/m 5,2 C 4,3 C 27,4 km/h (4 Bft)
01.01.2023 03:29 10,6 C 9,4 C 69 % 1015,2 hPa 0,0 l/m 20,9 km/h (4 Bft) S 180 0 min 0,0 UV-I 0 W/m 5,2 C 3,8 C 30,6 km/h (5 Bft)
01.01.2023 03:30 10,6 C 9,4 C 69 % 1015,3 hPa 0,0 l/m 17,7 km/h (3 Bft) S 180 0 min 0,0 UV-I 0 W/m 5,2 C 4,8 C 35,4 km/h (5 Bft)
01.01.2023 03:31 10,6 C 9,4 C 69 % 1015,3 hPa 0,0 l/m 24,1 km/h (4 Bft) S 180 0 min 0,0 UV-I 0 W/m 5,2 C 2,9 C 32,2 km/h (5 Bft)
01.01.2023 03:32 10,6 C 9,4 C 69 % 1015,1 hPa 0,0 l/m 17,7 km/h (3 Bft) S 180 0 min 0,0 UV-I 0 W/m 5,2 C 4,8 C 27,4 km/h (4 Bft)
01.01.2023 03:33 10,6 C 9,4 C 69 % 1015,2 hPa 0,0 l/m 19,3 km/h (3 Bft) S 180 0 min 0,0 UV-I 0 W/m 5,2 C 4,3 C 30,6 km/h (5 Bft)
01.01.2023 03:34 10,6 C 9,4 C 69 % 1015,2 hPa 0,0 l/m 22,5 km/h (4 Bft) S 180 0 min 0,0 UV-I 0 W/m 5,2 C 3,3 C 32,2 km/h (5 Bft)
01.01.2023 03:35 10,7 C 9,4 C 69 % 1015,2 hPa 0,0 l/m 17,7 km/h (3 Bft) S 180 0 min 0,0 UV-I 0 W/m 5,2 C 5,0 C 24,1 km/h (4 Bft)
01.01.2023 03:36 10,7 C 9,4 C 69 % 1015,1 hPa 0,0 l/m 14,5 km/h (3 Bft) S 180 0 min 0,0 UV-I 0 W/m 5,2 C 6,2 C 25,7 km/h (4 Bft)
01.01.2023 03:37 10,6 C 9,4 C 69 % 1015,3 hPa 0,0 l/m 16,1 km/h (3 Bft) S 180 0 min 0,0 UV-I 0 W/m 5,2 C 5,4 C 19,3 km/h (3 Bft)
01.01.2023 03:38 10,6 C 9,4 C 69 % 1015,2 hPa 0,0 l/m 19,3 km/h (3 Bft) S 180 0 min 0,0 UV-I 0 W/m 5,2 C 4,3 C 27,4 km/h (4 Bft)
01.01.2023 03:39 10,6 C 9,4 C 69 % 1015,1 hPa 0,0 l/m 16,1 km/h (3 Bft) S-SW 202 0 min 0,0 UV-I 0 W/m 5,2 C 5,4 C 24,1 km/h (4 Bft)
01.01.2023 03:40 10,6 C 9,4 C 69 % 1015,1 hPa 0,0 l/m 20,9 km/h (4 Bft) S 180 0 min 0,0 UV-I 0 W/m 5,2 C 3,8 C 30,6 km/h (5 Bft)
01.01.2023 03:41 10,6 C 9,4 C 69 % 1015,5 hPa 0,0 l/m 16,1 km/h (3 Bft) S 180 0 min 0,0 UV-I 0 W/m 5,2 C 5,4 C 27,4 km/h (4 Bft)
01.01.2023 03:42 10,6 C 9,4 C 69 % 1015,2 hPa 0,0 l/m 20,9 km/h (4 Bft) S-SW 202 0 min 0,0 UV-I 0 W/m 5,2 C 3,8 C 29,0 km/h (5 Bft)
01.01.2023 03:43 10,6 C 9,4 C 69 % 1015,1 hPa 0,0 l/m 17,7 km/h (3 Bft) S 180 0 min 0,0 UV-I 0 W/m 5,2 C 4,8 C 32,2 km/h (5 Bft)
01.01.2023 03:44 10,6 C 9,4 C 69 % 1015,2 hPa 0,0 l/m 24,1 km/h (4 Bft) S 180 0 min 0,0 UV-I 0 W/m 5,2 C 2,9 C 40,2 km/h (6 Bft)
01.01.2023 03:45 10,6 C 9,4 C 69 % 1015,1 hPa 0,0 l/m 24,1 km/h (4 Bft) S 180 0 min 0,0 UV-I 0 W/m 5,2 C 2,9 C 33,8 km/h (5 Bft)
01.01.2023 03:46 10,7 C 9,4 C 69 % 1015,2 hPa 0,0 l/m 17,7 km/h (3 Bft) S 180 0 min 0,0 UV-I 0 W/m 5,2 C 5,0 C 27,4 km/h (4 Bft)
01.01.2023 03:47 10,6 C 9,4 C 69 % 1015,1 hPa 0,0 l/m 19,3 km/h (3 Bft) S 180 0 min 0,0 UV-I 0 W/m 5,2 C 4,3 C 25,7 km/h (4 Bft)
01.01.2023 03:48 10,6 C 9,4 C 69 % 1015,2 hPa 0,0 l/m 22,5 km/h (4 Bft) S-SW 202 0 min 0,0 UV-I 0 W/m 5,2 C 3,3 C 27,4 km/h (4 Bft)
01.01.2023 03:49 10,6 C 9,4 C 69 % 1015,3 hPa 0,0 l/m 20,9 km/h (4 Bft) S 180 0 min 0,0 UV-I 0 W/m 5,2 C 3,8 C 29,0 km/h (5 Bft)
01.01.2023 03:50 10,6 C 9,4 C 69 % 1015,2 hPa 0,0 l/m 17,7 km/h (3 Bft) S 180 0 min 0,0 UV-I 0 W/m 5,2 C 4,8 C 24,1 km/h (4 Bft)
01.01.2023 03:51 10,6 C 9,4 C 69 % 1015,3 hPa 0,0 l/m 22,5 km/h (4 Bft) S 180 0 min 0,0 UV-I 0 W/m 5,2 C 3,3 C 29,0 km/h (5 Bft)
01.01.2023 03:52 10,6 C 9,4 C 69 % 1015,2 hPa 0,0 l/m 17,7 km/h (3 Bft) S 180 0 min 0,0 UV-I 0 W/m 5,2 C 4,8 C 29,0 km/h (5 Bft)
01.01.2023 03:53 10,6 C 9,4 C 69 % 1015,2 hPa 0,0 l/m 17,7 km/h (3 Bft) S 180 0 min 0,0 UV-I 0 W/m 5,2 C 4,8 C 29,0 km/h (5 Bft)
01.01.2023 03:54 10,7 C 9,4 C 69 % 1015,2 hPa 0,0 l/m 20,9 km/h (4 Bft) S 180 0 min 0,0 UV-I 0 W/m 5,2 C 3,9 C 27,4 km/h (4 Bft)
01.01.2023 03:55 10,6 C 9,4 C 69 % 1015,3 hPa 0,0 l/m 19,3 km/h (3 Bft) S-SW 202 0 min 0,0 UV-I 0 W/m 5,2 C 4,3 C 29,0 km/h (5 Bft)
01.01.2023 03:56 10,6 C 9,4 C 69 % 1015,3 hPa 0,0 l/m 17,7 km/h (3 Bft) S 180 0 min 0,0 UV-I 0 W/m 5,2 C 4,8 C 24,1 km/h (4 Bft)
01.01.2023 03:57 10,6 C 9,4 C 69 % 1015,3 hPa 0,0 l/m 14,5 km/h (3 Bft) S 180 0 min 0,0 UV-I 0 W/m 5,2 C 6,1 C 19,3 km/h (3 Bft)
01.01.2023 03:58 10,6 C 9,4 C 69 % 1015,3 hPa 0,0 l/m 19,3 km/h (3 Bft) S-SW 202 0 min 0,0 UV-I 0 W/m 5,2 C 4,3 C 27,4 km/h (4 Bft)
01.01.2023 03:59 10,6 C 9,4 C 69 % 1015,3 hPa 0,0 l/m 19,3 km/h (3 Bft) S 180 0 min 0,0 UV-I 0 W/m 5,2 C 4,3 C 25,7 km/h (4 Bft)
01.01.2023 04:00 10,6 C 9,4 C 69 % 1015,3 hPa 0,0 l/m 17,7 km/h (3 Bft) S 180 0 min 0,0 UV-I 0 W/m 5,2 C 4,8 C 25,7 km/h (4 Bft)
01.01.2023 04:01 10,6 C 9,4 C 69 % 1015,3 hPa 0,0 l/m 19,3 km/h (3 Bft) S-SW 202 0 min 0,0 UV-I 0 W/m 5,2 C 4,3 C 29,0 km/h (5 Bft)
01.01.2023 04:02 10,6 C 9,4 C 69 % 1015,4 hPa 0,0 l/m 19,3 km/h (3 Bft) S-SW 202 0 min 0,0 UV-I 0 W/m 5,2 C 4,3 C 24,1 km/h (4 Bft)
01.01.2023 04:03 10,5 C 8,9 C 69 % 1015,3 hPa 0,0 l/m 14,5 km/h (3 Bft) S 180 0 min 0,0 UV-I 0 W/m 5,1 C 5,9 C 17,7 km/h (3 Bft)
01.01.2023 04:04 10,5 C 8,9 C 69 % 1015,4 hPa 0,0 l/m 19,3 km/h (3 Bft) S 180 0 min 0,0 UV-I 0 W/m 5,1 C 4,2 C 32,2 km/h (5 Bft)
01.01.2023 04:05 10,5 C 9,4 C 70 % 1015,4 hPa 0,0 l/m 19,3 km/h (3 Bft) S 180 0 min 0,0 UV-I 0 W/m 5,3 C 4,2 C 30,6 km/h (5 Bft)
01.01.2023 04:06 10,4 C 8,9 C 70 % 1015,4 hPa 0,0 l/m 14,5 km/h (3 Bft) S 180 0 min 0,0 UV-I 0 W/m 5,2 C 5,8 C 22,5 km/h (4 Bft)
01.01.2023 04:07 10,4 C 9,4 C 70 % 1015,3 hPa 0,0 l/m 22,5 km/h (4 Bft) S 180 0 min 0,0 UV-I 0 W/m 5,2 C 3,0 C 30,6 km/h (5 Bft)
01.01.2023 04:08 10,5 C 9,4 C 70 % 1015,4 hPa 0,0 l/m 17,7 km/h (3 Bft) S 180 0 min 0,0 UV-I 0 W/m 5,3 C 4,7 C 27,4 km/h (4 Bft)
01.01.2023 04:09 10,4 C 9,4 C 70 % 1015,3 hPa 0,0 l/m 22,5 km/h (4 Bft) S 180 0 min 0,0 UV-I 0 W/m 5,2 C 3,0 C 27,4 km/h (4 Bft)
01.01.2023 04:10 10,5 C 9,4 C 70 % 1015,3 hPa 0,0 l/m 17,7 km/h (3 Bft) S 180 0 min 0,0 UV-I 0 W/m 5,3 C 4,7 C 25,7 km/h (4 Bft)
01.01.2023 04:11 10,4 C 9,4 C 70 % 1015,4 hPa 0,0 l/m 20,9 km/h (4 Bft) S 180 0 min 0,0 UV-I 0 W/m 5,2 C 3,5 C 32,2 km/h (5 Bft)
01.01.2023 04:12 10,5 C 9,4 C 70 % 1015,4 hPa 0,0 l/m 17,7 km/h (3 Bft) S 180 0 min 0,0 UV-I 0 W/m 5,3 C 4,7 C 27,4 km/h (4 Bft)
01.01.2023 04:13 10,5 C 9,4 C 70 % 1015,3 hPa 0,0 l/m 14,5 km/h (3 Bft) S-SW 202 0 min 0,0 UV-I 0 W/m 5,3 C 5,9 C 20,9 km/h (4 Bft)
01.01.2023 04:14 10,5 C 9,4 C 70 % 1015,3 hPa 0,0 l/m 16,1 km/h (3 Bft) S 180 0 min 0,0 UV-I 0 W/m 5,3 C 5,3 C 25,7 km/h (4 Bft)
01.01.2023 04:15 10,5 C 9,4 C 70 % 1015,4 hPa 0,0 l/m 19,3 km/h (3 Bft) S-SW 202 0 min 0,0 UV-I 0 W/m 5,3 C 4,2 C 27,4 km/h (4 Bft)
01.01.2023 04:16 10,5 C 9,4 C 70 % 1015,3 hPa 0,0 l/m 19,3 km/h (3 Bft) S 180 0 min 0,0 UV-I 0 W/m 5,3 C 4,2 C 27,4 km/h (4 Bft)
01.01.2023 04:17 10,5 C 9,4 C 70 % 1015,3 hPa 0,0 l/m 19,3 km/h (3 Bft) S-SW 202 0 min 0,0 UV-I 0 W/m 5,3 C 4,2 C 29,0 km/h (5 Bft)
01.01.2023 04:18 10,5 C 9,4 C 70 % 1015,3 hPa 0,0 l/m 16,1 km/h (3 Bft) S-SW 202 0 min 0,0 UV-I 0 W/m 5,3 C 5,3 C 22,5 km/h (4 Bft)
01.01.2023 04:19 10,5 C 9,4 C 70 % 1015,3 hPa 0,0 l/m 17,7 km/h (3 Bft) S 180 0 min 0,0 UV-I 0 W/m 5,3 C 4,7 C 27,4 km/h (4 Bft)
01.01.2023 04:20 10,5 C 9,4 C 70 % 1015,3 hPa 0,0 l/m 17,7 km/h (3 Bft) S 180 0 min 0,0 UV-I 0 W/m 5,3 C 4,7 C 24,1 km/h (4 Bft)
01.01.2023 04:21 10,5 C 9,4 C 70 % 1015,3 hPa 0,0 l/m 16,1 km/h (3 Bft) S 180 0 min 0,0 UV-I 0 W/m 5,3 C 5,3 C 22,5 km/h (4 Bft)
01.01.2023 04:22 10,5 C 9,4 C 70 % 1015,3 hPa 0,0 l/m 14,5 km/h (3 Bft) S 180 0 min 0,0 UV-I 0 W/m 5,3 C 5,9 C 19,3 km/h (3 Bft)
01.01.2023 04:23 10,5 C 9,4 C 70 % 1015,3 hPa 0,0 l/m 14,5 km/h (3 Bft) S 180 0 min 0,0 UV-I 0 W/m 5,3 C 5,9 C 33,8 km/h (5 Bft)
01.01.2023 04:24 10,5 C 9,4 C 70 % 1015,2 hPa 0,0 l/m 16,1 km/h (3 Bft) S 180 0 min 0,0 UV-I 0 W/m 5,3 C 5,3 C 20,9 km/h (4 Bft)
01.01.2023 04:25 10,5 C 9,4 C 71 % 1015,3 hPa 0,0 l/m 16,1 km/h (3 Bft) S 180 0 min 0,0 UV-I 0 W/m 5,5 C 5,3 C 27,4 km/h (4 Bft)
01.01.2023 04:26 10,5 C 9,4 C 71 % 1015,2 hPa 0,0 l/m 20,9 km/h (4 Bft) S 180 0 min 0,0 UV-I 0 W/m 5,5 C 3,7 C 35,4 km/h (5 Bft)
01.01.2023 04:27 10,5 C 9,4 C 71 % 1015,2 hPa 0,0 l/m 16,1 km/h (3 Bft) S 180 0 min 0,0 UV-I 0 W/m 5,5 C 5,3 C 25,7 km/h (4 Bft)
01.01.2023 04:28 10,5 C 9,4 C 71 % 1015,2 hPa 0,0 l/m 17,7 km/h (3 Bft) S 180 0 min 0,0 UV-I 0 W/m 5,5 C 4,7 C 20,9 km/h (4 Bft)
01.01.2023 04:29 10,6 C 9,4 C 71 % 1015,3 hPa 0,0 l/m 11,3 km/h (2 Bft) S-SW 202 0 min 0,0 UV-I 0 W/m 5,6 C 7,6 C 24,1 km/h (4 Bft)
01.01.2023 04:30 10,6 C 9,4 C 71 % 1015,2 hPa 0,0 l/m 19,3 km/h (3 Bft) S 180 0 min 0,0 UV-I 0 W/m 5,6 C 4,3 C 27,4 km/h (4 Bft)
01.01.2023 04:31 10,6 C 9,4 C 71 % 1015,2 hPa 0,0 l/m 17,7 km/h (3 Bft) S 180 0 min 0,0 UV-I 0 W/m 5,6 C 4,8 C 27,4 km/h (4 Bft)
01.01.2023 04:32 10,6 C 9,4 C 71 % 1015,3 hPa 0,0 l/m 17,7 km/h (3 Bft) S 180 0 min 0,0 UV-I 0 W/m 5,6 C 4,8 C 24,1 km/h (4 Bft)
01.01.2023 04:33 10,6 C 9,4 C 71 % 1015,3 hPa 0,0 l/m 14,5 km/h (3 Bft) S 180 0 min 0,0 UV-I 0 W/m 5,6 C 6,1 C 20,9 km/h (4 Bft)
01.01.2023 04:34 10,6 C 9,4 C 71 % 1015,3 hPa 0,0 l/m 19,3 km/h (3 Bft) S 180 0 min 0,0 UV-I 0 W/m 5,6 C 4,3 C 32,2 km/h (5 Bft)
01.01.2023 04:35 10,6 C 9,4 C 71 % 1015,4 hPa 0,0 l/m 16,1 km/h (3 Bft) S 180 0 min 0,0 UV-I 0 W/m 5,6 C 5,4 C 24,1 km/h (4 Bft)
01.01.2023 04:36 10,6 C 9,4 C 71 % 1015,4 hPa 0,0 l/m 14,5 km/h (3 Bft) S 180 0 min 0,0 UV-I 0 W/m 5,6 C 6,1 C 22,5 km/h (4 Bft)
01.01.2023 04:37 10,6 C 9,4 C 71 % 1015,4 hPa 0,0 l/m 17,7 km/h (3 Bft) S 180 0 min 0,0 UV-I 0 W/m 5,6 C 4,8 C 25,7 km/h (4 Bft)
01.01.2023 04:38 10,6 C 9,4 C 71 % 1015,4 hPa 0,0 l/m 14,5 km/h (3 Bft) S 180 0 min 0,0 UV-I 0 W/m 5,6 C 6,1 C 22,5 km/h (4 Bft)
01.01.2023 04:39 10,6 C 9,4 C 71 % 1015,4 hPa 0,0 l/m 17,7 km/h (3 Bft) S 180 0 min 0,0 UV-I 0 W/m 5,6 C 4,8 C 22,5 km/h (4 Bft)
01.01.2023 04:40 10,6 C 9,4 C 71 % 1015,4 hPa 0,0 l/m 19,3 km/h (3 Bft) S 180 0 min 0,0 UV-I 0 W/m 5,6 C 4,3 C 24,1 km/h (4 Bft)
01.01.2023 04:41 10,6 C 9,4 C 71 % 1015,4 hPa 0,0 l/m 16,1 km/h (3 Bft) S 180 0 min 0,0 UV-I 0 W/m 5,6 C 5,4 C 19,3 km/h (3 Bft)
01.01.2023 04:42 10,6 C 9,4 C 71 % 1015,5 hPa 0,0 l/m 17,7 km/h (3 Bft) S 180 0 min 0,0 UV-I 0 W/m 5,6 C 4,8 C 25,7 km/h (4 Bft)
01.01.2023 04:43 10,6 C 9,4 C 71 % 1015,4 hPa 0,0 l/m 17,7 km/h (3 Bft) S 180 0 min 0,0 UV-I 0 W/m 5,6 C 4,8 C 24,1 km/h (4 Bft)
01.01.2023 04:44 10,6 C 9,4 C 71 % 1015,4 hPa 0,0 l/m 14,5 km/h (3 Bft) S 180 0 min 0,0 UV-I 0 W/m 5,6 C 6,1 C 22,5 km/h (4 Bft)
01.01.2023 04:45 10,6 C 9,4 C 71 % 1015,5 hPa 0,0 l/m 17,7 km/h (3 Bft) S 180 0 min 0,0 UV-I 0 W/m 5,6 C 4,8 C 25,7 km/h (4 Bft)
01.01.2023 04:46 10,6 C 9,4 C 71 % 1015,4 hPa 0,0 l/m 14,5 km/h (3 Bft) S-SW 202 0 min 0,0 UV-I 0 W/m 5,6 C 6,1 C 22,5 km/h (4 Bft)
01.01.2023 04:47 10,6 C 9,4 C 71 % 1015,6 hPa 0,0 l/m 12,9 km/h (3 Bft) S-SW 202 0 min 0,0 UV-I 0 W/m 5,6 C 6,8 C 17,7 km/h (3 Bft)
01.01.2023 04:48 10,6 C 9,4 C 71 % 1015,5 hPa 0,0 l/m 14,5 km/h (3 Bft) S 180 0 min 0,0 UV-I 0 W/m 5,6 C 6,1 C 24,1 km/h (4 Bft)
01.01.2023 04:49 10,6 C 9,4 C 71 % 1015,5 hPa 0,0 l/m 16,1 km/h (3 Bft) S-SW 202 0 min 0,0 UV-I 0 W/m 5,6 C 5,4 C 20,9 km/h (4 Bft)
01.01.2023 04:50 10,6 C 9,4 C 71 % 1015,6 hPa 0,0 l/m 16,1 km/h (3 Bft) S 180 0 min 0,0 UV-I 0 W/m 5,6 C 5,4 C 29,0 km/h (5 Bft)
01.01.2023 04:51 10,6 C 9,4 C 71 % 1015,5 hPa 0,0 l/m 12,9 km/h (3 Bft) S-SW 202 0 min 0,0 UV-I 0 W/m 5,6 C 6,8 C 19,3 km/h (3 Bft)
01.01.2023 04:52 10,6 C 9,4 C 71 % 1015,6 hPa 0,0 l/m 12,9 km/h (3 Bft) S 180 0 min 0,0 UV-I 0 W/m 5,6 C 6,8 C 19,3 km/h (3 Bft)
01.01.2023 04:53 10,5 C 9,4 C 71 % 1015,5 hPa 0,0 l/m 14,5 km/h (3 Bft) S-SW 202 0 min 0,0 UV-I 0 W/m 5,5 C 5,9 C 17,7 km/h (3 Bft)
01.01.2023 04:54 10,5 C 9,4 C 71 % 1015,6 hPa 0,0 l/m 11,3 km/h (2 Bft) S-SW 202 0 min 0,0 UV-I 0 W/m 5,5 C 7,4 C 20,9 km/h (4 Bft)
01.01.2023 04:55 10,5 C 9,4 C 71 % 1015,6 hPa 0,0 l/m 17,7 km/h (3 Bft) S 180 0 min 0,0 UV-I 0 W/m 5,5 C 4,7 C 25,7 km/h (4 Bft)
01.01.2023 04:56 10,5 C 9,4 C 71 % 1015,6 hPa 0,0 l/m 19,3 km/h (3 Bft) S 180 0 min 0,0 UV-I 0 W/m 5,5 C 4,2 C 29,0 km/h (5 Bft)
01.01.2023 04:57 10,5 C 9,4 C 71 % 1015,5 hPa 0,0 l/m 16,1 km/h (3 Bft) S-SW 202 0 min 0,0 UV-I 0 W/m 5,5 C 5,3 C 29,0 km/h (5 Bft)
01.01.2023 04:58 10,5 C 9,4 C 71 % 1015,5 hPa 0,0 l/m 19,3 km/h (3 Bft) S-SW 202 0 min 0,0 UV-I 0 W/m 5,5 C 4,2 C 27,4 km/h (4 Bft)
01.01.2023 04:59 10,5 C 9,4 C 71 % 1015,5 hPa 0,0 l/m 17,7 km/h (3 Bft) S-SW 202 0 min 0,0 UV-I 0 W/m 5,5 C 4,7 C 22,5 km/h (4 Bft)
01.01.2023 05:00 10,6 C 9,4 C 71 % 1015,5 hPa 0,0 l/m 19,3 km/h (3 Bft) S 180 0 min 0,0 UV-I 0 W/m 5,6 C 4,3 C 29,0 km/h (5 Bft)
01.01.2023 05:01 10,6 C 9,4 C 71 % 1015,5 hPa 0,0 l/m 19,3 km/h (3 Bft) S 180 0 min 0,0 UV-I 0 W/m 5,6 C 4,3 C 24,1 km/h (4 Bft)
01.01.2023 05:02 10,6 C 9,4 C 71 % 1015,5 hPa 0,0 l/m 14,5 km/h (3 Bft) S-SW 202 0 min 0,0 UV-I 0 W/m 5,6 C 6,1 C 17,7 km/h (3 Bft)
01.01.2023 05:03 10,6 C 9,4 C 71 % 1015,5 hPa 0,0 l/m 17,7 km/h (3 Bft) S 180 0 min 0,0 UV-I 0 W/m 5,6 C 4,8 C 33,8 km/h (5 Bft)
01.01.2023 05:04 10,6 C 9,4 C 71 % 1015,4 hPa 0,0 l/m 17,7 km/h (3 Bft) S 180 0 min 0,0 UV-I 0 W/m 5,6 C 4,8 C 25,7 km/h (4 Bft)
01.01.2023 05:05 10,6 C 9,4 C 71 % 1015,5 hPa 0,0 l/m 19,3 km/h (3 Bft) S 180 0 min 0,0 UV-I 0 W/m 5,6 C 4,3 C 24,1 km/h (4 Bft)
01.01.2023 05:06 10,6 C 9,4 C 71 % 1015,5 hPa 0,0 l/m 17,7 km/h (3 Bft) S 180 0 min 0,0 UV-I 0 W/m 5,6 C 4,8 C 25,7 km/h (4 Bft)
01.01.2023 05:07 10,6 C 10,0 C 71 % 1015,6 hPa 0,0 l/m 16,1 km/h (3 Bft) S 180 0 min 0,0 UV-I 0 W/m 5,6 C 5,4 C 19,3 km/h (3 Bft)
01.01.2023 05:08 10,6 C 9,4 C 71 % 1015,5 hPa 0,0 l/m 14,5 km/h (3 Bft) S 180 0 min 0,0 UV-I 0 W/m 5,6 C 6,1 C 17,7 km/h (3 Bft)
01.01.2023 05:09 10,6 C 9,4 C 72 % 1015,5 hPa 0,0 l/m 12,9 km/h (3 Bft) S 180 0 min 0,0 UV-I 0 W/m 5,8 C 6,8 C 17,7 km/h (3 Bft)
01.01.2023 05:10 10,6 C 9,4 C 72 % 1015,5 hPa 0,0 l/m 17,7 km/h (3 Bft) S 180 0 min 0,0 UV-I 0 W/m 5,8 C 4,8 C 20,9 km/h (4 Bft)
01.01.2023 05:11 10,6 C 9,4 C 72 % 1015,5 hPa 0,0 l/m 16,1 km/h (3 Bft) S 180 0 min 0,0 UV-I 0 W/m 5,8 C 5,4 C 24,1 km/h (4 Bft)
01.01.2023 05:12 10,6 C 9,4 C 72 % 1015,5 hPa 0,0 l/m 16,1 km/h (3 Bft) S 180 0 min 0,0 UV-I 0 W/m 5,8 C 5,4 C 22,5 km/h (4 Bft)
01.01.2023 05:13 10,6 C 9,4 C 72 % 1015,6 hPa 0,0 l/m 14,5 km/h (3 Bft) S 180 0 min 0,0 UV-I 0 W/m 5,8 C 6,1 C 24,1 km/h (4 Bft)
01.01.2023 05:14 10,6 C 9,4 C 72 % 1015,5 hPa 0,0 l/m 17,7 km/h (3 Bft) S-SW 202 0 min 0,0 UV-I 0 W/m 5,8 C 4,8 C 20,9 km/h (4 Bft)
01.01.2023 05:15 10,5 C 9,4 C 72 % 1015,6 hPa 0,0 l/m 16,1 km/h (3 Bft) S 180 0 min 0,0 UV-I 0 W/m 5,7 C 5,3 C 20,9 km/h (4 Bft)
01.01.2023 05:16 10,6 C 9,4 C 72 % 1015,6 hPa 0,0 l/m 17,7 km/h (3 Bft) S 180 0 min 0,0 UV-I 0 W/m 5,8 C 4,8 C 22,5 km/h (4 Bft)
01.01.2023 05:17 10,6 C 9,4 C 72 % 1015,5 hPa 0,0 l/m 16,1 km/h (3 Bft) S-SW 202 0 min 0,0 UV-I 0 W/m 5,8 C 5,4 C 22,5 km/h (4 Bft)
01.01.2023 05:18 10,6 C 9,4 C 72 % 1015,5 hPa 0,0 l/m 17,7 km/h (3 Bft) S-SW 202 0 min 0,0 UV-I 0 W/m 5,8 C 4,8 C 27,4 km/h (4 Bft)
01.01.2023 05:19 10,5 C 9,4 C 72 % 1015,6 hPa 0,0 l/m 17,7 km/h (3 Bft) S 180 0 min 0,0 UV-I 0 W/m 5,7 C 4,7 C 24,1 km/h (4 Bft)
01.01.2023 05:20 10,5 C 9,4 C 72 % 1015,5 hPa 0,0 l/m 14,5 km/h (3 Bft) S 180 0 min 0,0 UV-I 0 W/m 5,7 C 5,9 C 19,3 km/h (3 Bft)
01.01.2023 05:21 10,5 C 9,4 C 72 % 1015,6 hPa 0,0 l/m 14,5 km/h (3 Bft) S 180 0 min 0,0 UV-I 0 W/m 5,7 C 5,9 C 19,3 km/h (3 Bft)
01.01.2023 05:22 10,4 C 9,4 C 72 % 1015,5 hPa 0,0 l/m 14,5 km/h (3 Bft) S-SW 202 0 min 0,0 UV-I 0 W/m 5,6 C 5,8 C 22,5 km/h (4 Bft)
01.01.2023 05:23 10,4 C 9,4 C 72 % 1015,5 hPa 0,0 l/m 17,7 km/h (3 Bft) S 180 0 min 0,0 UV-I 0 W/m 5,6 C 4,6 C 22,5 km/h (4 Bft)
01.01.2023 05:24 10,4 C 9,4 C 72 % 1015,6 hPa 0,0 l/m 17,7 km/h (3 Bft) S 180 0 min 0,0 UV-I 0 W/m 5,6 C 4,6 C 32,2 km/h (5 Bft)
01.01.2023 05:25 10,4 C 9,4 C 72 % 1015,5 hPa 0,0 l/m 20,9 km/h (4 Bft) S-SW 202 0 min 0,0 UV-I 0 W/m 5,6 C 3,5 C 29,0 km/h (5 Bft)
01.01.2023 05:26 10,4 C 9,4 C 72 % 1015,6 hPa 0,0 l/m 17,7 km/h (3 Bft) S-SW 202 0 min 0,0 UV-I 0 W/m 5,6 C 4,6 C 22,5 km/h (4 Bft)
01.01.2023 05:27 10,4 C 9,4 C 72 % 1016,1 hPa 0,0 l/m 16,1 km/h (3 Bft) S-SW 202 0 min 0,0 UV-I 0 W/m 5,6 C 5,2 C 22,5 km/h (4 Bft)
01.01.2023 05:28 10,4 C 8,9 C 72 % 1015,7 hPa 0,0 l/m 16,1 km/h (3 Bft) S-SW 202 0 min 0,0 UV-I 0 W/m 5,6 C 5,2 C 20,9 km/h (4 Bft)
01.01.2023 05:29 10,4 C 8,9 C 72 % 1015,7 hPa 0,0 l/m 19,3 km/h (3 Bft) S-SW 202 0 min 0,0 UV-I 0 W/m 5,6 C 4,0 C 24,1 km/h (4 Bft)
01.01.2023 05:30 10,4 C 8,9 C 72 % 1015,7 hPa 0,0 l/m 14,5 km/h (3 Bft) S-SW 202 0 min 0,0 UV-I 0 W/m 5,6 C 5,8 C 19,3 km/h (3 Bft)
01.01.2023 05:31 10,4 C 9,4 C 73 % 1015,7 hPa 0,0 l/m 17,7 km/h (3 Bft) S 180 0 min 0,0 UV-I 0 W/m 5,8 C 4,6 C 27,4 km/h (4 Bft)
01.01.2023 05:32 10,4 C 9,4 C 73 % 1015,6 hPa 0,0 l/m 12,9 km/h (3 Bft) S 180 0 min 0,0 UV-I 0 W/m 5,8 C 6,5 C 20,9 km/h (4 Bft)
01.01.2023 05:33 10,3 C 9,4 C 73 % 1015,7 hPa 0,0 l/m 17,7 km/h (3 Bft) S 180 0 min 0,0 UV-I 0 W/m 5,7 C 4,5 C 33,8 km/h (5 Bft)
01.01.2023 05:34 10,4 C 9,4 C 73 % 1015,6 hPa 0,0 l/m 12,9 km/h (3 Bft) S 180 0 min 0,0 UV-I 0 W/m 5,8 C 6,5 C 19,3 km/h (3 Bft)
01.01.2023 05:35 10,4 C 9,4 C 73 % 1015,7 hPa 0,0 l/m 11,3 km/h (2 Bft) S 180 0 min 0,0 UV-I 0 W/m 5,8 C 7,3 C 16,1 km/h (3 Bft)
01.01.2023 05:36 10,3 C 9,4 C 73 % 1015,7 hPa 0,0 l/m 14,5 km/h (3 Bft) S 180 0 min 0,0 UV-I 0 W/m 5,7 C 5,7 C 19,3 km/h (3 Bft)
01.01.2023 05:37 10,4 C 9,4 C 73 % 1015,6 hPa 0,0 l/m 17,7 km/h (3 Bft) S-SW 202 0 min 0,0 UV-I 0 W/m 5,8 C 4,6 C 22,5 km/h (4 Bft)
01.01.2023 05:38 10,3 C 9,4 C 73 % 1015,7 hPa 0,0 l/m 19,3 km/h (3 Bft) S 180 0 min 0,0 UV-I 0 W/m 5,7 C 3,9 C 25,7 km/h (4 Bft)
01.01.2023 05:39 10,3 C 9,4 C 73 % 1015,7 hPa 0,0 l/m 16,1 km/h (3 Bft) S-SW 202 0 min 0,0 UV-I 0 W/m 5,7 C 5,1 C 20,9 km/h (4 Bft)
01.01.2023 05:40 10,4 C 9,4 C 73 % 1015,6 hPa 0,0 l/m 19,3 km/h (3 Bft) S 180 0 min 0,0 UV-I 0 W/m 5,8 C 4,0 C 24,1 km/h (4 Bft)
01.01.2023 05:41 10,4 C 9,4 C 73 % 1015,7 hPa 0,0 l/m 12,9 km/h (3 Bft) S-SW 202 0 min 0,0 UV-I 0 W/m 5,8 C 6,5 C 19,3 km/h (3 Bft)
01.01.2023 05:42 10,4 C 9,4 C 73 % 1015,7 hPa 0,0 l/m 16,1 km/h (3 Bft) S-SW 202 0 min 0,0 UV-I 0 W/m 5,8 C 5,2 C 27,4 km/h (4 Bft)
01.01.2023 05:43 10,4 C 9,4 C 73 % 1015,7 hPa 0,0 l/m 17,7 km/h (3 Bft) S 180 0 min 0,0 UV-I 0 W/m 5,8 C 4,6 C 22,5 km/h (4 Bft)
01.01.2023 05:44 10,4 C 9,4 C 73 % 1015,7 hPa 0,0 l/m 16,1 km/h (3 Bft) S 180 0 min 0,0 UV-I 0 W/m 5,8 C 5,2 C 25,7 km/h (4 Bft)
01.01.2023 05:45 10,4 C 9,4 C 73 % 1015,6 hPa 0,0 l/m 14,5 km/h (3 Bft) S-SW 202 0 min 0,0 UV-I 0 W/m 5,8 C 5,8 C 20,9 km/h (4 Bft)
01.01.2023 05:46 10,4 C 9,4 C 73 % 1015,6 hPa 0,0 l/m 14,5 km/h (3 Bft) S 180 0 min 0,0 UV-I 0 W/m 5,8 C 5,8 C 25,7 km/h (4 Bft)
01.01.2023 05:47 10,4 C 9,4 C 73 % 1015,6 hPa 0,0 l/m 17,7 km/h (3 Bft) S 180 0 min 0,0 UV-I 0 W/m 5,8 C 4,6 C 27,4 km/h (4 Bft)
01.01.2023 05:48 10,4 C 9,4 C 73 % 1015,6 hPa 0,0 l/m 17,7 km/h (3 Bft) S-SW 202 0 min 0,0 UV-I 0 W/m 5,8 C 4,6 C 22,5 km/h (4 Bft)
01.01.2023 05:49 10,5 C 9,4 C 73 % 1015,6 hPa 0,0 l/m 19,3 km/h (3 Bft) S-SW 202 0 min 0,0 UV-I 0 W/m 5,9 C 4,2 C 25,7 km/h (4 Bft)
01.01.2023 05:50 10,5 C 9,4 C 73 % 1015,6 hPa 0,0 l/m 19,3 km/h (3 Bft) S-SW 202 0 min 0,0 UV-I 0 W/m 5,9 C 4,2 C 27,4 km/h (4 Bft)
01.01.2023 05:51 10,5 C 10,0 C 73 % 1015,5 hPa 0,0 l/m 14,5 km/h (3 Bft) S 180 0 min 0,0 UV-I 0 W/m 5,9 C 5,9 C 22,5 km/h (4 Bft)
01.01.2023 05:52 10,6 C 10,0 C 73 % 1015,6 hPa 0,0 l/m 19,3 km/h (3 Bft) S 180 0 min 0,0 UV-I 0 W/m 6,0 C 4,3 C 32,2 km/h (5 Bft)
01.01.2023 05:53 10,6 C 10,0 C 73 % 1015,6 hPa 0,0 l/m 16,1 km/h (3 Bft) S 180 0 min 0,0 UV-I 0 W/m 6,0 C 5,4 C 27,4 km/h (4 Bft)
01.01.2023 05:54 10,6 C 10,0 C 73 % 1015,6 hPa 0,0 l/m 17,7 km/h (3 Bft) S 180 0 min 0,0 UV-I 0 W/m 6,0 C 4,8 C 30,6 km/h (5 Bft)
01.01.2023 05:55 10,6 C 10,0 C 73 % 1015,4 hPa 0,0 l/m 17,7 km/h (3 Bft) S 180 0 min 0,0 UV-I 0 W/m 6,0 C 4,8 C 33,8 km/h (5 Bft)
01.01.2023 05:56 10,6 C 10,0 C 73 % 1015,5 hPa 0,0 l/m 19,3 km/h (3 Bft) S 180 0 min 0,0 UV-I 0 W/m 6,0 C 4,3 C 32,2 km/h (5 Bft)
01.01.2023 05:57 10,7 C 10,0 C 73 % 1015,6 hPa 0,0 l/m 19,3 km/h (3 Bft) S 180 0 min 0,0 UV-I 0 W/m 6,1 C 4,4 C 27,4 km/h (4 Bft)
01.01.2023 05:58 10,6 C 10,0 C 73 % 1015,5 hPa 0,0 l/m 20,9 km/h (4 Bft) S 180 0 min 0,0 UV-I 0 W/m 6,0 C 3,8 C 27,4 km/h (4 Bft)
01.01.2023 05:59 10,7 C 10,0 C 73 % 1015,5 hPa 0,0 l/m 17,7 km/h (3 Bft) S 180 0 min 0,0 UV-I 0 W/m 6,1 C 5,0 C 27,4 km/h (4 Bft)
01.01.2023 06:00 10,7 C 10,0 C 73 % 1015,6 hPa 0,0 l/m 16,1 km/h (3 Bft) S 180 0 min 0,0 UV-I 0 W/m 6,1 C 5,5 C 24,1 km/h (4 Bft)
01.01.2023 06:01 10,7 C 10,0 C 73 % 1015,5 hPa 0,0 l/m 16,1 km/h (3 Bft) S 180 0 min 0,0 UV-I 0 W/m 6,1 C 5,5 C 27,4 km/h (4 Bft)
01.01.2023 06:02 10,7 C 10,0 C 73 % 1015,6 hPa 0,0 l/m 19,3 km/h (3 Bft) S 180 0 min 0,0 UV-I 0 W/m 6,1 C 4,4 C 27,4 km/h (4 Bft)
01.01.2023 06:03 10,7 C 10,0 C 73 % 1015,4 hPa 0,0 l/m 19,3 km/h (3 Bft) S 180 0 min 0,0 UV-I 0 W/m 6,1 C 4,4 C 25,7 km/h (4 Bft)
01.01.2023 06:04 10,7 C 10,0 C 73 % 1015,5 hPa 0,0 l/m 16,1 km/h (3 Bft) S 180 0 min 0,0 UV-I 0 W/m 6,1 C 5,5 C 25,7 km/h (4 Bft)
01.01.2023 06:05 10,7 C 10,0 C 73 % 1015,5 hPa 0,0 l/m 16,1 km/h (3 Bft) S 180 0 min 0,0 UV-I 0 W/m 6,1 C 5,5 C 20,9 km/h (4 Bft)
01.01.2023 06:06 10,7 C 9,4 C 73 % 1015,4 hPa 0,0 l/m 19,3 km/h (3 Bft) S 180 0 min 0,0 UV-I 0 W/m 6,1 C 4,4 C 30,6 km/h (5 Bft)
01.01.2023 06:07 10,7 C 10,0 C 73 % 1015,4 hPa 0,0 l/m 19,3 km/h (3 Bft) S 180 0 min 0,0 UV-I 0 W/m 6,1 C 4,4 C 30,6 km/h (5 Bft)
01.01.2023 06:08 10,7 C 10,0 C 73 % 1015,5 hPa 0,0 l/m 16,1 km/h (3 Bft) S 180 0 min 0,0 UV-I 0 W/m 6,1 C 5,5 C 20,9 km/h (4 Bft)
01.01.2023 06:09 10,7 C 9,4 C 73 % 1015,5 hPa 0,0 l/m 27,4 km/h (4 Bft) S 180 0 min 0,0 UV-I 0 W/m 6,1 C 2,2 C 43,5 km/h (6 Bft)
01.01.2023 06:10 10,7 C 10,0 C 73 % 1015,5 hPa 0,0 l/m 27,4 km/h (4 Bft) S 180 0 min 0,0 UV-I 0 W/m 6,1 C 2,2 C 35,4 km/h (5 Bft)
01.01.2023 06:11 10,7 C 10,0 C 73 % 1015,5 hPa 0,0 l/m 20,9 km/h (4 Bft) S 180 0 min 0,0 UV-I 0 W/m 6,1 C 3,9 C 27,4 km/h (4 Bft)
01.01.2023 06:12 10,7 C 9,4 C 73 % 1015,5 hPa 0,0 l/m 22,5 km/h (4 Bft) S 180 0 min 0,0 UV-I 0 W/m 6,1 C 3,4 C 32,2 km/h (5 Bft)
01.01.2023 06:13 10,7 C 9,4 C 73 % 1015,6 hPa 0,0 l/m 19,3 km/h (3 Bft) S 180 0 min 0,0 UV-I 0 W/m 6,1 C 4,4 C 32,2 km/h (5 Bft)
01.01.2023 06:14 10,7 C 9,4 C 73 % 1015,6 hPa 0,0 l/m 20,9 km/h (4 Bft) S 180 0 min 0,0 UV-I 0 W/m 6,1 C 3,9 C 32,2 km/h (5 Bft)
01.01.2023 06:15 10,7 C 9,4 C 73 % 1015,6 hPa 0,0 l/m 20,9 km/h (4 Bft) S 180 0 min 0,0 UV-I 0 W/m 6,1 C 3,9 C 30,6 km/h (5 Bft)
01.01.2023 06:16 10,7 C 10,0 C 73 % 1015,6 hPa 0,0 l/m 17,7 km/h (3 Bft) S 180 0 min 0,0 UV-I 0 W/m 6,1 C 5,0 C 30,6 km/h (5 Bft)
01.01.2023 06:17 10,7 C 9,4 C 73 % 1015,6 hPa 0,0 l/m 20,9 km/h (4 Bft) S 180 0 min 0,0 UV-I 0 W/m 6,1 C 3,9 C 25,7 km/h (4 Bft)
01.01.2023 06:18 10,7 C 9,4 C 73 % 1015,6 hPa 0,0 l/m 17,7 km/h (3 Bft) S 180 0 min 0,0 UV-I 0 W/m 6,1 C 5,0 C 32,2 km/h (5 Bft)
01.01.2023 06:19 10,7 C 9,4 C 73 % 1015,7 hPa 0,0 l/m 20,9 km/h (4 Bft) S 180 0 min 0,0 UV-I 0 W/m 6,1 C 3,9 C 32,2 km/h (5 Bft)
01.01.2023 06:20 10,7 C 9,4 C 73 % 1015,8 hPa 0,0 l/m 19,3 km/h (3 Bft) S 180 0 min 0,0 UV-I 0 W/m 6,1 C 4,4 C 29,0 km/h (5 Bft)
01.01.2023 06:21 10,6 C 9,4 C 73 % 1015,8 hPa 0,0 l/m 20,9 km/h (4 Bft) S 180 0 min 0,0 UV-I 0 W/m 6,0 C 3,8 C 27,4 km/h (4 Bft)
01.01.2023 06:22 10,7 C 9,4 C 73 % 1015,7 hPa 0,0 l/m 20,9 km/h (4 Bft) S 180 0 min 0,0 UV-I 0 W/m 6,1 C 3,9 C 29,0 km/h (5 Bft)
01.01.2023 06:23 10,6 C 10,0 C 73 % 1015,8 hPa 0,0 l/m 22,5 km/h (4 Bft) S 180 0 min 0,0 UV-I 0 W/m 6,0 C 3,3 C 30,6 km/h (5 Bft)
01.01.2023 06:24 10,6 C 10,0 C 73 % 1015,8 hPa 0,0 l/m 19,3 km/h (3 Bft) S 180 0 min 0,0 UV-I 0 W/m 6,0 C 4,3 C 24,1 km/h (4 Bft)
01.01.2023 06:25 10,6 C 10,0 C 74 % 1015,9 hPa 0,0 l/m 22,5 km/h (4 Bft) S 180 0 min 0,0 UV-I 0 W/m 6,2 C 3,3 C 29,0 km/h (5 Bft)
01.01.2023 06:26 10,7 C 10,0 C 74 % 1015,8 hPa 0,0 l/m 16,1 km/h (3 Bft) S 180 0 min 0,0 UV-I 0 W/m 6,3 C 5,5 C 29,0 km/h (5 Bft)
01.01.2023 06:27 10,6 C 10,0 C 74 % 1015,8 hPa 0,0 l/m 20,9 km/h (4 Bft) S-SO 157 0 min 0,0 UV-I 0 W/m 6,2 C 3,8 C 35,4 km/h (5 Bft)
01.01.2023 06:28 10,7 C 10,0 C 74 % 1015,8 hPa 0,0 l/m 16,1 km/h (3 Bft) S 180 0 min 0,0 UV-I 0 W/m 6,3 C 5,5 C 30,6 km/h (5 Bft)
01.01.2023 06:29 10,7 C 10,0 C 74 % 1015,8 hPa 0,0 l/m 25,7 km/h (4 Bft) S-SW 202 0 min 0,0 UV-I 0 W/m 6,3 C 2,6 C 33,8 km/h (5 Bft)
01.01.2023 06:30 10,7 C 10,0 C 74 % 1015,7 hPa 0,0 l/m 17,7 km/h (3 Bft) S 180 0 min 0,0 UV-I 0 W/m 6,3 C 5,0 C 25,7 km/h (4 Bft)
01.01.2023 06:31 10,7 C 10,0 C 74 % 1015,8 hPa 0,0 l/m 14,5 km/h (3 Bft) S 180 0 min 0,0 UV-I 0 W/m 6,3 C 6,2 C 20,9 km/h (4 Bft)
01.01.2023 06:32 10,7 C 10,0 C 74 % 1015,7 hPa 0,0 l/m 16,1 km/h (3 Bft) S 180 0 min 0,0 UV-I 0 W/m 6,3 C 5,5 C 22,5 km/h (4 Bft)
01.01.2023 06:33 10,7 C 10,0 C 74 % 1015,9 hPa 0,0 l/m 20,9 km/h (4 Bft) S-SW 202 0 min 0,0 UV-I 0 W/m 6,3 C 3,9 C 29,0 km/h (5 Bft)
01.01.2023 06:34 10,7 C 10,0 C 74 % 1015,8 hPa 0,0 l/m 24,1 km/h (4 Bft) S 180 0 min 0,0 UV-I 0 W/m 6,3 C 3,0 C 32,2 km/h (5 Bft)
01.01.2023 06:35 10,7 C 10,0 C 74 % 1015,8 hPa 0,0 l/m 19,3 km/h (3 Bft) S-SW 202 0 min 0,0 UV-I 0 W/m 6,3 C 4,4 C 29,0 km/h (5 Bft)
01.01.2023 06:36 10,7 C 10,0 C 74 % 1015,8 hPa 0,0 l/m 20,9 km/h (4 Bft) S 180 0 min 0,0 UV-I 0 W/m 6,3 C 3,9 C 29,0 km/h (5 Bft)
01.01.2023 06:37 10,7 C 10,0 C 74 % 1015,8 hPa 0,0 l/m 19,3 km/h (3 Bft) S 180 0 min 0,0 UV-I 0 W/m 6,3 C 4,4 C 27,4 km/h (4 Bft)
01.01.2023 06:38 10,7 C 10,0 C 74 % 1016,0 hPa 0,0 l/m 19,3 km/h (3 Bft) S 180 0 min 0,0 UV-I 0 W/m 6,3 C 4,4 C 27,4 km/h (4 Bft)
01.01.2023 06:39 10,7 C 10,0 C 74 % 1016,0 hPa 0,0 l/m 16,1 km/h (3 Bft) S 180 0 min 0,0 UV-I 0 W/m 6,3 C 5,5 C 22,5 km/h (4 Bft)
01.01.2023 06:40 10,7 C 10,0 C 74 % 1016,1 hPa 0,0 l/m 19,3 km/h (3 Bft) S-SW 202 0 min 0,0 UV-I 0 W/m 6,3 C 4,4 C 27,4 km/h (4 Bft)
01.01.2023 06:41 10,7 C 10,0 C 74 % 1016,1 hPa 0,0 l/m 19,3 km/h (3 Bft) S 180 0 min 0,0 UV-I 0 W/m 6,3 C 4,4 C 29,0 km/h (5 Bft)
01.01.2023 06:42 10,7 C 10,0 C 74 % 1016,2 hPa 0,0 l/m 22,5 km/h (4 Bft) S-SW 202 0 min 0,0 UV-I 0 W/m 6,3 C 3,4 C 29,0 km/h (5 Bft)
01.01.2023 06:43 10,7 C 10,0 C 74 % 1016,2 hPa 0,0 l/m 20,9 km/h (4 Bft) S 180 0 min 0,0 UV-I 0 W/m 6,3 C 3,9 C 29,0 km/h (5 Bft)
01.01.2023 06:44 10,7 C 10,0 C 74 % 1016,1 hPa 0,0 l/m 16,1 km/h (3 Bft) S 180 0 min 0,0 UV-I 0 W/m 6,3 C 5,5 C 30,6 km/h (5 Bft)
01.01.2023 06:45 10,7 C 10,0 C 74 % 1016,2 hPa 0,0 l/m 14,5 km/h (3 Bft) S 180 0 min 0,0 UV-I 0 W/m 6,3 C 6,2 C 20,9 km/h (4 Bft)
01.01.2023 06:46 10,6 C 10,0 C 74 % 1016,2 hPa 0,0 l/m 22,5 km/h (4 Bft) S 180 0 min 0,0 UV-I 0 W/m 6,2 C 3,3 C 38,6 km/h (5 Bft)
01.01.2023 06:47 10,7 C 10,0 C 74 % 1016,2 hPa 0,0 l/m 17,7 km/h (3 Bft) S 180 0 min 0,0 UV-I 0 W/m 6,3 C 5,0 C 27,4 km/h (4 Bft)
01.01.2023 06:48 10,6 C 10,0 C 74 % 1016,2 hPa 0,0 l/m 14,5 km/h (3 Bft) S 180 0 min 0,0 UV-I 0 W/m 6,2 C 6,1 C 17,7 km/h (3 Bft)
01.01.2023 06:49 10,6 C 9,4 C 74 % 1016,1 hPa 0,0 l/m 16,1 km/h (3 Bft) S 180 0 min 0,0 UV-I 0 W/m 6,2 C 5,4 C 25,7 km/h (4 Bft)
01.01.2023 06:50 10,6 C 9,4 C 74 % 1016,1 hPa 0,0 l/m 22,5 km/h (4 Bft) S-SW 202 0 min 0,0 UV-I 0 W/m 6,2 C 3,3 C 29,0 km/h (5 Bft)
01.01.2023 06:51 10,6 C 9,4 C 74 % 1016,3 hPa 0,0 l/m 19,3 km/h (3 Bft) S 180 0 min 0,0 UV-I 0 W/m 6,2 C 4,3 C 24,1 km/h (4 Bft)
01.01.2023 06:52 10,6 C 10,0 C 74 % 1016,2 hPa 0,0 l/m 17,7 km/h (3 Bft) S-SW 202 0 min 0,0 UV-I 0 W/m 6,2 C 4,8 C 24,1 km/h (4 Bft)
01.01.2023 06:53 10,6 C 10,0 C 74 % 1016,3 hPa 0,0 l/m 17,7 km/h (3 Bft) S-SW 202 0 min 0,0 UV-I 0 W/m 6,2 C 4,8 C 22,5 km/h (4 Bft)
01.01.2023 06:54 10,6 C 10,0 C 74 % 1016,3 hPa 0,0 l/m 19,3 km/h (3 Bft) S 180 0 min 0,0 UV-I 0 W/m 6,2 C 4,3 C 24,1 km/h (4 Bft)
01.01.2023 06:55 10,6 C 10,0 C 75 % 1016,3 hPa 0,0 l/m 19,3 km/h (3 Bft) S-SW 202 0 min 0,0 UV-I 0 W/m 6,4 C 4,3 C 27,4 km/h (4 Bft)
01.01.2023 06:56 10,6 C 10,0 C 74 % 1016,2 hPa 0,0 l/m 17,7 km/h (3 Bft) S-SW 202 0 min 0,0 UV-I 0 W/m 6,2 C 4,8 C 27,4 km/h (4 Bft)
01.01.2023 06:57 10,6 C 10,0 C 75 % 1016,3 hPa 0,0 l/m 17,7 km/h (3 Bft) S 180 0 min 0,0 UV-I 0 W/m 6,4 C 4,8 C 32,2 km/h (5 Bft)
01.01.2023 06:58 10,6 C 10,0 C 75 % 1016,2 hPa 0,0 l/m 17,7 km/h (3 Bft) S 180 0 min 0,0 UV-I 0 W/m 6,4 C 4,8 C 27,4 km/h (4 Bft)
01.01.2023 06:59 10,6 C 10,0 C 75 % 1016,2 hPa 0,0 l/m 14,5 km/h (3 Bft) S-SW 202 0 min 0,0 UV-I 0 W/m 6,4 C 6,1 C 19,3 km/h (3 Bft)
01.01.2023 07:00 10,6 C 10,0 C 75 % 1016,2 hPa 0,0 l/m 20,9 km/h (4 Bft) S 180 0 min 0,0 UV-I 0 W/m 6,4 C 3,8 C 27,4 km/h (4 Bft)
01.01.2023 07:01 10,6 C 10,0 C 75 % 1016,3 hPa 0,0 l/m 20,9 km/h (4 Bft) S-SW 202 0 min 0,0 UV-I 0 W/m 6,4 C 3,8 C 29,0 km/h (5 Bft)
01.01.2023 07:02 10,6 C 10,0 C 75 % 1016,3 hPa 0,0 l/m 14,5 km/h (3 Bft) S 180 0 min 0,0 UV-I 0 W/m 6,4 C 6,1 C 20,9 km/h (4 Bft)
01.01.2023 07:03 10,6 C 10,0 C 75 % 1016,3 hPa 0,0 l/m 17,7 km/h (3 Bft) S 180 0 min 0,0 UV-I 0 W/m 6,4 C 4,8 C 24,1 km/h (4 Bft)
01.01.2023 07:04 10,6 C 10,0 C 75 % 1016,4 hPa 0,0 l/m 24,1 km/h (4 Bft) S-SW 202 0 min 0,0 UV-I 0 W/m 6,4 C 2,9 C 32,2 km/h (5 Bft)
01.01.2023 07:05 10,6 C 10,0 C 75 % 1016,4 hPa 0,0 l/m 20,9 km/h (4 Bft) S 180 0 min 0,0 UV-I 0 W/m 6,4 C 3,8 C 32,2 km/h (5 Bft)
01.01.2023 07:06 10,6 C 10,0 C 75 % 1016,3 hPa 0,0 l/m 17,7 km/h (3 Bft) S-SW 202 0 min 0,0 UV-I 0 W/m 6,4 C 4,8 C 27,4 km/h (4 Bft)
01.01.2023 07:07 10,6 C 10,0 C 75 % 1016,3 hPa 0,0 l/m 17,7 km/h (3 Bft) S 180 0 min 0,0 UV-I 0 W/m 6,4 C 4,8 C 24,1 km/h (4 Bft)
01.01.2023 07:08 10,6 C 10,0 C 75 % 1016,5 hPa 0,0 l/m 24,1 km/h (4 Bft) S-SW 202 0 min 0,0 UV-I 0 W/m 6,4 C 2,9 C 33,8 km/h (5 Bft)
01.01.2023 07:09 10,6 C 10,0 C 75 % 1016,5 hPa 0,0 l/m 19,3 km/h (3 Bft) S 180 0 min 0,0 UV-I 0 W/m 6,4 C 4,3 C 25,7 km/h (4 Bft)
01.01.2023 07:10 10,7 C 10,0 C 75 % 1016,4 hPa 0,0 l/m 17,7 km/h (3 Bft) S-SW 202 0 min 0,0 UV-I 0 W/m 6,5 C 5,0 C 22,5 km/h (4 Bft)
01.01.2023 07:11 10,7 C 10,0 C 75 % 1016,4 hPa 0,0 l/m 17,7 km/h (3 Bft) S 180 0 min 0,0 UV-I 0 W/m 6,5 C 5,0 C 24,1 km/h (4 Bft)
01.01.2023 07:12 10,7 C 10,0 C 75 % 1016,3 hPa 0,0 l/m 20,9 km/h (4 Bft) S-SW 202 0 min 0,0 UV-I 0 W/m 6,5 C 3,9 C 40,2 km/h (6 Bft)
01.01.2023 07:13 10,7 C 10,0 C 75 % 1016,4 hPa 0,0 l/m 20,9 km/h (4 Bft) S 180 0 min 0,0 UV-I 0 W/m 6,5 C 3,9 C 30,6 km/h (5 Bft)
01.01.2023 07:14 10,7 C 10,0 C 75 % 1016,3 hPa 0,0 l/m 24,1 km/h (4 Bft) S-SW 202 0 min 0,0 UV-I 0 W/m 6,5 C 3,0 C 37,0 km/h (5 Bft)
01.01.2023 07:15 10,7 C 10,0 C 75 % 1016,3 hPa 0,0 l/m 25,7 km/h (4 Bft) S 180 0 min 0,0 UV-I 0 W/m 6,5 C 2,6 C 32,2 km/h (5 Bft)
01.01.2023 07:16 10,8 C 10,0 C 75 % 1016,3 hPa 0,0 l/m 16,1 km/h (3 Bft) S-SW 202 0 min 0,0 UV-I 0 W/m 6,5 C 5,7 C 22,5 km/h (4 Bft)
01.01.2023 07:17 10,8 C 10,0 C 75 % 1016,4 hPa 0,0 l/m 24,1 km/h (4 Bft) S-SW 202 0 min 0,0 UV-I 0 W/m 6,5 C 3,1 C 32,2 km/h (5 Bft)
01.01.2023 07:18 10,8 C 10,0 C 75 % 1016,3 hPa 0,0 l/m 20,9 km/h (4 Bft) S 180 0 min 0,0 UV-I 0 W/m 6,5 C 4,0 C 30,6 km/h (5 Bft)
01.01.2023 07:19 10,8 C 10,0 C 75 % 1016,3 hPa 0,0 l/m 17,7 km/h (3 Bft) S 180 0 min 0,0 UV-I 0 W/m 6,5 C 5,1 C 24,1 km/h (4 Bft)
01.01.2023 07:20 10,8 C 10,0 C 75 % 1016,3 hPa 0,0 l/m 19,3 km/h (3 Bft) S 180 0 min 0,0 UV-I 0 W/m 6,5 C 4,5 C 25,7 km/h (4 Bft)
01.01.2023 07:21 10,7 C 10,0 C 75 % 1016,3 hPa 0,0 l/m 17,7 km/h (3 Bft) S-SW 202 0 min 0,0 UV-I 0 W/m 6,5 C 5,0 C 29,0 km/h (5 Bft)
01.01.2023 07:22 10,8 C 10,0 C 75 % 1016,4 hPa 0,0 l/m 16,1 km/h (3 Bft) S 180 0 min 0,0 UV-I 0 W/m 6,5 C 5,7 C 25,7 km/h (4 Bft)
01.01.2023 07:23 10,7 C 10,0 C 75 % 1016,4 hPa 0,0 l/m 16,1 km/h (3 Bft) S 180 0 min 0,0 UV-I 0 W/m 6,5 C 5,5 C 19,3 km/h (3 Bft)
01.01.2023 07:24 10,7 C 10,0 C 75 % 1016,4 hPa 0,0 l/m 17,7 km/h (3 Bft) S-SW 202 0 min 0,0 UV-I 0 W/m 6,5 C 5,0 C 22,5 km/h (4 Bft)
01.01.2023 07:25 10,7 C 10,0 C 75 % 1016,3 hPa 0,0 l/m 14,5 km/h (3 Bft) S 180 0 min 0,0 UV-I 0 W/m 6,5 C 6,2 C 20,9 km/h (4 Bft)
01.01.2023 07:26 10,7 C 10,0 C 75 % 1016,3 hPa 0,0 l/m 17,7 km/h (3 Bft) S 180 0 min 0,0 UV-I 0 W/m 6,5 C 5,0 C 22,5 km/h (4 Bft)
01.01.2023 07:27 10,7 C 10,0 C 75 % 1016,5 hPa 0,0 l/m 19,3 km/h (3 Bft) S-SW 202 0 min 0,0 UV-I 0 W/m 6,5 C 4,4 C 24,1 km/h (4 Bft)
01.01.2023 07:28 10,7 C 10,0 C 75 % 1016,4 hPa 0,0 l/m 22,5 km/h (4 Bft) S 180 0 min 0,0 UV-I 0 W/m 6,5 C 3,4 C 30,6 km/h (5 Bft)
01.01.2023 07:29 10,8 C 10,0 C 75 % 1016,3 hPa 0,0 l/m 17,7 km/h (3 Bft) S 180 0 min 0,0 UV-I 0 W/m 6,5 C 5,1 C 25,7 km/h (4 Bft)
01.01.2023 07:30 10,8 C 10,0 C 75 % 1016,4 hPa 0,0 l/m 19,3 km/h (3 Bft) S 180 0 min 0,0 UV-I 0 W/m 6,5 C 4,5 C 27,4 km/h (4 Bft)
01.01.2023 07:31 10,8 C 10,0 C 75 % 1016,5 hPa 0,0 l/m 19,3 km/h (3 Bft) S 180 0 min 0,0 UV-I 0 W/m 6,5 C 4,5 C 27,4 km/h (4 Bft)
01.01.2023 07:32 10,8 C 10,0 C 75 % 1016,5 hPa 0,0 l/m 19,3 km/h (3 Bft) S-SW 202 0 min 0,0 UV-I 0 W/m 6,5 C 4,5 C 24,1 km/h (4 Bft)
01.01.2023 07:33 10,8 C 10,0 C 75 % 1016,4 hPa 0,0 l/m 19,3 km/h (3 Bft) S-SW 202 0 min 0,0 UV-I 0 W/m 6,5 C 4,5 C 24,1 km/h (4 Bft)
01.01.2023 07:34 10,8 C 10,0 C 75 % 1016,4 hPa 0,0 l/m 19,3 km/h (3 Bft) S-SW 202 0 min 0,0 UV-I 0 W/m 6,5 C 4,5 C 30,6 km/h (5 Bft)
01.01.2023 07:35 10,8 C 10,0 C 75 % 1016,3 hPa 0,0 l/m 22,5 km/h (4 Bft) S 180 0 min 0,0 UV-I 0 W/m 6,5 C 3,6 C 30,6 km/h (5 Bft)
01.01.2023 07:36 10,8 C 10,0 C 75 % 1016,5 hPa 0,0 l/m 22,5 km/h (4 Bft) S-SW 202 0 min 0,0 UV-I 0 W/m 6,5 C 3,6 C 35,4 km/h (5 Bft)
01.01.2023 07:37 10,8 C 10,0 C 75 % 1016,4 hPa 0,0 l/m 20,9 km/h (4 Bft) S-SW 202 0 min 0,0 UV-I 0 W/m 6,5 C 4,0 C 30,6 km/h (5 Bft)
01.01.2023 07:38 10,8 C 10,0 C 75 % 1016,5 hPa 0,0 l/m 17,7 km/h (3 Bft) S-SW 202 0 min 0,0 UV-I 0 W/m 6,5 C 5,1 C 22,5 km/h (4 Bft)
01.01.2023 07:39 10,8 C 10,0 C 75 % 1016,5 hPa 0,0 l/m 22,5 km/h (4 Bft) S 180 0 min 0,0 UV-I 0 W/m 6,5 C 3,6 C 37,0 km/h (5 Bft)
01.01.2023 07:40 10,8 C 10,0 C 75 % 1016,5 hPa 0,0 l/m 20,9 km/h (4 Bft) S-SW 202 0 min 0,0 UV-I 0 W/m 6,5 C 4,0 C 29,0 km/h (5 Bft)
01.01.2023 07:41 10,9 C 10,0 C 75 % 1016,6 hPa 0,0 l/m 16,1 km/h (3 Bft) S 180 0 min 0,0 UV-I 0 W/m 6,6 C 5,8 C 25,7 km/h (4 Bft)
01.01.2023 07:42 10,9 C 10,0 C 75 % 1016,5 hPa 0,0 l/m 16,1 km/h (3 Bft) S 180 0 min 0,0 UV-I 0 W/m 6,6 C 5,8 C 25,7 km/h (4 Bft)
01.01.2023 07:43 10,9 C 10,0 C 75 % 1016,5 hPa 0,0 l/m 16,1 km/h (3 Bft) S-SW 202 0 min 0,0 UV-I 0 W/m 6,6 C 5,8 C 27,4 km/h (4 Bft)
01.01.2023 07:44 10,9 C 10,0 C 75 % 1016,5 hPa 0,0 l/m 25,7 km/h (4 Bft) S 180 0 min 0,0 UV-I 0 W/m 6,6 C 2,9 C 40,2 km/h (6 Bft)
01.01.2023 07:45 10,9 C 10,0 C 75 % 1016,4 hPa 0,0 l/m 17,7 km/h (3 Bft) S-SW 202 0 min 0,0 UV-I 0 W/m 6,6 C 5,2 C 22,5 km/h (4 Bft)
01.01.2023 07:46 10,9 C 10,0 C 75 % 1016,4 hPa 0,0 l/m 17,7 km/h (3 Bft) S 180 0 min 0,0 UV-I 0 W/m 6,6 C 5,2 C 22,5 km/h (4 Bft)
01.01.2023 07:47 10,8 C 10,0 C 75 % 1016,5 hPa 0,0 l/m 17,7 km/h (3 Bft) S 180 0 min 0,0 UV-I 0 W/m 6,5 C 5,1 C 22,5 km/h (4 Bft)
01.01.2023 07:48 10,8 C 10,0 C 75 % 1016,4 hPa 0,0 l/m 22,5 km/h (4 Bft) S 180 0 min 0,0 UV-I 0 W/m 6,5 C 3,6 C 33,8 km/h (5 Bft)
01.01.2023 07:49 10,8 C 10,0 C 75 % 1016,4 hPa 0,0 l/m 19,3 km/h (3 Bft) S 180 0 min 0,0 UV-I 0 W/m 6,5 C 4,5 C 27,4 km/h (4 Bft)
01.01.2023 07:50 10,8 C 10,0 C 75 % 1016,3 hPa 0,0 l/m 17,7 km/h (3 Bft) S 180 0 min 0,0 UV-I 0 W/m 6,5 C 5,1 C 24,1 km/h (4 Bft)
01.01.2023 07:51 10,8 C 10,0 C 75 % 1016,4 hPa 0,0 l/m 16,1 km/h (3 Bft) S 180 0 min 0,0 UV-I 0 W/m 6,5 C 5,7 C 30,6 km/h (5 Bft)
01.01.2023 07:52 10,8 C 10,0 C 75 % 1016,3 hPa 0,0 l/m 19,3 km/h (3 Bft) S-SW 202 0 min 0,0 UV-I 0 W/m 6,5 C 4,5 C 25,7 km/h (4 Bft)
01.01.2023 07:53 10,8 C 10,0 C 76 % 1016,5 hPa 0,0 l/m 24,1 km/h (4 Bft) S 180 0 min 0,0 UV-I 0 W/m 6,7 C 3,1 C 33,8 km/h (5 Bft)
01.01.2023 07:54 10,8 C 10,0 C 76 % 1016,5 hPa 0,0 l/m 22,5 km/h (4 Bft) S 180 0 min 0,0 UV-I 0 W/m 6,7 C 3,6 C 33,8 km/h (5 Bft)
01.01.2023 07:55 10,8 C 10,0 C 76 % 1016,4 hPa 0,0 l/m 22,5 km/h (4 Bft) S 180 0 min 0,0 UV-I 0 W/m 6,7 C 3,6 C 35,4 km/h (5 Bft)
01.01.2023 07:56 10,8 C 10,0 C 76 % 1016,4 hPa 0,0 l/m 20,9 km/h (4 Bft) S 180 0 min 0,0 UV-I 0 W/m 6,7 C 4,0 C 25,7 km/h (4 Bft)
01.01.2023 07:57 10,8 C 10,0 C 76 % 1016,5 hPa 0,0 l/m 22,5 km/h (4 Bft) S-SO 157 0 min 0,0 UV-I 0 W/m 6,7 C 3,6 C 37,0 km/h (5 Bft)
01.01.2023 07:58 10,8 C 10,0 C 76 % 1016,5 hPa 0,0 l/m 19,3 km/h (3 Bft) S 180 0 min 0,0 UV-I 0 W/m 6,7 C 4,5 C 27,4 km/h (4 Bft)
01.01.2023 07:59 10,8 C 10,0 C 76 % 1016,6 hPa 0,0 l/m 19,3 km/h (3 Bft) S 180 0 min 0,0 UV-I 0 W/m 6,7 C 4,5 C 30,6 km/h (5 Bft)
01.01.2023 08:00 10,8 C 10,0 C 76 % 1016,4 hPa 0,0 l/m 24,1 km/h (4 Bft) S 180 0 min 0,0 UV-I 0 W/m 6,7 C 3,1 C 41,8 km/h (6 Bft)
01.01.2023 08:01 10,8 C 10,0 C 76 % 1016,5 hPa 0,0 l/m 25,7 km/h (4 Bft) S 180 0 min 0,0 UV-I 0 W/m 6,7 C 2,7 C 37,0 km/h (5 Bft)
01.01.2023 08:02 10,8 C 10,0 C 76 % 1016,5 hPa 0,0 l/m 24,1 km/h (4 Bft) S 180 0 min 0,0 UV-I 0 W/m 6,7 C 3,1 C 35,4 km/h (5 Bft)
01.01.2023 08:03 10,8 C 10,0 C 76 % 1016,5 hPa 0,0 l/m 17,7 km/h (3 Bft) S 180 0 min 0,0 UV-I 0 W/m 6,7 C 5,1 C 27,4 km/h (4 Bft)
01.01.2023 08:04 10,8 C 10,0 C 76 % 1016,5 hPa 0,0 l/m 16,1 km/h (3 Bft) S 180 0 min 0,0 UV-I 0 W/m 6,7 C 5,7 C 20,9 km/h (4 Bft)
01.01.2023 08:05 10,8 C 10,0 C 76 % 1016,6 hPa 0,0 l/m 22,5 km/h (4 Bft) S 180 0 min 0,0 UV-I 0 W/m 6,7 C 3,6 C 37,0 km/h (5 Bft)
01.01.2023 08:06 10,8 C 10,0 C 76 % 1016,6 hPa 0,0 l/m 24,1 km/h (4 Bft) S-SW 202 0 min 0,0 UV-I 0 W/m 6,7 C 3,1 C 33,8 km/h (5 Bft)
01.01.2023 08:07 10,9 C 10,0 C 76 % 1016,7 hPa 0,0 l/m 24,1 km/h (4 Bft) S 180 0 min 0,0 UV-I 0 W/m 6,8 C 3,3 C 29,0 km/h (5 Bft)
01.01.2023 08:08 10,9 C 10,0 C 76 % 1016,7 hPa 0,0 l/m 27,4 km/h (4 Bft) S-SW 202 0 min 0,0 UV-I 0 W/m 6,8 C 2,5 C 38,6 km/h (5 Bft)
01.01.2023 08:09 10,9 C 10,0 C 76 % 1016,8 hPa 0,0 l/m 27,4 km/h (4 Bft) S-SW 202 0 min 0,0 UV-I 0 W/m 6,8 C 2,5 C 41,8 km/h (6 Bft)
01.01.2023 08:10 10,9 C 10,0 C 76 % 1016,8 hPa 0,0 l/m 20,9 km/h (4 Bft) S-SW 202 0 min 0,0 UV-I 0 W/m 6,8 C 4,2 C 33,8 km/h (5 Bft)
01.01.2023 08:11 10,9 C 10,0 C 77 % 1016,9 hPa 0,0 l/m 22,5 km/h (4 Bft) S-SW 202 0 min 0,0 UV-I 0 W/m 7,0 C 3,7 C 32,2 km/h (5 Bft)
01.01.2023 08:12 10,9 C 10,0 C 77 % 1017,0 hPa 0,0 l/m 20,9 km/h (4 Bft) S-SW 202 0 min 0,0 UV-I 0 W/m 7,0 C 4,2 C 32,2 km/h (5 Bft)
01.01.2023 08:13 10,9 C 9,4 C 77 % 1017,0 hPa 0,0 l/m 20,9 km/h (4 Bft) S-SW 202 0 min 0,0 UV-I 0 W/m 7,0 C 4,2 C 27,4 km/h (4 Bft)
01.01.2023 08:14 10,9 C 9,4 C 77 % 1017,1 hPa 0,0 l/m 25,7 km/h (4 Bft) S-SW 202 0 min 0,0 UV-I 0 W/m 7,0 C 2,9 C 40,2 km/h (6 Bft)
01.01.2023 08:15 10,8 C 8,9 C 77 % 1017,1 hPa 0,0 l/m 22,5 km/h (4 Bft) S-SW 202 0 min 0,0 UV-I 0 W/m 6,9 C 3,6 C 32,2 km/h (5 Bft)
01.01.2023 08:16 10,8 C 8,9 C 77 % 1017,1 hPa 0,0 l/m 24,1 km/h (4 Bft) S-SW 202 0 min 0,0 UV-I 0 W/m 6,9 C 3,1 C 43,5 km/h (6 Bft)
01.01.2023 08:17 10,8 C 8,9 C 78 % 1017,1 hPa 0,0 l/m 22,5 km/h (4 Bft) S-SW 202 0 min 0,0 UV-I 0 W/m 7,1 C 3,6 C 29,0 km/h (5 Bft)
01.01.2023 08:18 10,8 C 8,9 C 78 % 1017,1 hPa 0,0 l/m 20,9 km/h (4 Bft) S 180 0 min 0,0 UV-I 0 W/m 7,1 C 4,0 C 32,2 km/h (5 Bft)
01.01.2023 08:19 10,7 C 8,9 C 78 % 1016,9 hPa 0,0 l/m 22,5 km/h (4 Bft) S 180 0 min 0,0 UV-I 0 W/m 7,0 C 3,4 C 30,6 km/h (5 Bft)
01.01.2023 08:20 10,7 C 8,9 C 79 % 1016,9 hPa 0,0 l/m 22,5 km/h (4 Bft) S-SW 202 0 min 0,0 UV-I 3 W/m 7,2 C 3,4 C 27,4 km/h (4 Bft)
01.01.2023 08:21 10,6 C 8,9 C 79 % 1017,0 hPa 0,0 l/m 25,7 km/h (4 Bft) S 180 0 min 0,0 UV-I 7 W/m 7,1 C 2,5 C 35,4 km/h (5 Bft)
01.01.2023 08:22 10,6 C 8,9 C 79 % 1017,1 hPa 0,0 l/m 22,5 km/h (4 Bft) S 180 0 min 0,0 UV-I 9 W/m 7,1 C 3,3 C 35,4 km/h (5 Bft)
01.01.2023 08:23 10,6 C 8,9 C 79 % 1017,1 hPa 0,0 l/m 16,1 km/h (3 Bft) S 180 0 min 0,0 UV-I 11 W/m 7,1 C 5,4 C 24,1 km/h (4 Bft)
01.01.2023 08:24 10,6 C 8,9 C 79 % 1017,2 hPa 0,0 l/m 19,3 km/h (3 Bft) S 180 0 min 0,0 UV-I 12 W/m 7,1 C 4,3 C 32,2 km/h (5 Bft)
01.01.2023 08:25 10,6 C 8,9 C 79 % 1017,2 hPa 0,0 l/m 20,9 km/h (4 Bft) S-SW 202 0 min 0,0 UV-I 13 W/m 7,1 C 3,8 C 33,8 km/h (5 Bft)
01.01.2023 08:26 10,6 C 8,9 C 79 % 1017,2 hPa 0,0 l/m 22,5 km/h (4 Bft) S-SW 202 0 min 0,0 UV-I 14 W/m 7,1 C 3,3 C 41,8 km/h (6 Bft)
01.01.2023 08:27 10,5 C 8,9 C 79 % 1017,3 hPa 0,0 l/m 25,7 km/h (4 Bft) S 180 0 min 0,0 UV-I 14 W/m 7,0 C 2,3 C 37,0 km/h (5 Bft)
01.01.2023 08:28 10,5 C 8,9 C 79 % 1017,3 hPa 0,0 l/m 19,3 km/h (3 Bft) S-SW 202 0 min 0,0 UV-I 12 W/m 7,0 C 4,2 C 22,5 km/h (4 Bft)
01.01.2023 08:29 10,5 C 8,9 C 80 % 1017,4 hPa 0,0 l/m 25,7 km/h (4 Bft) S-SW 202 0 min 0,0 UV-I 11 W/m 7,2 C 2,3 C 38,6 km/h (5 Bft)
01.01.2023 08:30 10,5 C 8,9 C 80 % 1017,3 hPa 0,0 l/m 19,3 km/h (3 Bft) S 180 0 min 0,0 UV-I 7 W/m 7,2 C 4,2 C 27,4 km/h (4 Bft)
01.01.2023 08:31 10,5 C 8,9 C 80 % 1017,3 hPa 0,0 l/m 24,1 km/h (4 Bft) S 180 0 min 0,0 UV-I 3 W/m 7,2 C 2,7 C 32,2 km/h (5 Bft)
01.01.2023 08:32 10,5 C 8,9 C 80 % 1017,3 hPa 0,0 l/m 27,4 km/h (4 Bft) S-SW 202 0 min 0,0 UV-I 0 W/m 7,2 C 1,9 C 35,4 km/h (5 Bft)
01.01.2023 08:33 10,6 C 8,9 C 80 % 1017,4 hPa 0,0 l/m 24,1 km/h (4 Bft) S 180 0 min 0,0 UV-I 0 W/m 7,3 C 2,9 C 33,8 km/h (5 Bft)
01.01.2023 08:34 10,6 C 8,9 C 80 % 1017,4 hPa 0,0 l/m 24,1 km/h (4 Bft) S-SW 202 0 min 0,0 UV-I 0 W/m 7,3 C 2,9 C 33,8 km/h (5 Bft)
01.01.2023 08:35 10,5 C 8,9 C 80 % 1017,4 hPa 0,0 l/m 24,1 km/h (4 Bft) S 180 0 min 0,0 UV-I 0 W/m 7,2 C 2,7 C 32,2 km/h (5 Bft)
01.01.2023 08:36 10,5 C 8,9 C 80 % 1017,4 hPa 0,0 l/m 20,9 km/h (4 Bft) S 180 0 min 0,0 UV-I 0 W/m 7,2 C 3,7 C 29,0 km/h (5 Bft)
01.01.2023 08:37 10,5 C 8,9 C 80 % 1017,4 hPa 0,0 l/m 25,7 km/h (4 Bft) S-SW 202 0 min 0,0 UV-I 0 W/m 7,2 C 2,3 C 35,4 km/h (5 Bft)
01.01.2023 08:38 10,4 C 8,9 C 80 % 1017,4 hPa 0,0 l/m 20,9 km/h (4 Bft) S-SW 202 0 min 0,0 UV-I 0 W/m 7,1 C 3,5 C 32,2 km/h (5 Bft)
01.01.2023 08:39 10,5 C 8,9 C 80 % 1017,5 hPa 0,0 l/m 24,1 km/h (4 Bft) S-SW 202 0 min 0,0 UV-I 0 W/m 7,2 C 2,7 C 35,4 km/h (5 Bft)
01.01.2023 08:40 10,5 C 8,9 C 80 % 1017,6 hPa 0,0 l/m 25,7 km/h (4 Bft) S 180 0 min 0,0 UV-I 0 W/m 7,2 C 2,3 C 37,0 km/h (5 Bft)
01.01.2023 08:41 10,4 C 8,9 C 80 % 1017,5 hPa 0,0 l/m 25,7 km/h (4 Bft) S-SW 202 0 min 0,0 UV-I 0 W/m 7,1 C 2,2 C 48,3 km/h (6 Bft)
01.01.2023 08:42 10,4 C 8,9 C 80 % 1017,5 hPa 0,0 l/m 22,5 km/h (4 Bft) S-SW 202 0 min 0,0 UV-I 0 W/m 7,1 C 3,0 C 45,1 km/h (6 Bft)
01.01.2023 08:43 10,4 C 8,9 C 81 % 1017,7 hPa 0,0 l/m 22,5 km/h (4 Bft) S 180 0 min 0,0 UV-I 0 W/m 7,3 C 3,0 C 32,2 km/h (5 Bft)
01.01.2023 08:44 10,4 C 8,9 C 81 % 1017,5 hPa 0,0 l/m 25,7 km/h (4 Bft) S-SW 202 0 min 0,0 UV-I 0 W/m 7,3 C 2,2 C 30,6 km/h (5 Bft)
01.01.2023 08:45 10,4 C 8,9 C 81 % 1017,8 hPa 0,0 l/m 20,9 km/h (4 Bft) S 180 0 min 0,0 UV-I 0 W/m 7,3 C 3,5 C 29,0 km/h (5 Bft)
01.01.2023 08:46 10,4 C 8,9 C 81 % 1017,8 hPa 0,0 l/m 29,0 km/h (5 Bft) S-SW 202 0 min 0,0 UV-I 0 W/m 7,3 C 1,4 C 43,5 km/h (6 Bft)
01.01.2023 08:47 10,4 C 8,9 C 81 % 1017,7 hPa 0,0 l/m 22,5 km/h (4 Bft) S-SW 202 0 min 0,0 UV-I 0 W/m 7,3 C 3,0 C 30,6 km/h (5 Bft)
01.01.2023 08:48 10,4 C 8,9 C 81 % 1017,7 hPa 0,0 l/m 20,9 km/h (4 Bft) S-SW 202 0 min 0,0 UV-I 0 W/m 7,3 C 3,5 C 33,8 km/h (5 Bft)
01.01.2023 08:49 10,4 C 8,3 C 81 % 1017,8 hPa 0,0 l/m 25,7 km/h (4 Bft) S 180 0 min 0,0 UV-I 0 W/m 7,3 C 2,2 C 41,8 km/h (6 Bft)
01.01.2023 08:50 10,4 C 8,3 C 82 % 1017,9 hPa 0,0 l/m 24,1 km/h (4 Bft) S-SW 202 0 min 0,0 UV-I 0 W/m 7,5 C 2,6 C 33,8 km/h (5 Bft)
01.01.2023 08:51 10,4 C 8,3 C 81 % 1017,9 hPa 0,0 l/m 32,2 km/h (5 Bft) S 180 0 min 0,0 UV-I 0 W/m 7,3 C 0,8 C 43,5 km/h (6 Bft)
01.01.2023 08:52 10,3 C 8,3 C 82 % 1017,8 hPa 0,0 l/m 25,7 km/h (4 Bft) S-SW 202 0 min 0,0 UV-I 0 W/m 7,4 C 2,1 C 32,2 km/h (5 Bft)
01.01.2023 08:53 10,3 C 8,3 C 82 % 1017,8 hPa 0,0 l/m 19,3 km/h (3 Bft) S 180 0 min 0,0 UV-I 0 W/m 7,4 C 3,9 C 32,2 km/h (5 Bft)
01.01.2023 08:54 10,3 C 8,3 C 82 % 1017,9 hPa 0,0 l/m 20,9 km/h (4 Bft) S-SW 202 0 min 0,0 UV-I 0 W/m 7,4 C 3,4 C 37,0 km/h (5 Bft)
01.01.2023 08:55 10,3 C 8,3 C 82 % 1017,9 hPa 0,0 l/m 17,7 km/h (3 Bft) S-SW 202 0 min 0,0 UV-I 3 W/m 7,4 C 4,5 C 24,1 km/h (4 Bft)
01.01.2023 08:56 10,3 C 8,3 C 82 % 1017,9 hPa 0,0 l/m 22,5 km/h (4 Bft) S-SW 202 0 min 0,0 UV-I 11 W/m 7,4 C 2,9 C 35,4 km/h (5 Bft)
01.01.2023 08:57 10,2 C 8,3 C 82 % 1017,9 hPa 0,0 l/m 16,1 km/h (3 Bft) S 180 0 min 0,0 UV-I 11 W/m 7,3 C 4,9 C 22,5 km/h (4 Bft)
01.01.2023 08:58 10,2 C 8,3 C 83 % 1018,0 hPa 0,0 l/m 20,9 km/h (4 Bft) S-SW 202 0 min 0,0 UV-I 9 W/m 7,4 C 3,3 C 25,7 km/h (4 Bft)
01.01.2023 08:59 10,2 C 8,3 C 83 % 1017,9 hPa 0,0 l/m 24,1 km/h (4 Bft) S-SW 202 0 min 0,0 UV-I 9 W/m 7,4 C 2,3 C 30,6 km/h (5 Bft)
01.01.2023 09:00 10,2 C 8,3 C 83 % 1017,9 hPa 0,0 l/m 24,1 km/h (4 Bft) S-SW 202 0 min 0,0 UV-I 14 W/m 7,4 C 2,3 C 33,8 km/h (5 Bft)
01.01.2023 09:01 10,2 C 8,3 C 83 % 1017,9 hPa 0,0 l/m 19,3 km/h (3 Bft) S-SW 202 0 min 0,0 UV-I 17 W/m 7,4 C 3,8 C 29,0 km/h (5 Bft)
01.01.2023 09:02 10,2 C 8,3 C 83 % 1017,8 hPa 0,0 l/m 25,7 km/h (4 Bft) S 180 0 min 0,0 UV-I 18 W/m 7,4 C 1,9 C 40,2 km/h (6 Bft)
01.01.2023 09:03 10,1 C 8,3 C 83 % 1017,8 hPa 0,0 l/m 27,4 km/h (4 Bft) S-SW 202 0 min 0,0 UV-I 21 W/m 7,3 C 1,4 C 40,2 km/h (6 Bft)
01.01.2023 09:04 10,1 C 8,3 C 83 % 1017,7 hPa 0,2 l/m 30,6 km/h (5 Bft) S 180 0 min 0,0 UV-I 26 W/m 7,3 C 0,7 C 40,2 km/h (6 Bft)
01.01.2023 09:05 10,2 C 8,3 C 83 % 1017,7 hPa 0,0 l/m 24,1 km/h (4 Bft) S-SW 202 0 min 0,0 UV-I 28 W/m 7,4 C 2,3 C 33,8 km/h (5 Bft)
01.01.2023 09:06 10,1 C 8,3 C 83 % 1017,7 hPa 0,0 l/m 24,1 km/h (4 Bft) S-SW 202 0 min 0,0 UV-I 29 W/m 7,3 C 2,2 C 37,0 km/h (5 Bft)
01.01.2023 09:07 10,2 C 8,3 C 83 % 1017,8 hPa 0,0 l/m 24,1 km/h (4 Bft) S-SW 202 0 min 0,0 UV-I 37 W/m 7,4 C 2,3 C 33,8 km/h (5 Bft)
01.01.2023 09:08 10,2 C 8,3 C 83 % 1017,7 hPa 0,0 l/m 24,1 km/h (4 Bft) S-SW 202 0 min 0,0 UV-I 39 W/m 7,4 C 2,3 C 35,4 km/h (5 Bft)
01.01.2023 09:09 10,1 C 8,3 C 83 % 1017,7 hPa 0,0 l/m 24,1 km/h (4 Bft) S 180 0 min 0,0 UV-I 39 W/m 7,3 C 2,2 C 32,2 km/h (5 Bft)
01.01.2023 09:10 10,1 C 8,9 C 83 % 1017,8 hPa 0,0 l/m 20,9 km/h (4 Bft) S-SW 202 0 min 0,0 UV-I 39 W/m 7,3 C 3,1 C 29,0 km/h (5 Bft)
01.01.2023 09:11 10,1 C 8,9 C 84 % 1017,8 hPa 0,0 l/m 19,3 km/h (3 Bft) S 180 0 min 0,0 UV-I 39 W/m 7,5 C 3,6 C 32,2 km/h (5 Bft)
01.01.2023 09:12 10,1 C 8,9 C 84 % 1017,9 hPa 0,0 l/m 29,0 km/h (5 Bft) S 180 0 min 0,0 UV-I 50 W/m 7,5 C 1,0 C 38,6 km/h (5 Bft)
01.01.2023 09:13 10,1 C 8,9 C 84 % 1017,9 hPa 0,0 l/m 20,9 km/h (4 Bft) S-SW 202 0 min 0,0 UV-I 58 W/m 7,5 C 3,1 C 32,2 km/h (5 Bft)
01.01.2023 09:14 10,1 C 8,9 C 84 % 1018,0 hPa 0,0 l/m 22,5 km/h (4 Bft) S-SW 202 0 min 0,0 UV-I 53 W/m 7,5 C 2,7 C 35,4 km/h (5 Bft)
01.01.2023 09:15 10,1 C 8,9 C 84 % 1017,9 hPa 0,0 l/m 17,7 km/h (3 Bft) S-SW 202 0 min 0,0 UV-I 32 W/m 7,5 C 4,2 C 27,4 km/h (4 Bft)
01.01.2023 09:16 10,1 C 8,9 C 84 % 1018,0 hPa 0,0 l/m 22,5 km/h (4 Bft) S 180 0 min 0,0 UV-I 25 W/m 7,5 C 2,7 C 33,8 km/h (5 Bft)
01.01.2023 09:17 10,1 C 8,9 C 84 % 1017,9 hPa 0,0 l/m 25,7 km/h (4 Bft) S-SW 202 0 min 0,0 UV-I 26 W/m 7,5 C 1,8 C 33,8 km/h (5 Bft)
01.01.2023 09:18 10,1 C 8,9 C 84 % 1018,0 hPa 0,0 l/m 24,1 km/h (4 Bft) S-SW 202 0 min 0,0 UV-I 24 W/m 7,5 C 2,2 C 30,6 km/h (5 Bft)
01.01.2023 09:19 10,1 C 8,9 C 84 % 1018,0 hPa 0,0 l/m 24,1 km/h (4 Bft) S-SW 202 0 min 0,0 UV-I 19 W/m 7,5 C 2,2 C 32,2 km/h (5 Bft)
01.01.2023 09:20 10,1 C 8,9 C 84 % 1018,0 hPa 0,0 l/m 30,6 km/h (5 Bft) S-SW 202 0 min 0,0 UV-I 19 W/m 7,5 C 0,7 C 43,5 km/h (6 Bft)
01.01.2023 09:21 10,1 C 8,9 C 84 % 1018,0 hPa 0,0 l/m 27,4 km/h (4 Bft) S-SW 202 0 min 0,0 UV-I 18 W/m 7,5 C 1,4 C 37,0 km/h (5 Bft)
01.01.2023 09:22 10,1 C 8,9 C 83 % 1017,9 hPa 0,0 l/m 25,7 km/h (4 Bft) S 180 0 min 0,0 UV-I 11 W/m 7,3 C 1,8 C 38,6 km/h (5 Bft)
01.01.2023 09:23 10,1 C 8,9 C 83 % 1017,9 hPa 0,0 l/m 19,3 km/h (3 Bft) S-SW 202 0 min 0,0 UV-I 9 W/m 7,3 C 3,6 C 27,4 km/h (4 Bft)
01.01.2023 09:24 10,1 C 8,9 C 83 % 1018,0 hPa 0,0 l/m 22,5 km/h (4 Bft) S-SW 202 0 min 0,0 UV-I 8 W/m 7,3 C 2,7 C 27,4 km/h (4 Bft)
01.01.2023 09:25 10,1 C 8,9 C 83 % 1018,1 hPa 0,0 l/m 19,3 km/h (3 Bft) S 180 0 min 0,0 UV-I 7 W/m 7,3 C 3,6 C 29,0 km/h (5 Bft)
01.01.2023 09:26 10,1 C 8,9 C 84 % 1018,0 hPa 0,0 l/m 25,7 km/h (4 Bft) S-SW 202 0 min 0,0 UV-I 7 W/m 7,5 C 1,8 C 40,2 km/h (6 Bft)
01.01.2023 09:27 10,1 C 8,9 C 84 % 1018,1 hPa 0,0 l/m 27,4 km/h (4 Bft) S 180 0 min 0,0 UV-I 7 W/m 7,5 C 1,4 C 37,0 km/h (5 Bft)
01.01.2023 09:28 10,1 C 8,9 C 84 % 1017,9 hPa 0,0 l/m 19,3 km/h (3 Bft) S 180 0 min 0,0 UV-I 7 W/m 7,5 C 3,6 C 30,6 km/h (5 Bft)
01.01.2023 09:29 10,1 C 8,9 C 84 % 1018,1 hPa 0,0 l/m 24,1 km/h (4 Bft) S-SO 157 0 min 0,0 UV-I 7 W/m 7,5 C 2,2 C 33,8 km/h (5 Bft)
01.01.2023 09:30 10,1 C 8,9 C 84 % 1017,9 hPa 0,0 l/m 20,9 km/h (4 Bft) S-SW 202 0 min 0,0 UV-I 8 W/m 7,5 C 3,1 C 30,6 km/h (5 Bft)
01.01.2023 09:31 10,1 C 8,9 C 84 % 1018,0 hPa 0,0 l/m 22,5 km/h (4 Bft) S-SW 202 0 min 0,0 UV-I 12 W/m 7,5 C 2,7 C 38,6 km/h (5 Bft)
01.01.2023 09:32 10,1 C 8,9 C 84 % 1017,9 hPa 0,0 l/m 32,2 km/h (5 Bft) S 180 0 min 0,0 UV-I 16 W/m 7,5 C 0,4 C 40,2 km/h (6 Bft)
01.01.2023 09:33 10,1 C 8,9 C 84 % 1017,9 hPa 0,0 l/m 24,1 km/h (4 Bft) S 180 0 min 0,0 UV-I 16 W/m 7,5 C 2,2 C 38,6 km/h (5 Bft)
01.01.2023 09:34 10,1 C 8,9 C 84 % 1017,9 hPa 0,0 l/m 25,7 km/h (4 Bft) S-SW 202 0 min 0,0 UV-I 18 W/m 7,5 C 1,8 C 38,6 km/h (5 Bft)
01.01.2023 09:35 10,1 C 8,9 C 84 % 1018,0 hPa 0,0 l/m 20,9 km/h (4 Bft) S-SW 202 0 min 0,0 UV-I 16 W/m 7,5 C 3,1 C 33,8 km/h (5 Bft)
01.01.2023 09:36 10,1 C 8,9 C 84 % 1018,0 hPa 0,0 l/m 25,7 km/h (4 Bft) S-SW 202 0 min 0,0 UV-I 15 W/m 7,5 C 1,8 C 37,0 km/h (5 Bft)
01.01.2023 09:37 10,0 C 8,9 C 84 % 1018,0 hPa 0,0 l/m 19,3 km/h (3 Bft) S 180 0 min 0,0 UV-I 14 W/m 7,4 C 3,5 C 24,1 km/h (4 Bft)
01.01.2023 09:38 10,0 C 8,9 C 84 % 1018,1 hPa 0,0 l/m 24,1 km/h (4 Bft) S 180 0 min 0,0 UV-I 18 W/m 7,4 C 2,1 C 32,2 km/h (5 Bft)
01.01.2023 09:39 10,0 C 8,3 C 84 % 1018,0 hPa 0,0 l/m 27,4 km/h (4 Bft) S 180 0 min 0,0 UV-I 19 W/m 7,4 C 1,2 C 35,4 km/h (5 Bft)
01.01.2023 09:40 10,0 C 8,9 C 84 % 1018,2 hPa 0,0 l/m 29,0 km/h (5 Bft) S-SW 202 0 min 0,0 UV-I 19 W/m 7,4 C 0,9 C 40,2 km/h (6 Bft)
01.01.2023 09:41 10,0 C 8,9 C 84 % 1018,2 hPa 0,0 l/m 24,1 km/h (4 Bft) S 180 0 min 0,0 UV-I 18 W/m 7,4 C 2,1 C 35,4 km/h (5 Bft)
01.01.2023 09:42 9,9 C 8,3 C 84 % 1018,2 hPa 0,0 l/m 25,7 km/h (4 Bft) S 180 0 min 0,0 UV-I 15 W/m 7,3 C 1,5 C 35,4 km/h (5 Bft)
01.01.2023 09:43 9,9 C 8,3 C 84 % 1018,3 hPa 0,0 l/m 32,2 km/h (5 Bft) S-SW 202 0 min 0,0 UV-I 12 W/m 7,3 C 0,1 C 54,7 km/h (7 Bft)
01.01.2023 09:44 9,9 C 8,3 C 84 % 1018,2 hPa 0,0 l/m 22,5 km/h (4 Bft) S 180 0 min 0,0 UV-I 12 W/m 7,3 C 2,4 C 46,7 km/h (6 Bft)
01.01.2023 09:45 9,9 C 8,3 C 84 % 1018,2 hPa 0,0 l/m 25,7 km/h (4 Bft) S-SW 202 0 min 0,0 UV-I 16 W/m 7,3 C 1,5 C 32,2 km/h (5 Bft)
01.01.2023 09:46 9,9 C 8,3 C 84 % 1018,2 hPa 0,0 l/m 19,3 km/h (3 Bft) S 180 0 min 0,0 UV-I 19 W/m 7,3 C 3,4 C 30,6 km/h (5 Bft)
01.01.2023 09:47 9,9 C 8,3 C 84 % 1018,2 hPa 0,0 l/m 22,5 km/h (4 Bft) S 180 0 min 0,0 UV-I 26 W/m 7,3 C 2,4 C 32,2 km/h (5 Bft)
01.01.2023 09:48 9,9 C 8,3 C 84 % 1018,2 hPa 0,0 l/m 24,1 km/h (4 Bft) S 180 0 min 0,0 UV-I 33 W/m 7,3 C 1,9 C 45,1 km/h (6 Bft)
01.01.2023 09:49 9,9 C 8,3 C 84 % 1018,3 hPa 0,0 l/m 17,7 km/h (3 Bft) S-SW 202 0 min 0,0 UV-I 33 W/m 7,3 C 4,0 C 24,1 km/h (4 Bft)
01.01.2023 09:50 9,9 C 8,3 C 85 % 1018,3 hPa 0,0 l/m 14,5 km/h (3 Bft) S 180 0 min 0,0 UV-I 32 W/m 7,5 C 5,2 C 24,1 km/h (4 Bft)
01.01.2023 09:51 9,9 C 8,3 C 85 % 1018,3 hPa 0,0 l/m 16,1 km/h (3 Bft) S 180 0 min 0,0 UV-I 30 W/m 7,5 C 4,6 C 27,4 km/h (4 Bft)
01.01.2023 09:52 9,9 C 8,3 C 85 % 1018,3 hPa 0,0 l/m 17,7 km/h (3 Bft) S-SW 202 0 min 0,0 UV-I 28 W/m 7,5 C 4,0 C 25,7 km/h (4 Bft)
01.01.2023 09:53 9,9 C 8,3 C 85 % 1018,4 hPa 0,0 l/m 17,7 km/h (3 Bft) S 180 0 min 0,0 UV-I 30 W/m 7,5 C 4,0 C 24,1 km/h (4 Bft)
01.01.2023 09:54 9,9 C 8,3 C 85 % 1018,4 hPa 0,0 l/m 25,7 km/h (4 Bft) S-SW 202 0 min 0,0 UV-I 28 W/m 7,5 C 1,5 C 37,0 km/h (5 Bft)
01.01.2023 09:55 9,8 C 8,3 C 85 % 1018,3 hPa 0,0 l/m 22,5 km/h (4 Bft) S-SW 202 0 min 0,0 UV-I 28 W/m 7,4 C 2,3 C 37,0 km/h (5 Bft)
01.01.2023 09:56 9,8 C 8,3 C 85 % 1018,4 hPa 0,0 l/m 25,7 km/h (4 Bft) S-SW 202 0 min 0,0 UV-I 28 W/m 7,4 C 1,4 C 35,4 km/h (5 Bft)
01.01.2023 09:57 9,8 C 8,3 C 85 % 1018,4 hPa 0,0 l/m 20,9 km/h (4 Bft) S 180 0 min 0,0 UV-I 26 W/m 7,4 C 2,7 C 30,6 km/h (5 Bft)
01.01.2023 09:58 9,8 C 8,3 C 85 % 1018,3 hPa 0,0 l/m 19,3 km/h (3 Bft) S-SW 202 0 min 0,0 UV-I 23 W/m 7,4 C 3,3 C 27,4 km/h (4 Bft)
01.01.2023 09:59 9,8 C 8,3 C 85 % 1018,4 hPa 0,0 l/m 27,4 km/h (4 Bft) S 180 0 min 0,0 UV-I 18 W/m 7,4 C 1,0 C 37,0 km/h (5 Bft)
01.01.2023 10:00 9,8 C 8,3 C 85 % 1018,4 hPa 0,0 l/m 22,5 km/h (4 Bft) S 180 0 min 0,0 UV-I 14 W/m 7,4 C 2,3 C 29,0 km/h (5 Bft)
01.01.2023 10:01 9,8 C 8,3 C 85 % 1018,6 hPa 0,0 l/m 22,5 km/h (4 Bft) S-SW 202 0 min 0,0 UV-I 14 W/m 7,4 C 2,3 C 30,6 km/h (5 Bft)
01.01.2023 10:02 9,8 C 8,3 C 85 % 1018,5 hPa 0,0 l/m 19,3 km/h (3 Bft) S 180 0 min 0,0 UV-I 16 W/m 7,4 C 3,3 C 29,0 km/h (5 Bft)
01.01.2023 10:03 9,8 C 8,3 C 85 % 1018,5 hPa 0,0 l/m 22,5 km/h (4 Bft) S-SW 202 0 min 0,0 UV-I 16 W/m 7,4 C 2,3 C 38,6 km/h (5 Bft)
01.01.2023 10:04 9,8 C 8,3 C 85 % 1018,4 hPa 0,0 l/m 22,5 km/h (4 Bft) S-SW 202 0 min 0,0 UV-I 18 W/m 7,4 C 2,3 C 30,6 km/h (5 Bft)
01.01.2023 10:05 9,8 C 8,3 C 85 % 1018,4 hPa 0,0 l/m 19,3 km/h (3 Bft) S-SW 202 0 min 0,0 UV-I 19 W/m 7,4 C 3,3 C 27,4 km/h (4 Bft)
01.01.2023 10:06 9,8 C 8,3 C 85 % 1018,4 hPa 0,0 l/m 14,5 km/h (3 Bft) S-SW 202 0 min 0,0 UV-I 19 W/m 7,4 C 5,1 C 19,3 km/h (3 Bft)
01.01.2023 10:07 9,8 C 8,3 C 85 % 1018,4 hPa 0,0 l/m 16,1 km/h (3 Bft) S 180 0 min 0,0 UV-I 18 W/m 7,4 C 4,4 C 24,1 km/h (4 Bft)
01.01.2023 10:08 9,8 C 8,3 C 85 % 1018,5 hPa 0,0 l/m 17,7 km/h (3 Bft) S 180 0 min 0,0 UV-I 14 W/m 7,4 C 3,8 C 29,0 km/h (5 Bft)
01.01.2023 10:09 9,8 C 8,3 C 85 % 1018,5 hPa 0,0 l/m 20,9 km/h (4 Bft) S-SW 202 0 min 0,0 UV-I 12 W/m 7,4 C 2,7 C 29,0 km/h (5 Bft)
01.01.2023 10:10 9,8 C 8,3 C 85 % 1018,6 hPa 0,0 l/m 20,9 km/h (4 Bft) S 180 0 min 0,0 UV-I 12 W/m 7,4 C 2,7 C 29,0 km/h (5 Bft)
01.01.2023 10:11 9,8 C 8,3 C 85 % 1018,6 hPa 0,0 l/m 20,9 km/h (4 Bft) S 180 0 min 0,0 UV-I 15 W/m 7,4 C 2,7 C 29,0 km/h (5 Bft)
01.01.2023 10:12 9,8 C 8,3 C 85 % 1018,5 hPa 0,0 l/m 19,3 km/h (3 Bft) S-SW 202 0 min 0,0 UV-I 16 W/m 7,4 C 3,3 C 24,1 km/h (4 Bft)
01.01.2023 10:13 9,8 C 8,9 C 85 % 1018,4 hPa 0,0 l/m 19,3 km/h (3 Bft) S-SW 202 0 min 0,0 UV-I 16 W/m 7,4 C 3,3 C 27,4 km/h (4 Bft)
01.01.2023 10:14 9,8 C 8,9 C 85 % 1018,5 hPa 0,0 l/m 19,3 km/h (3 Bft) S 180 0 min 0,0 UV-I 18 W/m 7,4 C 3,3 C 25,7 km/h (4 Bft)
01.01.2023 10:15 9,8 C 8,9 C 85 % 1018,5 hPa 0,0 l/m 20,9 km/h (4 Bft) S-SW 202 0 min 0,0 UV-I 18 W/m 7,4 C 2,7 C 27,4 km/h (4 Bft)
01.01.2023 10:16 9,7 C 8,9 C 85 % 1018,5 hPa 0,0 l/m 22,5 km/h (4 Bft) S 180 0 min 0,0 UV-I 16 W/m 7,3 C 2,1 C 29,0 km/h (5 Bft)
01.01.2023 10:17 9,8 C 8,9 C 85 % 1018,5 hPa 0,0 l/m 19,3 km/h (3 Bft) S-SW 202 0 min 0,0 UV-I 17 W/m 7,4 C 3,3 C 32,2 km/h (5 Bft)
01.01.2023 10:18 9,8 C 8,9 C 85 % 1018,5 hPa 0,0 l/m 17,7 km/h (3 Bft) S 180 0 min 0,0 UV-I 19 W/m 7,4 C 3,8 C 30,6 km/h (5 Bft)
01.01.2023 10:19 9,8 C 8,9 C 85 % 1018,5 hPa 0,0 l/m 22,5 km/h (4 Bft) S-SW 202 0 min 0,0 UV-I 19 W/m 7,4 C 2,3 C 29,0 km/h (5 Bft)
01.01.2023 10:20 9,8 C 8,9 C 85 % 1018,6 hPa 0,0 l/m 19,3 km/h (3 Bft) S-SW 202 0 min 0,0 UV-I 18 W/m 7,4 C 3,3 C 29,0 km/h (5 Bft)
01.01.2023 10:21 9,8 C 8,9 C 85 % 1018,5 hPa 0,0 l/m 17,7 km/h (3 Bft) S 180 0 min 0,0 UV-I 16 W/m 7,4 C 3,8 C 24,1 km/h (4 Bft)
01.01.2023 10:22 9,8 C 8,9 C 85 % 1018,5 hPa 0,0 l/m 16,1 km/h (3 Bft) S-SW 202 0 min 0,0 UV-I 18 W/m 7,4 C 4,4 C 22,5 km/h (4 Bft)
01.01.2023 10:23 9,8 C 8,9 C 85 % 1018,5 hPa 0,0 l/m 17,7 km/h (3 Bft) S 180 0 min 0,0 UV-I 20 W/m 7,4 C 3,8 C 22,5 km/h (4 Bft)
01.01.2023 10:24 9,8 C 8,9 C 85 % 1018,5 hPa 0,0 l/m 16,1 km/h (3 Bft) S-SW 202 0 min 0,0 UV-I 25 W/m 7,4 C 4,4 C 20,9 km/h (4 Bft)
01.01.2023 10:25 9,8 C 8,9 C 85 % 1018,5 hPa 0,0 l/m 19,3 km/h (3 Bft) S-SW 202 0 min 0,0 UV-I 25 W/m 7,4 C 3,3 C 25,7 km/h (4 Bft)
01.01.2023 10:26 9,8 C 8,9 C 85 % 1018,5 hPa 0,0 l/m 17,7 km/h (3 Bft) S-SW 202 0 min 0,0 UV-I 25 W/m 7,4 C 3,8 C 22,5 km/h (4 Bft)
01.01.2023 10:27 9,8 C 8,9 C 85 % 1018,5 hPa 0,0 l/m 20,9 km/h (4 Bft) S-SW 202 0 min 0,0 UV-I 25 W/m 7,4 C 2,7 C 27,4 km/h (4 Bft)
01.01.2023 10:28 9,8 C 8,9 C 85 % 1018,6 hPa 0,0 l/m 25,7 km/h (4 Bft) S 180 0 min 0,0 UV-I 27 W/m 7,4 C 1,4 C 37,0 km/h (5 Bft)
01.01.2023 10:29 9,8 C 8,9 C 85 % 1018,5 hPa 0,0 l/m 20,9 km/h (4 Bft) S 180 0 min 0,0 UV-I 33 W/m 7,4 C 2,7 C 32,2 km/h (5 Bft)
01.01.2023 10:30 9,8 C 8,9 C 85 % 1018,6 hPa 0,0 l/m 20,9 km/h (4 Bft) S-SW 202 0 min 0,0 UV-I 40 W/m 7,4 C 2,7 C 27,4 km/h (4 Bft)
01.01.2023 10:31 9,8 C 8,9 C 85 % 1018,5 hPa 0,0 l/m 19,3 km/h (3 Bft) S-SW 202 0 min 0,0 UV-I 47 W/m 7,4 C 3,3 C 25,7 km/h (4 Bft)
01.01.2023 10:32 9,8 C 8,9 C 85 % 1018,4 hPa 0,0 l/m 17,7 km/h (3 Bft) S-SW 202 0 min 0,0 UV-I 47 W/m 7,4 C 3,8 C 25,7 km/h (4 Bft)
01.01.2023 10:33 9,8 C 8,9 C 85 % 1018,4 hPa 0,0 l/m 20,9 km/h (4 Bft) S-SW 202 0 min 0,0 UV-I 44 W/m 7,4 C 2,7 C 27,4 km/h (4 Bft)
01.01.2023 10:34 9,8 C 8,9 C 85 % 1018,6 hPa 0,0 l/m 16,1 km/h (3 Bft) S 180 0 min 0,0 UV-I 35 W/m 7,4 C 4,4 C 24,1 km/h (4 Bft)
01.01.2023 10:35 9,8 C 8,9 C 85 % 1018,6 hPa 0,0 l/m 17,7 km/h (3 Bft) S-SW 202 0 min 0,0 UV-I 33 W/m 7,4 C 3,8 C 25,7 km/h (4 Bft)
01.01.2023 10:36 9,8 C 8,9 C 85 % 1018,7 hPa 0,0 l/m 24,1 km/h (4 Bft) S-SW 202 0 min 0,0 UV-I 32 W/m 7,4 C 1,8 C 30,6 km/h (5 Bft)
01.01.2023 10:37 9,8 C 8,9 C 85 % 1018,6 hPa 0,0 l/m 20,9 km/h (4 Bft) S-SW 202 0 min 0,0 UV-I 30 W/m 7,4 C 2,7 C 30,6 km/h (5 Bft)
01.01.2023 10:38 9,8 C 8,9 C 85 % 1018,7 hPa 0,0 l/m 22,5 km/h (4 Bft) S 180 0 min 0,0 UV-I 30 W/m 7,4 C 2,3 C 35,4 km/h (5 Bft)
01.01.2023 10:39 9,9 C 8,9 C 85 % 1018,7 hPa 0,0 l/m 16,1 km/h (3 Bft) S-SW 202 0 min 0,0 UV-I 32 W/m 7,5 C 4,6 C 20,9 km/h (4 Bft)
01.01.2023 10:40 9,9 C 8,9 C 85 % 1018,6 hPa 0,0 l/m 17,7 km/h (3 Bft) S-SW 202 0 min 0,0 UV-I 33 W/m 7,5 C 4,0 C 25,7 km/h (4 Bft)
01.01.2023 10:41 9,9 C 8,9 C 85 % 1018,6 hPa 0,0 l/m 16,1 km/h (3 Bft) S-SW 202 0 min 0,0 UV-I 33 W/m 7,5 C 4,6 C 22,5 km/h (4 Bft)
01.01.2023 10:42 9,8 C 8,9 C 85 % 1018,6 hPa 0,0 l/m 20,9 km/h (4 Bft) S-SW 202 0 min 0,0 UV-I 35 W/m 7,4 C 2,7 C 27,4 km/h (4 Bft)
01.01.2023 10:43 9,9 C 8,9 C 85 % 1018,7 hPa 0,0 l/m 22,5 km/h (4 Bft) S 180 0 min 0,0 UV-I 35 W/m 7,5 C 2,4 C 30,6 km/h (5 Bft)
01.01.2023 10:44 9,9 C 8,9 C 84 % 1018,7 hPa 0,0 l/m 20,9 km/h (4 Bft) S-SW 202 0 min 0,0 UV-I 37 W/m 7,3 C 2,9 C 30,6 km/h (5 Bft)
01.01.2023 10:45 9,9 C 8,9 C 84 % 1018,7 hPa 0,0 l/m 27,4 km/h (4 Bft) S-SW 202 0 min 0,0 UV-I 40 W/m 7,3 C 1,1 C 37,0 km/h (5 Bft)
01.01.2023 10:46 9,9 C 8,9 C 84 % 1018,7 hPa 0,0 l/m 27,4 km/h (4 Bft) S-SW 202 0 min 0,0 UV-I 39 W/m 7,3 C 1,1 C 37,0 km/h (5 Bft)
01.01.2023 10:47 9,9 C 8,9 C 84 % 1018,7 hPa 0,0 l/m 22,5 km/h (4 Bft) S-SW 202 0 min 0,0 UV-I 35 W/m 7,3 C 2,4 C 33,8 km/h (5 Bft)
01.01.2023 10:48 9,9 C 8,9 C 84 % 1018,9 hPa 0,0 l/m 24,1 km/h (4 Bft) S-SW 202 0 min 0,0 UV-I 33 W/m 7,3 C 1,9 C 35,4 km/h (5 Bft)
01.01.2023 10:49 9,9 C 8,9 C 84 % 1018,8 hPa 0,0 l/m 16,1 km/h (3 Bft) S 180 0 min 0,0 UV-I 35 W/m 7,3 C 4,6 C 24,1 km/h (4 Bft)
01.01.2023 10:50 9,9 C 8,9 C 84 % 1018,8 hPa 0,0 l/m 20,9 km/h (4 Bft) S-SW 202 0 min 0,0 UV-I 39 W/m 7,3 C 2,9 C 25,7 km/h (4 Bft)
01.01.2023 10:51 9,9 C 8,9 C 84 % 1018,8 hPa 0,0 l/m 14,5 km/h (3 Bft) S-SW 202 0 min 0,0 UV-I 44 W/m 7,3 C 5,2 C 25,7 km/h (4 Bft)
01.01.2023 10:52 10,0 C 8,9 C 84 % 1018,8 hPa 0,0 l/m 16,1 km/h (3 Bft) S-SW 202 0 min 0,0 UV-I 47 W/m 7,4 C 4,7 C 20,9 km/h (4 Bft)
01.01.2023 10:53 10,0 C 8,9 C 84 % 1018,9 hPa 0,0 l/m 19,3 km/h (3 Bft) S 180 0 min 0,0 UV-I 47 W/m 7,4 C 3,5 C 25,7 km/h (4 Bft)
01.01.2023 10:54 9,9 C 8,9 C 84 % 1018,9 hPa 0,0 l/m 14,5 km/h (3 Bft) S 180 0 min 0,0 UV-I 54 W/m 7,3 C 5,2 C 19,3 km/h (3 Bft)
01.01.2023 10:55 9,9 C 8,9 C 84 % 1018,7 hPa 0,0 l/m 20,9 km/h (4 Bft) S-SW 202 0 min 0,0 UV-I 60 W/m 7,3 C 2,9 C 25,7 km/h (4 Bft)
01.01.2023 10:56 10,0 C 8,9 C 84 % 1018,8 hPa 0,0 l/m 17,7 km/h (3 Bft) S 180 0 min 0,0 UV-I 56 W/m 7,4 C 4,1 C 24,1 km/h (4 Bft)
01.01.2023 10:57 9,9 C 8,9 C 84 % 1018,8 hPa 0,0 l/m 20,9 km/h (4 Bft) S 180 0 min 0,0 UV-I 51 W/m 7,3 C 2,9 C 33,8 km/h (5 Bft)
01.01.2023 10:58 10,0 C 8,9 C 84 % 1018,8 hPa 0,0 l/m 22,5 km/h (4 Bft) S 180 0 min 0,0 UV-I 43 W/m 7,4 C 2,5 C 30,6 km/h (5 Bft)
01.01.2023 10:59 9,9 C 8,9 C 84 % 1018,8 hPa 0,0 l/m 22,5 km/h (4 Bft) S-SW 202 0 min 0,0 UV-I 35 W/m 7,3 C 2,4 C 35,4 km/h (5 Bft)
01.01.2023 11:00 10,0 C 8,9 C 84 % 1018,9 hPa 0,0 l/m 22,5 km/h (4 Bft) S 180 0 min 0,0 UV-I 32 W/m 7,4 C 2,5 C 33,8 km/h (5 Bft)
01.01.2023 11:01 9,9 C 8,9 C 84 % 1018,9 hPa 0,0 l/m 19,3 km/h (3 Bft) S 180 0 min 0,0 UV-I 30 W/m 7,3 C 3,4 C 25,7 km/h (4 Bft)
01.01.2023 11:02 10,0 C 8,9 C 84 % 1019,0 hPa 0,0 l/m 20,9 km/h (4 Bft) S 180 0 min 0,0 UV-I 28 W/m 7,4 C 3,0 C 37,0 km/h (5 Bft)
01.01.2023 11:03 10,0 C 8,9 C 84 % 1018,9 hPa 0,0 l/m 17,7 km/h (3 Bft) S 180 0 min 0,0 UV-I 28 W/m 7,4 C 4,1 C 22,5 km/h (4 Bft)
01.01.2023 11:06 9,9 C 8,9 C 84 % 1018,9 hPa 0,0 l/m 26,1 km/h (4 Bft) S 180 0 min 0,0 UV-I 31 W/m 7,3 C 1,4 C 35,4 km/h (5 Bft)
01.01.2023 11:09 9,9 C 8,9 C 84 % 1018,8 hPa 0,0 l/m 19,7 km/h (3 Bft) S-SO 163 0 min 0,0 UV-I 33 W/m 7,3 C 3,3 C 32,2 km/h (5 Bft)
01.01.2023 11:12 9,9 C 8,9 C 84 % 1018,9 hPa 0,0 l/m 24,9 km/h (4 Bft) SW 217 0 min 0,0 UV-I 34 W/m 7,3 C 1,7 C 43,5 km/h (6 Bft)
01.01.2023 11:15 9,9 C 8,9 C 84 % 1018,9 hPa 0,0 l/m 22,8 km/h (4 Bft) S 182 0 min 0,0 UV-I 32 W/m 7,3 C 2,3 C 35,4 km/h (5 Bft)
01.01.2023 11:18 9,9 C 8,9 C 84 % 1018,8 hPa 0,0 l/m 25,1 km/h (4 Bft) S-SO 158 0 min 0,0 UV-I 30 W/m 7,3 C 1,7 C 38,6 km/h (5 Bft)
01.01.2023 11:21 9,9 C 8,9 C 84 % 1018,9 hPa 0,0 l/m 25,2 km/h (4 Bft) S-SO 166 0 min 0,0 UV-I 34 W/m 7,3 C 1,6 C 33,8 km/h (5 Bft)
01.01.2023 11:24 9,9 C 8,9 C 84 % 1018,8 hPa 0,0 l/m 23,6 km/h (4 Bft) S-SW 194 0 min 0,0 UV-I 29 W/m 7,3 C 2,1 C 40,2 km/h (6 Bft)
01.01.2023 11:27 10,0 C 8,9 C 84 % 1018,7 hPa 0,0 l/m 23,2 km/h (4 Bft) S 173 0 min 0,0 UV-I 36 W/m 7,4 C 2,3 C 37,0 km/h (5 Bft)
01.01.2023 11:30 10,0 C 8,9 C 83 % 1018,7 hPa 0,0 l/m 21,1 km/h (4 Bft) S 185 0 min 0,0 UV-I 38 W/m 7,2 C 2,9 C 38,6 km/h (5 Bft)
01.01.2023 11:33 10,0 C 8,9 C 83 % 1018,6 hPa 0,0 l/m 19,2 km/h (3 Bft) S-SW 192 0 min 0,0 UV-I 39 W/m 7,2 C 3,6 C 30,6 km/h (5 Bft)
01.01.2023 11:36 10,0 C 8,9 C 83 % 1018,5 hPa 0,0 l/m 22,7 km/h (4 Bft) S 175 0 min 0,0 UV-I 56 W/m 7,2 C 2,5 C 33,8 km/h (5 Bft)
01.01.2023 11:39 10,0 C 9,4 C 83 % 1018,4 hPa 0,0 l/m 20,8 km/h (4 Bft) S-SW 211 0 min 0,0 UV-I 64 W/m 7,2 C 3,0 C 32,2 km/h (5 Bft)
01.01.2023 11:42 10,1 C 9,4 C 83 % 1018,6 hPa 0,0 l/m 20,5 km/h (4 Bft) S 170 0 min 0,0 UV-I 78 W/m 7,3 C 3,3 C 30,6 km/h (5 Bft)
01.01.2023 11:45 10,1 C 9,4 C 83 % 1018,4 hPa 0,0 l/m 19,5 km/h (3 Bft) S 184 0 min 0,0 UV-I 74 W/m 7,3 C 3,6 C 32,2 km/h (5 Bft)
01.01.2023 11:48 10,1 C 9,4 C 83 % 1018,4 hPa 0,0 l/m 21,6 km/h (4 Bft) S 175 0 min 0,0 UV-I 68 W/m 7,3 C 2,9 C 35,4 km/h (5 Bft)
01.01.2023 11:51 10,1 C 10,0 C 82 % 1018,5 hPa 0,0 l/m 23,1 km/h (4 Bft) S-SO 167 0 min 0,0 UV-I 63 W/m 7,2 C 2,5 C 35,4 km/h (5 Bft)
01.01.2023 11:54 10,2 C 9,4 C 82 % 1018,5 hPa 0,0 l/m 24,5 km/h (4 Bft) S 190 0 min 0,0 UV-I 54 W/m 7,3 C 2,2 C 37,0 km/h (5 Bft)
01.01.2023 11:57 10,2 C 9,4 C 82 % 1018,4 hPa 0,0 l/m 17,3 km/h (3 Bft) S 173 0 min 0,0 UV-I 54 W/m 7,3 C 4,5 C 32,2 km/h (5 Bft)
01.01.2023 12:00 10,2 C 9,4 C 82 % 1018,3 hPa 0,0 l/m 25,0 km/h (4 Bft) S-SW 192 0 min 0,0 UV-I 49 W/m 7,3 C 2,1 C 41,8 km/h (6 Bft)
01.01.2023 12:03 10,2 C 9,4 C 82 % 1018,3 hPa 0,0 l/m 29,2 km/h (5 Bft) S 169 0 min 0,0 UV-I 50 W/m 7,3 C 1,1 C 46,7 km/h (6 Bft)
01.01.2023 12:06 10,2 C 10,0 C 82 % 1018,3 hPa 0,0 l/m 23,3 km/h (4 Bft) S-SW 192 0 min 0,0 UV-I 60 W/m 7,3 C 2,6 C 38,6 km/h (5 Bft)
01.01.2023 12:09 10,2 C 10,0 C 81 % 1018,3 hPa 0,0 l/m 21,3 km/h (4 Bft) SW 215 0 min 0,0 UV-I 63 W/m 7,1 C 3,1 C 30,6 km/h (5 Bft)
01.01.2023 12:12 10,2 C 10,0 C 81 % 1018,3 hPa 0,0 l/m 27,6 km/h (4 Bft) S 173 0 min 0,0 UV-I 81 W/m 7,1 C 1,5 C 40,2 km/h (6 Bft)
01.01.2023 12:15 10,2 C 10,0 C 81 % 1018,3 hPa 0,0 l/m 22,2 km/h (4 Bft) S-SW 213 0 min 0,0 UV-I 71 W/m 7,1 C 2,9 C 33,8 km/h (5 Bft)
01.01.2023 12:18 10,3 C 10,0 C 81 % 1018,4 hPa 0,0 l/m 22,1 km/h (4 Bft) S-SW 212 0 min 0,0 UV-I 75 W/m 7,2 C 3,0 C 32,2 km/h (5 Bft)
01.01.2023 12:21 10,3 C 10,0 C 81 % 1018,5 hPa 0,0 l/m 22,1 km/h (4 Bft) SW 224 0 min 0,0 UV-I 69 W/m 7,2 C 3,0 C 35,4 km/h (5 Bft)
01.01.2023 12:24 10,3 C 10,0 C 81 % 1018,6 hPa 0,0 l/m 23,1 km/h (4 Bft) S 190 0 min 0,0 UV-I 58 W/m 7,2 C 2,7 C 40,2 km/h (6 Bft)
01.01.2023 12:27 10,3 C 10,0 C 81 % 1018,7 hPa 0,0 l/m 21,1 km/h (4 Bft) S-SW 212 0 min 0,0 UV-I 44 W/m 7,2 C 3,3 C 32,2 km/h (5 Bft)
01.01.2023 12:30 10,3 C 9,4 C 81 % 1018,7 hPa 0,0 l/m 24,5 km/h (4 Bft) SW 223 0 min 0,0 UV-I 36 W/m 7,2 C 2,4 C 33,8 km/h (5 Bft)
01.01.2023 12:33 10,3 C 9,4 C 81 % 1018,7 hPa 0,0 l/m 25,1 km/h (4 Bft) S-SW 194 0 min 0,0 UV-I 36 W/m 7,2 C 2,2 C 37,0 km/h (5 Bft)
01.01.2023 12:36 10,3 C 9,4 C 81 % 1018,8 hPa 0,0 l/m 21,5 km/h (4 Bft) S-SW 203 0 min 0,0 UV-I 35 W/m 7,2 C 3,2 C 32,2 km/h (5 Bft)
01.01.2023 12:39 10,2 C 9,4 C 81 % 1018,9 hPa 0,0 l/m 17,3 km/h (3 Bft) S-SW 198 0 min 0,0 UV-I 32 W/m 7,1 C 4,5 C 22,5 km/h (4 Bft)
01.01.2023 12:42 10,2 C 9,4 C 81 % 1018,8 hPa 0,0 l/m 18,2 km/h (3 Bft) S-SW 201 0 min 0,0 UV-I 31 W/m 7,1 C 4,2 C 29,0 km/h (5 Bft)
01.01.2023 12:45 10,2 C 9,4 C 81 % 1018,8 hPa 0,0 l/m 19,0 km/h (3 Bft) S 190 0 min 0,0 UV-I 32 W/m 7,1 C 3,9 C 30,6 km/h (5 Bft)
01.01.2023 12:48 10,2 C 9,4 C 81 % 1018,8 hPa 0,0 l/m 17,8 km/h (3 Bft) S-SO 167 0 min 0,0 UV-I 33 W/m 7,1 C 4,3 C 30,6 km/h (5 Bft)
01.01.2023 12:51 10,2 C 9,4 C 81 % 1018,8 hPa 0,0 l/m 18,1 km/h (3 Bft) S-SW 201 0 min 0,0 UV-I 35 W/m 7,1 C 4,2 C 33,8 km/h (5 Bft)
01.01.2023 12:54 10,2 C 9,4 C 81 % 1018,8 hPa 0,0 l/m 17,0 km/h (3 Bft) SW 214 0 min 0,0 UV-I 41 W/m 7,1 C 4,6 C 24,1 km/h (4 Bft)
01.01.2023 12:57 10,3 C 9,4 C 81 % 1018,7 hPa 0,0 l/m 18,1 km/h (3 Bft) S-SW 204 0 min 0,0 UV-I 46 W/m 7,2 C 4,3 C 25,7 km/h (4 Bft)
01.01.2023 13:00 10,2 C 9,4 C 81 % 1018,7 hPa 0,0 l/m 17,7 km/h (3 Bft) S 187 0 min 0,0 UV-I 40 W/m 7,1 C 4,3 C 27,4 km/h (4 Bft)
01.01.2023 13:03 10,2 C 9,4 C 80 % 1018,7 hPa 0,0 l/m 20,6 km/h (4 Bft) S-SO 164 0 min 0,0 UV-I 38 W/m 6,9 C 3,4 C 29,0 km/h (5 Bft)
01.01.2023 13:06 10,2 C 9,4 C 80 % 1018,6 hPa 0,0 l/m 16,9 km/h (3 Bft) S 175 0 min 0,0 UV-I 33 W/m 6,9 C 4,6 C 24,1 km/h (4 Bft)
01.01.2023 13:09 10,2 C 9,4 C 80 % 1018,6 hPa 0,0 l/m 16,9 km/h (3 Bft) S 178 0 min 0,0 UV-I 31 W/m 6,9 C 4,6 C 27,4 km/h (4 Bft)
01.01.2023 13:12 10,2 C 9,4 C 80 % 1018,6 hPa 0,0 l/m 16,0 km/h (3 Bft) S 189 0 min 0,0 UV-I 32 W/m 6,9 C 5,0 C 32,2 km/h (5 Bft)
01.01.2023 13:15 10,2 C 9,4 C 80 % 1018,5 hPa 0,0 l/m 16,8 km/h (3 Bft) S-SW 198 0 min 0,0 UV-I 38 W/m 6,9 C 4,7 C 30,6 km/h (5 Bft)
01.01.2023 13:18 10,2 C 9,4 C 80 % 1018,4 hPa 0,0 l/m 18,7 km/h (3 Bft) S 180 0 min 0,0 UV-I 42 W/m 6,9 C 4,0 C 32,2 km/h (5 Bft)
01.01.2023 13:21 10,2 C 10,0 C 80 % 1018,2 hPa 0,0 l/m 18,0 km/h (3 Bft) S-SO 160 0 min 0,0 UV-I 51 W/m 6,9 C 4,2 C 29,0 km/h (5 Bft)
01.01.2023 13:24 10,3 C 10,0 C 80 % 1018,2 hPa 0,0 l/m 19,2 km/h (3 Bft) S-SW 197 0 min 0,0 UV-I 61 W/m 7,0 C 3,9 C 32,2 km/h (5 Bft)
01.01.2023 13:27 10,3 C 10,0 C 80 % 1018,2 hPa 0,0 l/m 17,0 km/h (3 Bft) S 181 0 min 0,0 UV-I 68 W/m 7,0 C 4,7 C 27,4 km/h (4 Bft)
01.01.2023 13:30 10,3 C 10,0 C 80 % 1018,0 hPa 0,0 l/m 16,4 km/h (3 Bft) S 173 0 min 0,0 UV-I 62 W/m 7,0 C 4,9 C 30,6 km/h (5 Bft)
01.01.2023 13:33 10,3 C 10,0 C 80 % 1018,0 hPa 0,0 l/m 17,2 km/h (3 Bft) S 188 0 min 0,0 UV-I 62 W/m 7,0 C 4,6 C 30,6 km/h (5 Bft)
01.01.2023 13:36 10,4 C 10,0 C 79 % 1017,9 hPa 0,0 l/m 20,6 km/h (4 Bft) S 190 0 min 0,0 UV-I 63 W/m 6,9 C 3,6 C 41,8 km/h (6 Bft)
01.01.2023 13:39 10,4 C 10,0 C 79 % 1017,9 hPa 0,0 l/m 18,3 km/h (3 Bft) S-SW 199 0 min 0,0 UV-I 64 W/m 6,9 C 4,4 C 29,0 km/h (5 Bft)
01.01.2023 13:42 10,4 C 10,0 C 79 % 1017,9 hPa 0,0 l/m 23,2 km/h (4 Bft) S 171 0 min 0,0 UV-I 73 W/m 6,9 C 2,9 C 38,6 km/h (5 Bft)
01.01.2023 13:45 10,5 C 10,6 C 79 % 1017,9 hPa 0,0 l/m 19,0 km/h (3 Bft) S-SW 200 0 min 0,0 UV-I 93 W/m 7,0 C 4,3 C 33,8 km/h (5 Bft)
01.01.2023 13:48 10,5 C 10,6 C 79 % 1018,0 hPa 0,0 l/m 17,4 km/h (3 Bft) S 169 0 min 0,1 UV-I 106 W/m 7,0 C 4,8 C 29,0 km/h (5 Bft)
01.01.2023 13:51 10,6 C 10,6 C 78 % 1018,0 hPa 0,0 l/m 18,6 km/h (3 Bft) S 181 0 min 0,5 UV-I 106 W/m 6,9 C 4,5 C 38,6 km/h (5 Bft)
01.01.2023 13:54 10,6 C 10,6 C 78 % 1018,0 hPa 0,0 l/m 18,4 km/h (3 Bft) S 188 0 min 0,1 UV-I 97 W/m 6,9 C 4,6 C 30,6 km/h (5 Bft)
01.01.2023 13:57 10,6 C 10,6 C 79 % 1018,0 hPa 0,0 l/m 18,1 km/h (3 Bft) S 188 0 min 0,0 UV-I 93 W/m 7,1 C 4,7 C 29,0 km/h (5 Bft)
01.01.2023 14:00 10,6 C 10,6 C 78 % 1018,0 hPa 0,0 l/m 19,3 km/h (3 Bft) S 182 0 min 0,0 UV-I 83 W/m 6,9 C 4,3 C 32,2 km/h (5 Bft)
01.01.2023 14:03 10,6 C 10,6 C 79 % 1018,1 hPa 0,0 l/m 17,4 km/h (3 Bft) S-SW 192 0 min 0,0 UV-I 78 W/m 7,1 C 4,9 C 25,7 km/h (4 Bft)
01.01.2023 14:06 10,6 C 10,6 C 79 % 1018,0 hPa 0,0 l/m 19,1 km/h (3 Bft) S 189 0 min 0,0 UV-I 73 W/m 7,1 C 4,4 C 30,6 km/h (5 Bft)
01.01.2023 14:09 10,6 C 10,6 C 78 % 1018,1 hPa 0,0 l/m 20,4 km/h (4 Bft) S-SW 198 0 min 0,0 UV-I 71 W/m 6,9 C 3,9 C 30,6 km/h (5 Bft)
01.01.2023 14:12 10,7 C 10,0 C 78 % 1018,2 hPa 0,0 l/m 17,0 km/h (3 Bft) S 183 0 min 0,0 UV-I 64 W/m 7,0 C 5,2 C 35,4 km/h (5 Bft)
01.01.2023 14:15 10,6 C 10,6 C 79 % 1018,1 hPa 0,0 l/m 16,2 km/h (3 Bft) S 175 0 min 0,0 UV-I 63 W/m 7,1 C 5,4 C 29,0 km/h (5 Bft)
01.01.2023 14:18 10,6 C 10,6 C 79 % 1018,0 hPa 0,0 l/m 14,9 km/h (3 Bft) S-SW 196 0 min 0,0 UV-I 63 W/m 7,1 C 5,9 C 22,5 km/h (4 Bft)
01.01.2023 14:21 10,6 C 10,6 C 79 % 1018,2 hPa 0,0 l/m 16,2 km/h (3 Bft) S-SW 198 0 min 0,0 UV-I 64 W/m 7,1 C 5,4 C 27,4 km/h (4 Bft)
01.01.2023 14:24 10,7 C 10,6 C 79 % 1018,0 hPa 0,0 l/m 16,5 km/h (3 Bft) S-SW 202 0 min 0,0 UV-I 67 W/m 7,2 C 5,4 C 27,4 km/h (4 Bft)
01.01.2023 14:27 10,7 C 10,6 C 79 % 1018,0 hPa 0,0 l/m 14,8 km/h (3 Bft) S-SW 193 0 min 0,0 UV-I 71 W/m 7,2 C 6,1 C 24,1 km/h (4 Bft)
01.01.2023 14:30 10,6 C 10,6 C 79 % 1017,9 hPa 0,0 l/m 17,7 km/h (3 Bft) S 180 0 min 0,0 UV-I 73 W/m 7,1 C 4,8 C 30,6 km/h (5 Bft)
01.01.2023 14:33 10,6 C 10,0 C 79 % 1018,0 hPa 0,0 l/m 16,5 km/h (3 Bft) S 175 0 min 0,0 UV-I 74 W/m 7,1 C 5,3 C 27,4 km/h (4 Bft)
01.01.2023 14:36 10,6 C 10,6 C 79 % 1018,0 hPa 0,0 l/m 14,8 km/h (3 Bft) S 179 0 min 0,0 UV-I 78 W/m 7,1 C 5,9 C 27,4 km/h (4 Bft)
01.01.2023 14:39 10,6 C 10,6 C 79 % 1017,9 hPa 0,0 l/m 15,9 km/h (3 Bft) S 186 0 min 0,0 UV-I 85 W/m 7,1 C 5,5 C 27,4 km/h (4 Bft)
01.01.2023 14:42 10,7 C 10,6 C 79 % 1018,0 hPa 0,0 l/m 14,4 km/h (3 Bft) S-SO 168 0 min 0,0 UV-I 90 W/m 7,2 C 6,2 C 25,7 km/h (4 Bft)
01.01.2023 14:45 10,7 C 10,6 C 79 % 1018,0 hPa 0,0 l/m 18,0 km/h (3 Bft) SW 218 0 min 0,0 UV-I 85 W/m 7,2 C 4,9 C 27,4 km/h (4 Bft)
01.01.2023 14:48 10,7 C 10,6 C 79 % 1018,1 hPa 0,0 l/m 16,2 km/h (3 Bft) S-SW 203 0 min 0,0 UV-I 79 W/m 7,2 C 5,5 C 22,5 km/h (4 Bft)
01.01.2023 14:51 10,7 C 10,6 C 79 % 1018,2 hPa 0,0 l/m 19,0 km/h (3 Bft) S 178 0 min 0,0 UV-I 74 W/m 7,2 C 4,5 C 30,6 km/h (5 Bft)
01.01.2023 14:54 10,7 C 10,0 C 79 % 1018,2 hPa 0,0 l/m 13,4 km/h (3 Bft) SW 225 0 min 0,0 UV-I 67 W/m 7,2 C 6,7 C 20,9 km/h (4 Bft)
01.01.2023 14:57 10,7 C 10,6 C 79 % 1018,0 hPa 0,0 l/m 16,3 km/h (3 Bft) S-SW 200 0 min 0,0 UV-I 62 W/m 7,2 C 5,5 C 35,4 km/h (5 Bft)
01.01.2023 15:00 10,7 C 10,6 C 79 % 1018,1 hPa 0,0 l/m 15,3 km/h (3 Bft) S-SO 168 0 min 0,0 UV-I 60 W/m 7,2 C 5,9 C 25,7 km/h (4 Bft)
01.01.2023 15:03 10,7 C 10,6 C 79 % 1018,1 hPa 0,0 l/m 13,9 km/h (3 Bft) S 191 0 min 0,0 UV-I 55 W/m 7,2 C 6,4 C 22,5 km/h (4 Bft)
01.01.2023 15:06 10,7 C 10,6 C 79 % 1018,2 hPa 0,0 l/m 13,3 km/h (3 Bft) S 175 0 min 0,0 UV-I 53 W/m 7,2 C 6,7 C 27,4 km/h (4 Bft)
01.01.2023 15:09 10,7 C 10,6 C 79 % 1018,2 hPa 0,0 l/m 17,2 km/h (3 Bft) S 169 0 min 0,0 UV-I 49 W/m 7,2 C 5,1 C 33,8 km/h (5 Bft)
01.01.2023 15:12 10,7 C 10,0 C 79 % 1018,2 hPa 0,0 l/m 14,9 km/h (3 Bft) S-SO 167 0 min 0,0 UV-I 45 W/m 7,2 C 6,0 C 22,5 km/h (4 Bft)
01.01.2023 15:15 10,7 C 10,0 C 79 % 1018,2 hPa 0,0 l/m 15,7 km/h (3 Bft) S-SW 204 0 min 0,0 UV-I 39 W/m 7,2 C 5,7 C 25,7 km/h (4 Bft)
01.01.2023 15:18 10,7 C 10,0 C 79 % 1018,3 hPa 0,0 l/m 12,9 km/h (3 Bft) S-SW 196 0 min 0,0 UV-I 32 W/m 7,2 C 6,9 C 24,1 km/h (4 Bft)
01.01.2023 15:21 10,6 C 10,0 C 80 % 1018,3 hPa 0,0 l/m 16,7 km/h (3 Bft) S 179 0 min 0,0 UV-I 24 W/m 7,3 C 5,2 C 30,6 km/h (5 Bft)
01.01.2023 15:24 10,6 C 9,4 C 80 % 1018,4 hPa 0,0 l/m 20,9 km/h (4 Bft) S-SW 193 0 min 0,0 UV-I 17 W/m 7,3 C 3,8 C 37,0 km/h (5 Bft)
01.01.2023 15:27 10,5 C 9,4 C 80 % 1018,3 hPa 0,0 l/m 13,7 km/h (3 Bft) S-SW 213 0 min 0,0 UV-I 15 W/m 7,2 C 6,3 C 27,4 km/h (4 Bft)
01.01.2023 15:30 10,4 C 9,4 C 80 % 1018,4 hPa 0,0 l/m 15,0 km/h (3 Bft) S-SO 159 0 min 0,0 UV-I 18 W/m 7,1 C 5,6 C 27,4 km/h (4 Bft)
01.01.2023 15:33 10,4 C 9,4 C 80 % 1018,4 hPa 0,0 l/m 17,1 km/h (3 Bft) S 180 0 min 0,0 UV-I 17 W/m 7,1 C 4,8 C 27,4 km/h (4 Bft)
01.01.2023 15:36 10,3 C 9,4 C 81 % 1018,3 hPa 0,0 l/m 14,6 km/h (3 Bft) S-SO 166 0 min 0,0 UV-I 21 W/m 7,2 C 5,7 C 24,1 km/h (4 Bft)
01.01.2023 15:39 10,3 C 9,4 C 81 % 1018,3 hPa 0,0 l/m 12,5 km/h (3 Bft) S 188 0 min 0,0 UV-I 22 W/m 7,2 C 6,6 C 22,5 km/h (4 Bft)
01.01.2023 15:42 10,3 C 9,4 C 81 % 1018,5 hPa 0,0 l/m 14,8 km/h (3 Bft) S 186 0 min 0,0 UV-I 21 W/m 7,2 C 5,6 C 25,7 km/h (4 Bft)
01.01.2023 15:45 10,3 C 9,4 C 81 % 1018,4 hPa 0,0 l/m 11,8 km/h (2 Bft) S 188 0 min 0,0 UV-I 17 W/m 7,2 C 7,0 C 19,3 km/h (3 Bft)
01.01.2023 15:46 10,3 C 9,4 C 81 % 1018,4 hPa 0,0 l/m 9,7 km/h (2 Bft) S 180 0 min 0,0 UV-I 18 W/m 7,2 C 8,1 C 19,3 km/h (3 Bft)
01.01.2023 15:47 10,3 C 9,4 C 81 % 1018,4 hPa 0,0 l/m 9,7 km/h (2 Bft) S-SW 202 0 min 0,0 UV-I 18 W/m 7,2 C 8,1 C 14,5 km/h (3 Bft)
01.01.2023 15:48 10,3 C 9,4 C 81 % 1018,4 hPa 0,0 l/m 12,9 km/h (3 Bft) S 180 0 min 0,0 UV-I 16 W/m 7,2 C 6,4 C 22,5 km/h (4 Bft)
01.01.2023 15:49 10,2 C 9,4 C 81 % 1018,3 hPa 0,0 l/m 12,9 km/h (3 Bft) S-SW 202 0 min 0,0 UV-I 14 W/m 7,1 C 6,3 C 16,1 km/h (3 Bft)
01.01.2023 15:50 10,3 C 9,4 C 81 % 1018,4 hPa 0,0 l/m 8,0 km/h (2 Bft) S 180 0 min 0,0 UV-I 12 W/m 7,2 C 9,2 C 11,3 km/h (2 Bft)
01.01.2023 15:51 10,2 C 9,4 C 81 % 1018,5 hPa 0,0 l/m 16,1 km/h (3 Bft) S 180 0 min 0,0 UV-I 11 W/m 7,1 C 4,9 C 27,4 km/h (4 Bft)
01.01.2023 15:52 10,2 C 9,4 C 81 % 1018,4 hPa 0,0 l/m 14,5 km/h (3 Bft) S 180 0 min 0,0 UV-I 9 W/m 7,1 C 5,6 C 20,9 km/h (4 Bft)
01.01.2023 15:53 10,2 C 9,4 C 81 % 1018,4 hPa 0,0 l/m 16,1 km/h (3 Bft) S 180 0 min 0,0 UV-I 7 W/m 7,1 C 4,9 C 24,1 km/h (4 Bft)
01.01.2023 15:54 10,2 C 9,4 C 81 % 1018,5 hPa 0,0 l/m 16,1 km/h (3 Bft) S-SW 202 0 min 0,0 UV-I 7 W/m 7,1 C 4,9 C 22,5 km/h (4 Bft)
01.01.2023 15:55 10,2 C 9,4 C 82 % 1018,5 hPa 0,0 l/m 16,1 km/h (3 Bft) S-SW 202 0 min 0,0 UV-I 7 W/m 7,3 C 4,9 C 22,5 km/h (4 Bft)
01.01.2023 15:56 10,2 C 9,4 C 82 % 1018,5 hPa 0,0 l/m 11,3 km/h (2 Bft) S 180 0 min 0,0 UV-I 6 W/m 7,3 C 7,1 C 17,7 km/h (3 Bft)
01.01.2023 16:00 10,2 C 8,9 C 82 % 1018,5 hPa 0,0 l/m 15,9 km/h (3 Bft) SW 219 0 min 0,0 UV-I 12 W/m 7,3 C 5,0 C 24,1 km/h (4 Bft)
01.01.2023 16:03 10,1 C 8,9 C 82 % 1018,5 hPa 0,0 l/m 16,1 km/h (3 Bft) S-SO 161 0 min 0,0 UV-I 6 W/m 7,2 C 4,8 C 27,4 km/h (4 Bft)
01.01.2023 16:06 10,1 C 8,9 C 82 % 1018,4 hPa 0,0 l/m 12,2 km/h (2 Bft) S 190 0 min 0,0 UV-I 4 W/m 7,2 C 6,5 C 22,5 km/h (4 Bft)
01.01.2023 16:09 10,0 C 8,3 C 82 % 1018,5 hPa 0,0 l/m 10,0 km/h (2 Bft) S 185 0 min 0,0 UV-I 0 W/m 7,1 C 7,6 C 16,1 km/h (3 Bft)
01.01.2023 16:12 9,9 C 8,3 C 83 % 1018,6 hPa 0,0 l/m 8,7 km/h (2 Bft) SW 218 0 min 0,0 UV-I 0 W/m 7,2 C 8,3 C 14,5 km/h (3 Bft)
01.01.2023 16:15 9,9 C 8,3 C 83 % 1018,7 hPa 0,0 l/m 10,2 km/h (2 Bft) S 188 0 min 0,0 UV-I 0 W/m 7,2 C 7,4 C 14,5 km/h (3 Bft)
01.01.2023 16:18 9,8 C 8,3 C 84 % 1018,6 hPa 0,0 l/m 9,3 km/h (2 Bft) S 182 0 min 0,0 UV-I 0 W/m 7,2 C 7,8 C 16,1 km/h (3 Bft)
01.01.2023 16:21 9,8 C 8,3 C 84 % 1018,6 hPa 0,0 l/m 7,7 km/h (2 Bft) S-SW 198 0 min 0,0 UV-I 0 W/m 7,2 C 8,9 C 14,5 km/h (3 Bft)
01.01.2023 16:24 9,7 C 8,3 C 84 % 1018,5 hPa 0,0 l/m 9,3 km/h (2 Bft) S 177 0 min 0,0 UV-I 0 W/m 7,1 C 7,7 C 14,5 km/h (3 Bft)
01.01.2023 16:27 9,7 C 8,3 C 84 % 1018,6 hPa 0,0 l/m 11,2 km/h (2 Bft) S 188 0 min 0,0 UV-I 0 W/m 7,1 C 6,6 C 17,7 km/h (3 Bft)
01.01.2023 16:30 9,7 C 8,3 C 84 % 1018,6 hPa 0,0 l/m 8,9 km/h (2 Bft) S 180 0 min 0,0 UV-I 0 W/m 7,1 C 7,9 C 19,3 km/h (3 Bft)
01.01.2023 16:33 9,6 C 8,3 C 85 % 1018,6 hPa 0,0 l/m 12,6 km/h (3 Bft) SO 137 0 min 0,0 UV-I 0 W/m 7,2 C 5,8 C 20,9 km/h (4 Bft)
01.01.2023 16:36 9,6 C 8,3 C 85 % 1018,5 hPa 0,0 l/m 11,6 km/h (2 Bft) S 177 0 min 0,0 UV-I 0 W/m 7,2 C 6,3 C 17,7 km/h (3 Bft)
01.01.2023 16:39 9,6 C 8,3 C 85 % 1018,5 hPa 0,0 l/m 13,9 km/h (3 Bft) S 183 0 min 0,0 UV-I 0 W/m 7,2 C 5,1 C 20,9 km/h (4 Bft)
01.01.2023 16:42 9,5 C 8,3 C 85 % 1018,5 hPa 0,0 l/m 10,4 km/h (2 Bft) S 189 0 min 0,0 UV-I 0 W/m 7,1 C 6,8 C 16,1 km/h (3 Bft)
01.01.2023 16:45 9,4 C 8,3 C 85 % 1018,5 hPa 0,0 l/m 16,4 km/h (3 Bft) SO 137 0 min 0,0 UV-I 0 W/m 7,0 C 3,8 C 25,7 km/h (4 Bft)
01.01.2023 16:48 9,4 C 8,3 C 85 % 1018,5 hPa 0,0 l/m 11,3 km/h (2 Bft) S 179 0 min 0,0 UV-I 0 W/m 7,0 C 6,2 C 19,3 km/h (3 Bft)
01.01.2023 16:51 9,4 C 7,8 C 85 % 1018,4 hPa 0,0 l/m 9,1 km/h (2 Bft) S-SW 194 0 min 0,0 UV-I 0 W/m 7,0 C 7,5 C 16,1 km/h (3 Bft)
01.01.2023 16:54 9,3 C 7,8 C 86 % 1018,3 hPa 0,0 l/m 9,3 km/h (2 Bft) S 176 0 min 0,0 UV-I 0 W/m 7,1 C 7,3 C 16,1 km/h (3 Bft)
01.01.2023 16:57 9,3 C 7,8 C 86 % 1018,3 hPa 0,2 l/m 8,1 km/h (2 Bft) S-SO 167 0 min 0,0 UV-I 0 W/m 7,1 C 8,0 C 12,9 km/h (3 Bft)
01.01.2023 17:00 9,3 C 7,8 C 86 % 1018,2 hPa 0,0 l/m 9,4 km/h (2 Bft) S 180 0 min 0,0 UV-I 0 W/m 7,1 C 7,2 C 14,5 km/h (3 Bft)
01.01.2023 17:03 9,2 C 7,8 C 86 % 1018,1 hPa 0,0 l/m 7,8 km/h (2 Bft) S 173 0 min 0,0 UV-I 0 W/m 7,0 C 8,2 C 14,5 km/h (3 Bft)
01.01.2023 17:06 9,2 C 7,8 C 86 % 1018,0 hPa 0,0 l/m 7,3 km/h (2 Bft) S 186 0 min 0,0 UV-I 0 W/m 7,0 C 8,5 C 11,3 km/h (2 Bft)
01.01.2023 17:09 9,2 C 7,8 C 87 % 1018,0 hPa 0,0 l/m 7,1 km/h (2 Bft) S-SO 163 0 min 0,0 UV-I 0 W/m 7,2 C 8,7 C 11,3 km/h (2 Bft)
01.01.2023 17:12 9,2 C 7,8 C 87 % 1017,9 hPa 0,0 l/m 8,2 km/h (2 Bft) S-SO 155 0 min 0,0 UV-I 0 W/m 7,2 C 7,9 C 14,5 km/h (3 Bft)
01.01.2023 17:15 9,1 C 7,8 C 87 % 1018,0 hPa 0,0 l/m 7,2 km/h (2 Bft) S 178 0 min 0,0 UV-I 0 W/m 7,1 C 8,5 C 11,3 km/h (2 Bft)
01.01.2023 17:18 9,1 C 7,8 C 87 % 1017,8 hPa 0,0 l/m 6,2 km/h (2 Bft) S-SO 158 0 min 0,0 UV-I 0 W/m 7,1 C 9,1 C 11,3 km/h (2 Bft)
01.01.2023 17:21 9,1 C 7,8 C 87 % 1017,9 hPa 0,0 l/m 10,5 km/h (2 Bft) S-SO 156 0 min 0,0 UV-I 0 W/m 7,1 C 6,3 C 17,7 km/h (3 Bft)
01.01.2023 17:24 9,1 C 7,8 C 87 % 1017,9 hPa 0,0 l/m 8,7 km/h (2 Bft) SO 141 0 min 0,0 UV-I 0 W/m 7,1 C 7,4 C 12,9 km/h (3 Bft)
01.01.2023 17:27 9,1 C 7,8 C 87 % 1017,8 hPa 0,0 l/m 11,7 km/h (2 Bft) S 169 0 min 0,0 UV-I 0 W/m 7,1 C 5,6 C 19,3 km/h (3 Bft)
01.01.2023 17:30 9,0 C 7,8 C 87 % 1017,8 hPa 0,0 l/m 8,7 km/h (2 Bft) S-SO 155 0 min 0,0 UV-I 0 W/m 7,0 C 7,3 C 14,5 km/h (3 Bft)
01.01.2023 17:33 9,0 C 7,8 C 88 % 1017,8 hPa 0,0 l/m 9,2 km/h (2 Bft) S-SW 203 0 min 0,0 UV-I 0 W/m 7,1 C 7,0 C 17,7 km/h (3 Bft)
01.01.2023 17:36 9,1 C 8,3 C 88 % 1017,8 hPa 0,0 l/m 10,3 km/h (2 Bft) S 180 0 min 0,0 UV-I 0 W/m 7,2 C 6,4 C 17,7 km/h (3 Bft)
01.01.2023 17:39 9,0 C 7,8 C 88 % 1017,7 hPa 0,0 l/m 8,9 km/h (2 Bft) S-SW 195 0 min 0,0 UV-I 0 W/m 7,1 C 7,2 C 14,5 km/h (3 Bft)
01.01.2023 17:42 9,0 C 8,3 C 88 % 1017,6 hPa 0,0 l/m 9,7 km/h (2 Bft) S-SO 158 0 min 0,0 UV-I 0 W/m 7,1 C 6,7 C 16,1 km/h (3 Bft)
01.01.2023 17:45 9,1 C 7,8 C 88 % 1017,7 hPa 0,0 l/m 7,5 km/h (2 Bft) S-SO 168 0 min 0,0 UV-I 0 W/m 7,2 C 8,3 C 14,5 km/h (3 Bft)
01.01.2023 17:48 9,0 C 8,3 C 88 % 1017,7 hPa 0,0 l/m 9,1 km/h (2 Bft) S 176 0 min 0,0 UV-I 0 W/m 7,1 C 7,1 C 17,7 km/h (3 Bft)
01.01.2023 17:51 9,1 C 8,3 C 88 % 1017,6 hPa 0,0 l/m 11,0 km/h (2 Bft) S-SW 200 0 min 0,0 UV-I 0 W/m 7,2 C 6,0 C 16,1 km/h (3 Bft)
01.01.2023 17:54 9,1 C 8,3 C 88 % 1017,7 hPa 0,0 l/m 10,2 km/h (2 Bft) S-SO 161 0 min 0,0 UV-I 0 W/m 7,2 C 6,5 C 16,1 km/h (3 Bft)
01.01.2023 17:57 9,1 C 8,3 C 88 % 1017,6 hPa 0,0 l/m 6,4 km/h (2 Bft) S-SO 148 0 min 0,0 UV-I 0 W/m 7,2 C 9,1 C 11,3 km/h (2 Bft)
01.01.2023 18:00 9,1 C 8,3 C 88 % 1017,5 hPa 0,0 l/m 8,7 km/h (2 Bft) S-SO 168 0 min 0,0 UV-I 0 W/m 7,2 C 7,4 C 16,1 km/h (3 Bft)
01.01.2023 18:03 9,1 C 8,3 C 88 % 1017,6 hPa 0,0 l/m 10,6 km/h (2 Bft) S 185 0 min 0,0 UV-I 0 W/m 7,2 C 6,2 C 16,1 km/h (3 Bft)
01.01.2023 18:06 9,1 C 8,3 C 88 % 1017,5 hPa 0,0 l/m 9,9 km/h (2 Bft) SO 139 0 min 0,0 UV-I 0 W/m 7,2 C 6,7 C 16,1 km/h (3 Bft)
01.01.2023 18:09 9,1 C 8,3 C 88 % 1017,5 hPa 0,0 l/m 8,3 km/h (2 Bft) SO 136 0 min 0,0 UV-I 0 W/m 7,2 C 7,7 C 16,1 km/h (3 Bft)
01.01.2023 18:12 9,1 C 8,3 C 88 % 1017,5 hPa 0,0 l/m 7,6 km/h (2 Bft) S-SO 163 0 min 0,0 UV-I 0 W/m 7,2 C 8,2 C 16,1 km/h (3 Bft)
01.01.2023 18:15 9,1 C 8,3 C 88 % 1017,5 hPa 0,0 l/m 10,4 km/h (2 Bft) S 183 0 min 0,0 UV-I 0 W/m 7,2 C 6,4 C 14,5 km/h (3 Bft)
01.01.2023 18:18 9,1 C 8,3 C 88 % 1017,5 hPa 0,0 l/m 8,9 km/h (2 Bft) S-SO 155 0 min 0,0 UV-I 0 W/m 7,2 C 7,3 C 14,5 km/h (3 Bft)
01.01.2023 18:21 9,1 C 8,3 C 88 % 1017,3 hPa 0,0 l/m 7,1 km/h (2 Bft) SO 138 0 min 0,0 UV-I 0 W/m 7,2 C 8,6 C 12,9 km/h (3 Bft)
01.01.2023 18:24 9,1 C 7,8 C 88 % 1017,4 hPa 0,0 l/m 8,9 km/h (2 Bft) S-SO 157 0 min 0,0 UV-I 0 W/m 7,2 C 7,3 C 16,1 km/h (3 Bft)
01.01.2023 18:27 9,1 C 7,8 C 88 % 1017,4 hPa 0,0 l/m 9,1 km/h (2 Bft) SO 137 0 min 0,0 UV-I 0 W/m 7,2 C 7,2 C 14,5 km/h (3 Bft)
01.01.2023 18:30 9,1 C 8,3 C 88 % 1017,5 hPa 0,0 l/m 11,8 km/h (2 Bft) SO 146 0 min 0,0 UV-I 0 W/m 7,2 C 5,6 C 19,3 km/h (3 Bft)
01.01.2023 18:33 9,1 C 8,3 C 88 % 1017,6 hPa 0,2 l/m 11,2 km/h (2 Bft) S 191 0 min 0,0 UV-I 0 W/m 7,2 C 5,9 C 17,7 km/h (3 Bft)
01.01.2023 18:36 9,1 C 8,3 C 88 % 1017,5 hPa 0,0 l/m 12,4 km/h (3 Bft) S 177 0 min 0,0 UV-I 0 W/m 7,2 C 5,3 C 24,1 km/h (4 Bft)
01.01.2023 18:39 9,1 C 8,3 C 88 % 1017,5 hPa 0,0 l/m 12,3 km/h (3 Bft) SO 146 0 min 0,0 UV-I 0 W/m 7,2 C 5,3 C 27,4 km/h (4 Bft)
01.01.2023 18:42 9,1 C 8,3 C 88 % 1017,3 hPa 0,0 l/m 9,9 km/h (2 Bft) S 173 0 min 0,0 UV-I 0 W/m 7,2 C 6,7 C 16,1 km/h (3 Bft)
01.01.2023 18:45 9,1 C 7,8 C 87 % 1017,3 hPa 0,0 l/m 11,0 km/h (2 Bft) S-SO 167 0 min 0,0 UV-I 0 W/m 7,1 C 6,0 C 22,5 km/h (4 Bft)
01.01.2023 18:48 9,2 C 8,3 C 88 % 1017,1 hPa 0,0 l/m 14,0 km/h (3 Bft) S-SO 153 0 min 0,0 UV-I 0 W/m 7,3 C 4,6 C 24,1 km/h (4 Bft)
01.01.2023 18:51 9,2 C 7,8 C 87 % 1017,2 hPa 0,2 l/m 10,7 km/h (2 Bft) SO 145 0 min 0,0 UV-I 0 W/m 7,2 C 6,3 C 17,7 km/h (3 Bft)
01.01.2023 18:54 9,2 C 7,8 C 87 % 1017,1 hPa 0,0 l/m 9,5 km/h (2 Bft) S-SO 163 0 min 0,0 UV-I 0 W/m 7,2 C 7,0 C 16,1 km/h (3 Bft)
01.01.2023 18:57 9,2 C 7,8 C 87 % 1017,2 hPa 0,0 l/m 8,0 km/h (2 Bft) S 180 0 min 0,0 UV-I 0 W/m 7,2 C 8,0 C 14,5 km/h (3 Bft)
01.01.2023 19:00 9,2 C 7,8 C 87 % 1017,2 hPa 0,0 l/m 8,9 km/h (2 Bft) S-SO 154 0 min 0,0 UV-I 0 W/m 7,2 C 7,4 C 12,9 km/h (3 Bft)
01.01.2023 19:03 9,2 C 7,8 C 88 % 1017,2 hPa 0,0 l/m 6,9 km/h (2 Bft) S-SO 159 0 min 0,0 UV-I 0 W/m 7,3 C 8,8 C 12,9 km/h (3 Bft)
01.01.2023 19:06 9,1 C 7,8 C 88 % 1017,2 hPa 0,0 l/m 5,2 km/h (1 Bft) S-SO 153 0 min 0,0 UV-I 0 W/m 7,2 C 9,1 C 8,0 km/h (2 Bft)
01.01.2023 19:09 9,1 C 8,3 C 88 % 1017,3 hPa 0,0 l/m 9,3 km/h (2 Bft) S-SO 158 0 min 0,0 UV-I 0 W/m 7,2 C 7,0 C 16,1 km/h (3 Bft)
01.01.2023 19:12 9,1 C 8,3 C 88 % 1017,2 hPa 0,0 l/m 6,2 km/h (2 Bft) S-SO 154 0 min 0,0 UV-I 0 W/m 7,2 C 9,1 C 9,7 km/h (2 Bft)
01.01.2023 19:13 9,1 C 7,8 C 88 % 1017,2 hPa 0,0 l/m 6,4 km/h (2 Bft) S 180 0 min 0,0 UV-I 0 W/m 7,2 C 9,1 C 9,7 km/h (2 Bft)
01.01.2023 19:14 9,1 C 7,8 C 88 % 1017,1 hPa 0,0 l/m 3,2 km/h (1 Bft) S-SW 202 0 min 0,0 UV-I 0 W/m 7,2 C 9,1 C 4,8 km/h (1 Bft)
01.01.2023 19:15 9,1 C 7,8 C 88 % 1017,1 hPa 0,0 l/m 6,4 km/h (2 Bft) SO 135 0 min 0,0 UV-I 0 W/m 7,2 C 9,1 C 11,3 km/h (2 Bft)
01.01.2023 19:16 9,1 C 7,8 C 88 % 1017,0 hPa 0,0 l/m 8,0 km/h (2 Bft) S-SO 157 0 min 0,0 UV-I 0 W/m 7,2 C 7,9 C 11,3 km/h (2 Bft)
01.01.2023 19:17 9,1 C 7,8 C 88 % 1017,0 hPa 0,0 l/m 8,0 km/h (2 Bft) SO 135 0 min 0,0 UV-I 0 W/m 7,2 C 7,9 C 12,9 km/h (3 Bft)
01.01.2023 19:18 9,1 C 8,3 C 88 % 1017,0 hPa 0,0 l/m 8,0 km/h (2 Bft) S-SO 157 0 min 0,0 UV-I 0 W/m 7,2 C 7,9 C 9,7 km/h (2 Bft)
01.01.2023 19:19 9,1 C 8,3 C 88 % 1017,1 hPa 0,0 l/m 6,4 km/h (2 Bft) S-SO 157 0 min 0,0 UV-I 0 W/m 7,2 C 9,1 C 11,3 km/h (2 Bft)
01.01.2023 19:20 9,1 C 8,3 C 88 % 1017,0 hPa 0,0 l/m 6,4 km/h (2 Bft) S-SO 157 0 min 0,0 UV-I 0 W/m 7,2 C 9,1 C 9,7 km/h (2 Bft)
01.01.2023 19:21 9,1 C 8,3 C 88 % 1017,0 hPa 0,0 l/m 4,8 km/h (1 Bft) S-SO 157 0 min 0,0 UV-I 0 W/m 7,2 C 9,1 C 8,0 km/h (2 Bft)
01.01.2023 19:24 9,1 C 8,3 C 88 % 1017,0 hPa 0,0 l/m 9,4 km/h (2 Bft) S 176 0 min 0,0 UV-I 0 W/m 7,2 C 7,0 C 12,9 km/h (3 Bft)
01.01.2023 19:27 9,1 C 8,3 C 88 % 1016,9 hPa 0,0 l/m 8,4 km/h (2 Bft) S-SO 155 0 min 0,0 UV-I 0 W/m 7,2 C 7,6 C 17,7 km/h (3 Bft)
01.01.2023 19:30 9,2 C 8,3 C 88 % 1016,9 hPa 0,0 l/m 6,6 km/h (2 Bft) S-SO 156 0 min 0,0 UV-I 0 W/m 7,3 C 9,1 C 14,5 km/h (3 Bft)
01.01.2023 19:31 9,1 C 8,3 C 88 % 1016,9 hPa 0,0 l/m 4,8 km/h (1 Bft) S-SO 157 0 min 0,0 UV-I 0 W/m 7,2 C 9,1 C 8,0 km/h (2 Bft)
01.01.2023 19:32 9,1 C 8,3 C 88 % 1016,9 hPa 0,0 l/m 3,2 km/h (1 Bft) S-SO 157 0 min 0,0 UV-I 0 W/m 7,2 C 9,1 C 8,0 km/h (2 Bft)
01.01.2023 19:33 9,1 C 8,3 C 88 % 1016,9 hPa 0,0 l/m 6,4 km/h (2 Bft) S-SO 157 0 min 0,0 UV-I 0 W/m 7,2 C 9,1 C 9,7 km/h (2 Bft)
01.01.2023 19:34 9,1 C 8,3 C 88 % 1017,0 hPa 0,0 l/m 3,2 km/h (1 Bft) S-SO 157 0 min 0,0 UV-I 0 W/m 7,2 C 9,1 C 6,4 km/h (2 Bft)
01.01.2023 19:35 9,1 C 8,3 C 88 % 1017,0 hPa 0,0 l/m 4,8 km/h (1 Bft) S-SO 157 0 min 0,0 UV-I 0 W/m 7,2 C 9,1 C 8,0 km/h (2 Bft)
01.01.2023 19:36 9,1 C 8,3 C 88 % 1017,0 hPa 0,0 l/m 4,8 km/h (1 Bft) SO 135 0 min 0,0 UV-I 0 W/m 7,2 C 9,1 C 8,0 km/h (2 Bft)
01.01.2023 19:37 9,1 C 8,3 C 88 % 1017,0 hPa 0,0 l/m 8,0 km/h (2 Bft) S 180 0 min 0,0 UV-I 0 W/m 7,2 C 7,9 C 9,7 km/h (2 Bft)
01.01.2023 19:38 9,1 C 8,3 C 88 % 1016,9 hPa 0,0 l/m 6,4 km/h (2 Bft) S-SW 202 0 min 0,0 UV-I 0 W/m 7,2 C 9,1 C 11,3 km/h (2 Bft)
01.01.2023 19:39 9,2 C 8,3 C 88 % 1017,0 hPa 0,0 l/m 4,8 km/h (1 Bft) S 180 0 min 0,0 UV-I 0 W/m 7,3 C 9,2 C 6,4 km/h (2 Bft)
01.01.2023 19:40 9,2 C 8,3 C 88 % 1017,0 hPa 0,0 l/m 4,8 km/h (1 Bft) S 180 0 min 0,0 UV-I 0 W/m 7,3 C 9,2 C 8,0 km/h (2 Bft)
01.01.2023 19:41 9,2 C 8,3 C 88 % 1017,0 hPa 0,0 l/m 6,4 km/h (2 Bft) S 180 0 min 0,0 UV-I 0 W/m 7,3 C 9,2 C 11,3 km/h (2 Bft)
01.01.2023 19:42 9,2 C 8,3 C 88 % 1016,9 hPa 0,0 l/m 4,8 km/h (1 Bft) S 180 0 min 0,0 UV-I 0 W/m 7,3 C 9,2 C 8,0 km/h (2 Bft)
01.01.2023 19:43 9,2 C 8,3 C 88 % 1017,0 hPa 0,0 l/m 3,2 km/h (1 Bft) S 180 0 min 0,0 UV-I 0 W/m 7,3 C 9,2 C 4,8 km/h (1 Bft)
01.01.2023 19:44 9,2 C 8,3 C 88 % 1016,8 hPa 0,0 l/m 4,8 km/h (1 Bft) S 180 0 min 0,0 UV-I 0 W/m 7,3 C 9,2 C 12,9 km/h (3 Bft)
01.01.2023 19:45 9,2 C 8,3 C 88 % 1016,8 hPa 0,0 l/m 9,7 km/h (2 Bft) SO 135 0 min 0,0 UV-I 0 W/m 7,3 C 6,9 C 12,9 km/h (3 Bft)
01.01.2023 19:46 9,2 C 8,3 C 88 % 1016,8 hPa 0,0 l/m 4,8 km/h (1 Bft) SO 135 0 min 0,0 UV-I 0 W/m 7,3 C 9,2 C 8,0 km/h (2 Bft)
01.01.2023 19:47 9,2 C 8,3 C 88 % 1016,7 hPa 0,0 l/m 6,4 km/h (2 Bft) SO 135 0 min 0,0 UV-I 0 W/m 7,3 C 9,2 C 9,7 km/h (2 Bft)
01.01.2023 19:48 9,2 C 8,3 C 88 % 1016,8 hPa 0,0 l/m 4,8 km/h (1 Bft) S 180 0 min 0,0 UV-I 0 W/m 7,3 C 9,2 C 6,4 km/h (2 Bft)
01.01.2023 19:49 9,2 C 8,3 C 88 % 1016,6 hPa 0,0 l/m 9,7 km/h (2 Bft) SO 135 0 min 0,0 UV-I 0 W/m 7,3 C 6,9 C 12,9 km/h (3 Bft)
01.01.2023 19:50 9,2 C 8,3 C 89 % 1016,7 hPa 0,0 l/m 11,3 km/h (2 Bft) S 180 0 min 0,0 UV-I 0 W/m 7,5 C 6,0 C 14,5 km/h (3 Bft)
01.01.2023 19:51 9,2 C 8,3 C 89 % 1016,7 hPa 0,0 l/m 8,0 km/h (2 Bft) S-SO 157 0 min 0,0 UV-I 0 W/m 7,5 C 8,0 C 12,9 km/h (3 Bft)
01.01.2023 19:52 9,2 C 8,3 C 89 % 1016,5 hPa 0,0 l/m 9,7 km/h (2 Bft) SO 135 0 min 0,0 UV-I 0 W/m 7,5 C 6,9 C 14,5 km/h (3 Bft)
01.01.2023 19:53 9,2 C 8,3 C 88 % 1016,5 hPa 0,0 l/m 8,0 km/h (2 Bft) SO 135 0 min 0,0 UV-I 0 W/m 7,3 C 8,0 C 14,5 km/h (3 Bft)
01.01.2023 19:54 9,2 C 8,3 C 88 % 1016,6 hPa 0,0 l/m 7,2 km/h (2 Bft) SO 137 0 min 0,0 UV-I 0 W/m 7,3 C 8,6 C 11,3 km/h (2 Bft)
01.01.2023 19:57 9,2 C 8,3 C 88 % 1016,6 hPa 0,0 l/m 6,6 km/h (2 Bft) S-SO 164 0 min 0,0 UV-I 0 W/m 7,3 C 9,1 C 12,9 km/h (3 Bft)
01.01.2023 20:00 9,2 C 8,3 C 89 % 1016,6 hPa 0,0 l/m 11,8 km/h (2 Bft) SO 128 0 min 0,0 UV-I 0 W/m 7,5 C 5,7 C 16,1 km/h (3 Bft)
01.01.2023 20:03 9,2 C 8,3 C 88 % 1016,4 hPa 0,0 l/m 9,5 km/h (2 Bft) SO 142 0 min 0,0 UV-I 0 W/m 7,3 C 7,0 C 16,1 km/h (3 Bft)
01.01.2023 20:06 9,3 C 8,3 C 88 % 1016,4 hPa 0,0 l/m 9,4 km/h (2 Bft) S-SO 153 0 min 0,0 UV-I 0 W/m 7,4 C 7,2 C 20,9 km/h (4 Bft)
01.01.2023 20:09 9,3 C 8,3 C 88 % 1016,4 hPa 0,0 l/m 8,0 km/h (2 Bft) S-SO 148 0 min 0,0 UV-I 0 W/m 7,4 C 8,1 C 12,9 km/h (3 Bft)
01.01.2023 20:12 9,3 C 8,9 C 88 % 1016,4 hPa 0,0 l/m 11,7 km/h (2 Bft) SO 138 0 min 0,0 UV-I 0 W/m 7,4 C 5,9 C 20,9 km/h (4 Bft)
01.01.2023 20:15 9,4 C 8,3 C 88 % 1016,4 hPa 0,0 l/m 7,2 km/h (2 Bft) SO 138 0 min 0,0 UV-I 0 W/m 7,5 C 8,8 C 14,5 km/h (3 Bft)
01.01.2023 20:18 9,4 C 8,9 C 88 % 1016,4 hPa 0,0 l/m 8,5 km/h (2 Bft) SO 142 0 min 0,0 UV-I 0 W/m 7,5 C 7,9 C 16,1 km/h (3 Bft)
01.01.2023 20:21 9,4 C 8,9 C 88 % 1016,2 hPa 0,0 l/m 10,3 km/h (2 Bft) S-SW 192 0 min 0,0 UV-I 0 W/m 7,5 C 6,8 C 17,7 km/h (3 Bft)
01.01.2023 20:24 9,4 C 8,9 C 88 % 1016,2 hPa 0,0 l/m 12,3 km/h (3 Bft) S-SW 194 0 min 0,0 UV-I 0 W/m 7,5 C 5,7 C 22,5 km/h (4 Bft)
01.01.2023 20:27 9,6 C 8,9 C 88 % 1016,1 hPa 0,0 l/m 11,9 km/h (2 Bft) S-SO 154 0 min 0,0 UV-I 0 W/m 7,7 C 6,1 C 22,5 km/h (4 Bft)
01.01.2023 20:30 9,6 C 8,9 C 88 % 1015,8 hPa 0,0 l/m 13,4 km/h (3 Bft) SO 143 0 min 0,0 UV-I 0 W/m 7,7 C 5,4 C 24,1 km/h (4 Bft)
01.01.2023 20:33 9,7 C 8,9 C 88 % 1016,0 hPa 0,0 l/m 11,0 km/h (2 Bft) S-SO 157 0 min 0,0 UV-I 0 W/m 7,8 C 6,7 C 20,9 km/h (4 Bft)
01.01.2023 20:36 9,7 C 8,9 C 88 % 1015,8 hPa 0,0 l/m 11,6 km/h (2 Bft) S-SO 155 0 min 0,0 UV-I 0 W/m 7,8 C 6,4 C 19,3 km/h (3 Bft)
01.01.2023 20:39 9,7 C 8,9 C 87 % 1015,8 hPa 0,0 l/m 11,3 km/h (2 Bft) S-SO 148 0 min 0,0 UV-I 0 W/m 7,6 C 6,5 C 17,7 km/h (3 Bft)
01.01.2023 20:42 9,8 C 8,9 C 87 % 1015,9 hPa 0,0 l/m 13,8 km/h (3 Bft) S 179 0 min 0,0 UV-I 0 W/m 7,7 C 5,4 C 24,1 km/h (4 Bft)
01.01.2023 20:45 9,8 C 8,9 C 87 % 1015,9 hPa 0,0 l/m 10,9 km/h (2 Bft) S-SO 161 0 min 0,0 UV-I 0 W/m 7,7 C 6,9 C 19,3 km/h (3 Bft)
01.01.2023 20:48 9,8 C 8,9 C 87 % 1015,8 hPa 0,0 l/m 12,9 km/h (3 Bft) S-SO 154 0 min 0,0 UV-I 0 W/m 7,7 C 5,8 C 20,9 km/h (4 Bft)
01.01.2023 20:51 9,9 C 8,9 C 87 % 1015,8 hPa 0,0 l/m 14,0 km/h (3 Bft) SO 141 0 min 0,0 UV-I 0 W/m 7,8 C 5,4 C 29,0 km/h (5 Bft)
01.01.2023 20:54 9,9 C 8,9 C 86 % 1015,7 hPa 0,0 l/m 12,6 km/h (3 Bft) S 169 0 min 0,0 UV-I 0 W/m 7,7 C 6,1 C 32,2 km/h (5 Bft)
01.01.2023 20:57 10,0 C 8,9 C 86 % 1015,7 hPa 0,0 l/m 13,5 km/h (3 Bft) SO 139 0 min 0,0 UV-I 0 W/m 7,8 C 5,8 C 27,4 km/h (4 Bft)
01.01.2023 21:00 10,1 C 8,9 C 86 % 1015,5 hPa 0,0 l/m 15,0 km/h (3 Bft) SO 134 0 min 0,0 UV-I 0 W/m 7,9 C 5,3 C 27,4 km/h (4 Bft)
01.01.2023 21:03 10,1 C 8,9 C 86 % 1015,6 hPa 0,0 l/m 15,0 km/h (3 Bft) S-SO 167 0 min 0,0 UV-I 0 W/m 7,9 C 5,3 C 24,1 km/h (4 Bft)
01.01.2023 21:06 10,1 C 8,9 C 86 % 1015,6 hPa 0,0 l/m 15,2 km/h (3 Bft) S-SW 202 0 min 0,0 UV-I 0 W/m 7,9 C 5,2 C 22,5 km/h (4 Bft)
01.01.2023 21:09 10,1 C 8,9 C 85 % 1015,5 hPa 0,0 l/m 19,2 km/h (3 Bft) S 184 0 min 0,0 UV-I 0 W/m 7,7 C 3,7 C 30,6 km/h (5 Bft)
01.01.2023 21:12 10,1 C 8,9 C 85 % 1015,4 hPa 0,0 l/m 19,9 km/h (4 Bft) S-SO 167 0 min 0,0 UV-I 0 W/m 7,7 C 3,4 C 30,6 km/h (5 Bft)
01.01.2023 21:15 10,2 C 9,4 C 85 % 1015,3 hPa 0,0 l/m 18,8 km/h (3 Bft) S-SO 163 0 min 0,0 UV-I 0 W/m 7,8 C 3,9 C 33,8 km/h (5 Bft)
01.01.2023 21:18 10,2 C 8,9 C 85 % 1015,5 hPa 0,0 l/m 16,5 km/h (3 Bft) S-SO 165 0 min 0,0 UV-I 0 W/m 7,8 C 4,8 C 24,1 km/h (4 Bft)
01.01.2023 21:21 10,2 C 8,9 C 84 % 1015,5 hPa 0,0 l/m 16,2 km/h (3 Bft) SO 125 0 min 0,0 UV-I 0 W/m 7,6 C 4,9 C 25,7 km/h (4 Bft)
01.01.2023 21:24 10,2 C 9,4 C 84 % 1015,5 hPa 0,0 l/m 18,9 km/h (3 Bft) O-SO 121 0 min 0,0 UV-I 0 W/m 7,6 C 3,9 C 40,2 km/h (6 Bft)
01.01.2023 21:27 10,3 C 9,4 C 84 % 1015,5 hPa 0,0 l/m 20,3 km/h (4 Bft) S-SO 155 0 min 0,0 UV-I 0 W/m 7,7 C 3,6 C 37,0 km/h (5 Bft)
01.01.2023 21:30 10,4 C 9,4 C 84 % 1015,5 hPa 0,0 l/m 18,5 km/h (3 Bft) SO 143 0 min 0,0 UV-I 0 W/m 7,8 C 4,3 C 25,7 km/h (4 Bft)
01.01.2023 21:33 10,4 C 9,4 C 84 % 1015,5 hPa 0,0 l/m 13,7 km/h (3 Bft) S-SO 167 0 min 0,0 UV-I 0 W/m 7,8 C 6,2 C 25,7 km/h (4 Bft)
01.01.2023 21:36 10,5 C 9,4 C 84 % 1015,5 hPa 0,0 l/m 19,9 km/h (4 Bft) SO 136 0 min 0,0 UV-I 0 W/m 7,9 C 4,0 C 40,2 km/h (6 Bft)
01.01.2023 21:39 10,6 C 9,4 C 83 % 1015,5 hPa 0,0 l/m 16,8 km/h (3 Bft) S-SO 152 0 min 0,0 UV-I 0 W/m 7,8 C 5,2 C 25,7 km/h (4 Bft)
01.01.2023 21:42 10,7 C 10,0 C 83 % 1015,7 hPa 0,0 l/m 18,2 km/h (3 Bft) S-SO 167 0 min 0,0 UV-I 0 W/m 7,9 C 4,8 C 35,4 km/h (5 Bft)
01.01.2023 21:45 10,8 C 10,0 C 83 % 1015,5 hPa 0,0 l/m 17,8 km/h (3 Bft) S-SO 163 0 min 0,0 UV-I 0 W/m 8,0 C 5,0 C 30,6 km/h (5 Bft)
01.01.2023 21:48 10,8 C 10,0 C 82 % 1015,6 hPa 0,0 l/m 16,8 km/h (3 Bft) S 174 0 min 0,0 UV-I 0 W/m 7,9 C 5,4 C 35,4 km/h (5 Bft)
01.01.2023 21:51 10,9 C 10,0 C 82 % 1015,6 hPa 0,0 l/m 18,2 km/h (3 Bft) S-SO 162 0 min 0,0 UV-I 0 W/m 7,9 C 5,0 C 30,6 km/h (5 Bft)
01.01.2023 21:54 11,0 C 10,0 C 81 % 1015,5 hPa 0,0 l/m 17,9 km/h (3 Bft) S 184 0 min 0,0 UV-I 0 W/m 7,9 C 5,3 C 29,0 km/h (5 Bft)
01.01.2023 21:57 11,1 C 10,0 C 81 % 1015,5 hPa 0,0 l/m 13,7 km/h (3 Bft) S 178 0 min 0,0 UV-I 0 W/m 8,0 C 7,0 C 22,5 km/h (4 Bft)
01.01.2023 22:00 11,1 C 10,0 C 81 % 1015,4 hPa 0,0 l/m 17,1 km/h (3 Bft) S 177 0 min 0,0 UV-I 0 W/m 8,0 C 5,7 C 29,0 km/h (5 Bft)
01.01.2023 22:03 11,1 C 10,0 C 81 % 1015,5 hPa 0,0 l/m 17,0 km/h (3 Bft) S-SO 148 0 min 0,0 UV-I 0 W/m 8,0 C 5,7 C 35,4 km/h (5 Bft)
01.01.2023 22:06 11,2 C 10,0 C 81 % 1015,4 hPa 0,0 l/m 16,6 km/h (3 Bft) S-SO 157 0 min 0,0 UV-I 0 W/m 8,1 C 6,0 C 30,6 km/h (5 Bft)
01.01.2023 22:09 11,2 C 10,0 C 80 % 1015,4 hPa 0,0 l/m 17,9 km/h (3 Bft) SO 146 0 min 0,0 UV-I 0 W/m 7,9 C 5,5 C 32,2 km/h (5 Bft)
01.01.2023 22:12 11,2 C 10,0 C 80 % 1015,3 hPa 0,0 l/m 15,0 km/h (3 Bft) S-SO 160 0 min 0,0 UV-I 0 W/m 7,9 C 6,6 C 24,1 km/h (4 Bft)
01.01.2023 22:15 11,3 C 10,0 C 80 % 1015,4 hPa 0,0 l/m 20,0 km/h (4 Bft) S 181 0 min 0,0 UV-I 0 W/m 8,0 C 5,0 C 32,2 km/h (5 Bft)
01.01.2023 22:18 11,3 C 10,0 C 80 % 1015,3 hPa 0,0 l/m 17,5 km/h (3 Bft) S-SO 167 0 min 0,0 UV-I 0 W/m 8,0 C 5,8 C 25,7 km/h (4 Bft)
01.01.2023 22:21 11,3 C 10,0 C 80 % 1015,4 hPa 0,0 l/m 18,5 km/h (3 Bft) S-SW 199 0 min 0,0 UV-I 0 W/m 8,0 C 5,4 C 27,4 km/h (4 Bft)
01.01.2023 22:24 11,4 C 10,6 C 79 % 1015,5 hPa 0,0 l/m 23,8 km/h (4 Bft) S-SO 167 0 min 0,0 UV-I 0 W/m 7,9 C 4,0 C 46,7 km/h (6 Bft)
01.01.2023 22:27 11,5 C 10,6 C 79 % 1015,4 hPa 0,0 l/m 18,0 km/h (3 Bft) S 180 0 min 0,0 UV-I 0 W/m 8,0 C 5,9 C 29,0 km/h (5 Bft)
01.01.2023 22:30 11,6 C 10,6 C 79 % 1015,4 hPa 0,0 l/m 20,0 km/h (4 Bft) S 178 0 min 0,0 UV-I 0 W/m 8,1 C 5,4 C 32,2 km/h (5 Bft)
01.01.2023 22:33 11,6 C 10,6 C 79 % 1015,5 hPa 0,0 l/m 18,6 km/h (3 Bft) SW 214 0 min 0,0 UV-I 0 W/m 8,1 C 5,8 C 27,4 km/h (4 Bft)
01.01.2023 22:36 11,7 C 10,6 C 78 % 1015,4 hPa 0,0 l/m 20,2 km/h (4 Bft) S-SO 165 0 min 0,0 UV-I 0 W/m 8,0 C 5,4 C 38,6 km/h (5 Bft)
01.01.2023 22:39 11,8 C 11,1 C 78 % 1015,4 hPa 0,0 l/m 19,6 km/h (3 Bft) S-SW 203 0 min 0,0 UV-I 0 W/m 8,1 C 5,7 C 35,4 km/h (5 Bft)
01.01.2023 22:42 11,8 C 11,1 C 78 % 1015,4 hPa 0,0 l/m 22,8 km/h (4 Bft) S 179 0 min 0,0 UV-I 0 W/m 8,1 C 4,8 C 37,0 km/h (5 Bft)
01.01.2023 22:45 11,9 C 11,1 C 77 % 1015,4 hPa 0,0 l/m 16,7 km/h (3 Bft) S 182 0 min 0,0 UV-I 0 W/m 8,0 C 6,8 C 32,2 km/h (5 Bft)
01.01.2023 22:48 11,9 C 11,1 C 77 % 1015,3 hPa 0,0 l/m 18,1 km/h (3 Bft) S 180 0 min 0,0 UV-I 0 W/m 8,0 C 6,3 C 30,6 km/h (5 Bft)
01.01.2023 22:51 11,9 C 11,1 C 77 % 1015,4 hPa 0,0 l/m 19,6 km/h (3 Bft) S 178 0 min 0,0 UV-I 0 W/m 8,0 C 5,9 C 35,4 km/h (5 Bft)
01.01.2023 22:54 12,1 C 11,1 C 76 % 1015,2 hPa 0,0 l/m 18,8 km/h (3 Bft) S 175 0 min 0,0 UV-I 0 W/m 8,0 C 6,4 C 33,8 km/h (5 Bft)
01.01.2023 22:57 12,1 C 11,1 C 76 % 1015,3 hPa 0,0 l/m 17,7 km/h (3 Bft) S 186 0 min 0,0 UV-I 0 W/m 8,0 C 6,7 C 30,6 km/h (5 Bft)
01.01.2023 23:00 12,1 C 11,1 C 76 % 1015,3 hPa 0,0 l/m 17,7 km/h (3 Bft) S-SO 168 0 min 0,0 UV-I 0 W/m 8,0 C 6,7 C 30,6 km/h (5 Bft)
01.01.2023 23:03 12,0 C 11,1 C 76 % 1015,3 hPa 0,0 l/m 18,1 km/h (3 Bft) S 185 0 min 0,0 UV-I 0 W/m 7,9 C 6,5 C 32,2 km/h (5 Bft)
01.01.2023 23:06 12,0 C 11,1 C 77 % 1015,3 hPa 0,0 l/m 18,4 km/h (3 Bft) S 181 0 min 0,0 UV-I 0 W/m 8,1 C 6,4 C 29,0 km/h (5 Bft)
01.01.2023 23:09 11,9 C 11,1 C 77 % 1015,4 hPa 0,0 l/m 19,0 km/h (3 Bft) S-SO 161 0 min 0,0 UV-I 0 W/m 8,0 C 6,0 C 32,2 km/h (5 Bft)
01.01.2023 23:12 11,9 C 11,1 C 77 % 1015,4 hPa 0,0 l/m 18,9 km/h (3 Bft) SW 235 0 min 0,0 UV-I 0 W/m 8,0 C 6,1 C 32,2 km/h (5 Bft)
01.01.2023 23:15 11,9 C 11,1 C 77 % 1015,4 hPa 0,0 l/m 15,4 km/h (3 Bft) S 189 0 min 0,0 UV-I 0 W/m 8,0 C 7,3 C 24,1 km/h (4 Bft)
01.01.2023 23:18 11,9 C 11,1 C 77 % 1015,3 hPa 0,0 l/m 17,8 km/h (3 Bft) S 182 0 min 0,0 UV-I 0 W/m 8,0 C 6,4 C 30,6 km/h (5 Bft)
01.01.2023 23:21 11,9 C 11,1 C 76 % 1015,4 hPa 0,0 l/m 17,6 km/h (3 Bft) S-SW 205 0 min 0,0 UV-I 0 W/m 7,8 C 6,5 C 25,7 km/h (4 Bft)
01.01.2023 23:24 11,9 C 11,1 C 76 % 1015,4 hPa 0,0 l/m 16,8 km/h (3 Bft) S 181 0 min 0,0 UV-I 0 W/m 7,8 C 6,8 C 29,0 km/h (5 Bft)
01.01.2023 23:27 12,0 C 11,1 C 76 % 1015,3 hPa 0,0 l/m 18,4 km/h (3 Bft) S 182 0 min 0,0 UV-I 0 W/m 7,9 C 6,4 C 29,0 km/h (5 Bft)
01.01.2023 23:30 12,1 C 11,1 C 76 % 1015,4 hPa 0,0 l/m 18,7 km/h (3 Bft) S-SO 154 0 min 0,0 UV-I 0 W/m 8,0 C 6,4 C 29,0 km/h (5 Bft)
01.01.2023 23:33 12,1 C 11,1 C 76 % 1015,3 hPa 0,0 l/m 13,3 km/h (3 Bft) S 187 0 min 0,0 UV-I 0 W/m 8,0 C 8,4 C 20,9 km/h (4 Bft)
01.01.2023 23:36 12,1 C 11,1 C 76 % 1015,3 hPa 0,0 l/m 13,8 km/h (3 Bft) S-SW 192 0 min 0,0 UV-I 0 W/m 8,0 C 8,2 C 20,9 km/h (4 Bft)
01.01.2023 23:39 12,0 C 11,1 C 76 % 1015,3 hPa 0,0 l/m 14,7 km/h (3 Bft) S 188 0 min 0,0 UV-I 0 W/m 7,9 C 7,7 C 30,6 km/h (5 Bft)
01.01.2023 23:42 11,9 C 11,1 C 76 % 1015,4 hPa 0,0 l/m 16,6 km/h (3 Bft) S-SO 167 0 min 0,0 UV-I 0 W/m 7,8 C 6,8 C 24,1 km/h (4 Bft)
01.01.2023 23:45 11,8 C 11,1 C 76 % 1015,4 hPa 0,0 l/m 17,1 km/h (3 Bft) S-SW 196 0 min 0,0 UV-I 0 W/m 7,7 C 6,5 C 35,4 km/h (5 Bft)
01.01.2023 23:48 11,8 C 10,6 C 77 % 1015,4 hPa 0,0 l/m 17,2 km/h (3 Bft) S 178 0 min 0,0 UV-I 0 W/m 7,9 C 6,5 C 29,0 km/h (5 Bft)
01.01.2023 23:51 11,7 C 10,6 C 77 % 1015,3 hPa 0,0 l/m 15,1 km/h (3 Bft) S-SW 192 0 min 0,0 UV-I 0 W/m 7,8 C 7,2 C 29,0 km/h (5 Bft)
01.01.2023 23:54 11,7 C 10,6 C 77 % 1015,3 hPa 0,0 l/m 18,4 km/h (3 Bft) S-SO 165 0 min 0,0 UV-I 0 W/m 7,8 C 6,0 C 27,4 km/h (4 Bft)
01.01.2023 23:57 11,6 C 10,6 C 77 % 1015,4 hPa 0,0 l/m 15,0 km/h (3 Bft) S-SW 197 0 min 0,0 UV-I 0 W/m 7,7 C 7,1 C 22,5 km/h (4 Bft)
01.01.2023 23:58 11,6 C 10,6 C 77 % 1015,4 hPa 0,0 l/m 19,3 km/h (3 Bft) S-SW 202 0 min 0,0 UV-I 0 W/m 7,7 C 5,6 C 25,7 km/h (4 Bft)
01.01.2023 23:59 11,6 C 10,6 C 77 % 1015,5 hPa 0,0 l/m 16,1 km/h (3 Bft) S 180 0 min 0,0 UV-I 0 W/m 7,7 C 6,7 C 20,9 km/h (4 Bft)
_ Min-Zeit 17:24 16:51 02:15 00:10 - 19:14 - - - - - 02:40 09:43 19:14
Minimum _ 9,0 C 7,8 C 67 % 1014,4 hPa - 3,2 km/h (1 Bft) - - - - - 4,9 C 0,1 C 4,8 km/h (1 Bft)
_ Max-Zeit 22:54 22:39 19:50 11:02 09:04 01:44 - - 00:00 13:51 13:48 23:06 19:41 09:43
Maximum _ 12,1 C 11,1 C 89 % 1019,0 hPa 0,2 l/m 32,2 km/h
S (5 Bft)
- - 0 min 0,5 UV-I 106 W/m 8,1 C 9,2 C 54,7 km/h
S-SO (7 Bft)
Durchschnitt _ 10,4 C 9,4 C 79 % 1016,7 hPa #0,8 l/m 17,3 km/h (3 Bft) S - #0 min. 0,2 UV-I 42 W/m 6,8 C 5,0 C 27,1 km/h (4 Bft)